GFSMA_con_sbcape_000.txt.gz
CAPE
286 192 679 816 782 678 572 617 573 469 336 412 425 449 443 505 642 677 516 881 2158 2117 1780 1835 1593 1891 1186 845 749 1246 1111 808 746 777 768 617 857 743 765 457 413 531 671
481 418 614 541 520 520 386 544 487 307 100 67 146 170 249 254 338 381 472 650 1175 2298 2449 2113 1995 1830 1886 1300 998 1250 1246 1189 1262 1125 1346 1556 1227 1188 1131 826 480 372 835
458 475 379 321 325 150 220 222 147 0 15 27 55 41 24 72 174 216 449 709 854 1259 1864 2639 2560 2115 1844 2056 1578 1677 1934 1699 1929 1615 1549 1510 1498 1556 1629 1409 1143 1175 1382
725 379 301 151 162 160 124 172 26 27 41 16 15 35 58 81 116 158 309 466 790 1078 1527 1767 2539 2344 1937 1665 1991 2006 2003 1962 1770 1894 1996 1760 1646 1710 1573 1497 1588 1605 1584
658 519 176 153 158 170 145 67 15 5 47 45 69 211 143 186 210 249 281 312 347 624 769 1092 1851 2038 1769 1635 1895 2086 1874 2040 2174 2059 1939 2244 2087 1914 1797 1673 1888 1944 1829
549 511 236 209 223 158 72 16 12 0 9 13 116 191 88 51 112 163 187 298 380 458 585 965 1815 1654 1777 1843 1621 1811 1959 2039 1752 2089 2003 2176 2183 2090 1910 1730 1660 1593 1729
530 448 398 207 110 140 102 38 23 47 65 0 59 99 20 0 10 0 42 162 0 2 465 1077 1437 1735 1556 1650 1874 1814 1786 1904 2024 1949 1996 1971 2108 2232 2097 1809 1703 1659 1535
467 303 242 152 146 113 15 0 16 32 69 76 91 2 9 7 0 3 16 12 0 0 0 102 417 482 728 1187 1288 1495 1753 1790 1994 2192 2072 1889 2042 1976 2002 1956 1788 1732 1628
389 346 211 139 20 0 1 0 0 0 58 60 36 46 1 1 0 0 4 0 0 0 0 0 6 42 284 516 478 555 727 1071 1306 1700 1858 1835 1782 1847 1788 1971 1780 1613 1447
193 43 0 0 0 0 0 0 0 14 11 37 22 56 0 13 21 2 0 0 0 0 0 0 0 1 67 159 26 159 326 516 637 797 1105 1665 1509 1742 1895 1923 1961 1694 1478
0 0 0 0 0 0 0 0 0 0 0 14 10 1 0 0 1 0 0 0 0 0 0 0 0 0 0 0 0 0 0 48 230 561 783 756 938 1660 1928 2048 2227 2049 1897
0 0 0 0 0 0 0 0 0 0 0 17 15 4 0 0 0 0 0 0 0 0 0 0 0 0 0 0 0 0 0 0 0 0 7 348 788 854 1116 1941 2022 2223 2302
0 0 0 0 0 0 0 0 0 0 0 0 22 12 0 0 0 0 0 0 1 0 0 0 0 0 0 0 0 0 0 0 0 0 0 0 140 460 795 1400 1760 2007 2183
0 0 0 0 0 0 0 0 0 0 0 10 17 0 0 0 0 0 0 0 0 0 0 0 0 0 0 0 0 0 0 0 0 0 0 0 0 9 168 393 869 1188 1376
0 0 0 0 0 0 0 0 0 0 0 0 0 0 0 0 0 0 0 0 0 0 0 0 0 0 0 0 0 0 0 0 0 0 0 0 0 0 5 22 50 155 598
0 0 0 0 0 0 0 0 0 0 0 0 0 0 0 22 0 0 0 0 0 0 0 0 0 0 0 0 0 0 0 0 0 0 0 0 0 0 3 4 0 0 15
0 0 0 0 0 0 0 0 0 0 0 0 13 22 34 27 11 0 0 0 0 1 0 0 0 0 0 0 0 0 0 0 0 0 0 0 0 0 0 1 2 0 0
0 0 0 0 0 0 0 0 0 0 0 11 46 35 66 50 23 7 0 0 0 0 1 1 0 0 0 0 0 0 0 0 0 0 0 0 0 0 0 0 0 0 0
0 0 0 0 0 0 0 0 0 0 0 3 31 44 53 27 0 0 0 0 0 5 3 3 0 0 0 0 0 0 0 0 0 0 0 0 0 0 0 0 0 0 0
0 0 0 0 0 0 0 0 0 0 0 11 41 48 24 19 16 7 0 0 22 23 35 7 1 1 3 0 0 0 0 0 0 0 0 0 0 0 0 0 0 0 0
0 0 0 0 0 0 0 0 0 0 22 68 80 51 20 18 38 39 32 40 0 16 49 22 1 7 1 0 0 0 1 0 0 0 0 0 5 8 16 5 0 1 0
0 0 0 0 0 0 0 0 18 25 89 88 78 23 0 0 7 10 31 68 100 122 150 79 24 1 24 23 1 0 2 2 23 2 13 11 24 14 14 7 0 19 0
0 0 0 0 2 21 0 4 4 82 34 7 4 0 0 0 16 3 0 8 54 87 154 368 16 18 43 1 6 10 9 5 28 2 12 11 9 5 23 10 0 0 0
0 0 0 11 13 26 10 4 6 16 11 0 0 0 0 0 0 0 0 13 3 0 0 0 0 0 3 8 17 35 7 29 15 13 12 17 17 9 23 16 1 0 0
0 12 47 77 64 93 68 28 1 7 8 0 0 0 0 0 0 0 0 0 0 0 0 0 0 0 0 0 1 11 4 25 24 14 11 11 8 12 18 16 14 1 0
4 27 43 15 17 25 22 0 0 8 5 0 0 0 0 0 0 0 0 0 0 0 0 0 0 0 3 2 1 10 46 25 21 10 10 8 11 9 14 11 12 13 78

GFSMA_con_sbcape_003.txt.gz
CAPE
1965 1918 1646 1882 1929 1692 1506 1450 1427 1339 1086 761 786 754 674 787 915 913 1237 1240 1448 1832 1971 2046 1779 1660 1305 981 1282 1520 1200 1142 892 1343 955 1160 1052 844 761 497 504 468 449
2038 2650 1824 2084 1530 1527 1217 1305 1271 1044 827 805 527 584 528 454 675 827 714 1209 1108 1495 1957 2176 2203 1888 1636 1590 1170 920 1735 1814 1807 1419 1619 1670 1434 1296 1042 754 683 431 826
2306 2268 2307 2182 1578 1258 1207 1117 1099 788 633 479 513 438 583 530 446 888 768 912 1184 1333 1712 1985 2760 2677 1909 1706 1770 1970 2031 1967 2141 1917 1757 1684 1682 1725 1569 1492 1539 1177 1051
2277 2465 2546 2185 1350 1241 961 1062 969 806 773 580 541 607 538 418 699 809 784 821 713 933 1283 1814 1810 2505 2622 1284 1538 1676 1885 1915 2219 2258 2026 1917 1870 1879 1813 1833 1834 1560 1493
1917 2262 2435 1958 1378 1256 1419 1043 820 955 780 628 569 448 295 346 527 430 797 912 940 1003 829 979 1755 1602 1785 1503 2078 1822 2043 2050 1658 1875 2262 2327 1893 1904 1823 1836 1722 1649 1767
1611 1814 1767 1527 1362 1397 1105 959 1049 947 878 794 478 319 305 259 249 375 499 293 56 660 1198 1591 1615 1616 1703 1578 1692 1917 2124 2060 1958 1969 2043 1949 2255 2182 2058 1909 1810 1756 2000
1758 2016 1917 1659 1484 1184 1062 1063 952 903 463 590 535 93 150 204 100 84 107 3 0 0 91 622 1220 1363 1384 1748 1955 1768 1849 2033 2085 2099 1993 2098 1957 2079 2208 1972 1798 1795 1781
1998 1974 1722 1373 1139 757 998 860 902 535 496 594 371 199 0 140 110 21 0 0 0 0 0 33 187 521 864 1070 1067 849 1021 1138 1442 1919 1984 1879 1795 1967 1840 1970 1848 1778 1720
2026 1756 1453 1098 1033 600 164 538 425 637 287 542 573 251 5 7 0 4 11 0 0 0 0 0 14 91 35 0 31 119 259 813 1075 1244 1430 1838 1740 1643 1668 1768 1705 1799 1718
1661 1473 1351 720 762 311 468 319 291 599 700 223 329 398 266 208 3 0 0 0 0 0 0 0 0 0 0 0 0 0 0 42 98 234 738 1191 1284 1574 1693 1739 1620 1549 1741
1525 1004 643 547 576 435 464 187 612 471 398 172 127 217 115 42 54 0 0 0 0 0 0 0 0 0 0 0 0 0 0 0 0 0 0 22 201 873 1144 1337 1814 1847 1777
885 497 302 498 754 619 322 128 325 289 294 328 349 208 25 1 0 1 2 1 0 0 0 0 0 0 0 0 0 0 0 0 0 0 0 0 0 3 246 863 1119 1665 2060
717 271 301 444 543 567 166 115 205 207 215 189 480 104 104 35 34 35 39 18 4 0 0 0 0 0 0 0 0 0 0 0 0 0 0 0 0 0 0 22 248 911 1287
833 294 308 373 550 177 17 60 28 9 135 157 400 278 120 120 107 115 99 63 26 9 4 0 0 0 0 0 0 0 0 0 0 0 0 0 0 0 0 0 1 145 552
426 296 297 378 244 0 14 95 0 16 117 251 241 428 257 134 166 173 205 99 77 32 24 8 0 0 0 0 0 0 0 0 0 0 0 0 0 0 0 0 0 2 43
322 323 311 200 132 32 25 165 15 3 49 11 72 398 500 213 294 591 335 157 97 71 22 24 24 1 0 0 0 0 0 0 0 0 0 0 0 0 0 0 0 0 2
438 338 337 189 169 147 139 204 251 37 5 100 372 449 509 595 279 283 334 286 143 113 106 1 14 31 27 80 84 82 25 0 0 0 0 0 0 0 0 0 0 0 0
297 354 347 302 295 256 281 286 197 0 80 142 178 402 397 281 554 426 270 286 162 209 125 108 75 42 111 135 170 220 125 0 0 0 0 0 0 0 0 0 0 0 0
84 176 288 393 350 330 449 521 354 112 242 299 302 391 424 526 515 231 263 140 94 289 169 137 85 56 74 147 188 275 240 121 19 0 0 0 0 0 0 0 0 0 0
82 85 258 562 384 444 414 294 120 240 378 329 434 488 576 562 422 299 202 229 257 234 161 151 112 76 110 336 229 235 120 45 20 4 1 0 0 0 0 0 0 0 0
11 0 34 338 368 294 187 233 308 444 691 687 652 858 708 612 179 116 71 196 220 187 115 93 109 88 121 136 241 161 146 80 120 26 14 8 8 5 1 5 6 1 0
0 101 77 186 325 182 56 13 161 581 811 961 936 728 771 128 84 23 16 44 91 195 258 214 99 228 529 353 276 278 142 41 14 22 64 24 15 5 8 15 7 0 0
0 12 198 160 546 474 148 19 8 465 756 880 942 799 617 181 58 119 17 0 17 16 78 308 335 380 379 399 358 151 23 26 18 19 53 22 23 27 11 2 4 1 0
20 329 381 535 491 626 183 6 0 402 496 734 609 534 417 323 180 45 57 38 79 132 181 106 135 173 144 56 14 24 30 39 27 32 127 73 46 19 10 41 21 11 0
204 294 144 370 457 526 14 23 67 238 282 213 542 383 121 102 4 0 0 4 32 58 7 0 0 0 0 0 0 11 10 24 26 38 5 5 4 12 20 21 36 14 0
111 79 229 456 230 513 23 69 106 59 160 115 339 69 0 0 0 0 0 0 29 52 4 0 0 0 0 1 0 12 3 11 18 8 0 14 10 21 14 11 8 18 18

GFSMA_con_sbcape_006.txt.gz
CAPE
1939 1852 1756 1796 1657 1591 1399 1398 1457 1507 1446 1116 983 531 197 170 448 458 631 1600 1277 1530 2059 1896 1753 1866 1505 1409 1661 1461 1380 1077 795 724 759 916 1079 1056 729 574 498 907 818
1886 1478 1535 1368 1476 1667 1320 1365 1585 1601 1391 999 432 299 144 70 169 482 308 721 1327 1231 1678 2128 2078 2077 1826 1718 1177 1433 1830 1893 1950 1327 1616 1905 1840 1775 1009 683 693 702 857
2071 1819 1537 1430 1414 1596 1938 1687 1573 1427 993 582 288 90 214 208 242 367 420 223 770 1645 1578 1802 2444 2607 2330 1812 1886 1870 1873 2171 2360 2086 2152 2103 2031 1757 1756 1614 1381 1335 1428
1912 1900 1588 1399 1255 1374 1484 1460 1413 1025 547 303 102 134 189 172 259 309 372 479 158 180 1660 1837 1654 2182 2611 1589 1692 1839 2030 2014 2131 2247 2327 2183 2094 2000 2116 1952 1971 1921 1745
1715 1910 1590 1460 1618 1355 1630 1422 1042 672 260 64 29 15 123 145 150 108 459 720 862 616 292 1924 1307 1365 1529 1543 2189 2262 2294 2239 1893 1980 2201 2299 2213 1954 1828 1955 1944 1991 2016
1843 1857 1620 1530 1586 1596 1259 1030 941 402 349 60 9 10 111 87 111 194 272 117 141 519 841 1489 1194 1466 1498 1409 1613 2404 2520 2165 2255 1951 1816 2080 2175 2338 2081 1986 1939 1966 1891
1945 2011 1554 1673 1680 1515 976 609 298 143 10 67 12 20 69 122 64 52 39 0 0 4 232 964 1192 1336 1674 1434 1447 1505 1589 1834 2070 2335 2229 1993 1894 2081 2167 2084 2039 2062 1980
2306 1934 1929 1728 1531 371 577 216 158 22 16 44 63 18 14 76 66 31 0 0 0 0 0 56 445 963 1043 1175 763 726 521 877 1173 1450 1726 2103 2038 1841 1782 1826 1801 1913 1946
2436 2352 2136 1196 988 160 2 159 162 33 15 229 264 33 11 12 6 38 29 0 0 0 0 0 3 7 0 12 21 59 0 41 243 642 1124 1337 1551 1813 1882 1678 1649 1644 1710
2299 2176 1775 1094 183 0 59 157 32 85 203 23 28 24 117 178 21 17 36 13 0 0 0 0 0 0 0 0 0 0 0 0 0 0 0 39 260 810 1389 1679 1641 1631 1581
2242 1445 1695 531 176 88 308 170 87 164 44 23 16 31 48 16 8 6 8 18 20 20 1 0 0 0 0 0 0 0 0 0 0 0 0 0 0 0 115 652 1381 1468 1584
1574 1646 1629 687 192 90 301 214 60 71 60 66 62 105 21 18 21 11 8 10 16 13 13 3 2 0 0 0 0 0 0 0 0 0 0 0 0 0 0 0 71 648 1194
741 1316 1793 869 296 432 260 108 57 6 54 42 107 36 38 37 41 37 32 28 32 44 35 24 37 2 0 0 0 0 0 0 0 0 0 0 0 0 0 0 0 0 166
365 565 1715 732 359 284 263 32 0 8 26 33 35 117 39 43 37 47 43 62 49 48 64 106 62 19 8 9 2 0 0 0 0 0 0 0 0 0 0 0 0 0 0
361 1054 1165 699 196 326 82 33 0 10 8 12 12 38 119 34 39 58 77 95 76 36 27 38 43 50 30 43 37 3 0 0 0 0 0 0 0 0 0 0 0 0 0
1473 945 848 365 254 190 61 96 9 7 6 0 0 4 65 33 69 82 92 94 73 41 13 20 8 31 46 45 97 60 60 23 0 0 0 0 0 0 0 0 0 0 0
1627 1121 881 401 302 225 148 188 129 0 1 2 0 62 211 420 193 74 72 53 64 80 82 7 12 24 50 120 100 144 127 86 69 40 1 0 0 0 0 0 0 0 0
1400 1129 751 443 672 218 209 303 189 7 11 0 32 165 324 245 358 429 188 204 167 179 127 204 183 55 349 68 79 225 207 87 97 75 23 0 0 0 0 0 0 0 0
904 468 433 674 713 561 292 345 386 321 116 32 108 245 311 332 401 207 235 102 113 109 141 122 133 131 71 46 181 478 463 445 114 160 51 22 0 0 0 0 0 0 0
401 117 286 332 173 447 640 622 349 427 205 70 220 324 492 506 406 384 294 317 323 212 285 117 166 99 140 205 186 97 95 106 68 115 103 17 5 0 0 0 0 0 0
382 0 93 16 135 490 198 570 374 231 248 302 371 478 622 739 347 320 173 475 331 197 144 133 114 97 50 105 298 107 96 159 363 377 171 26 5 8 7 2 3 4 0
186 51 0 0 6 147 0 0 122 309 385 551 710 892 1004 873 538 188 55 12 51 119 126 86 74 114 287 272 301 183 213 153 194 309 256 9 56 100 38 8 4 0 0
156 98 104 30 79 399 28 0 13 172 389 667 978 987 794 417 341 570 149 8 15 0 0 122 258 229 430 435 370 483 348 236 133 8 149 133 131 67 82 20 0 0 0
262 399 479 304 269 409 267 0 0 420 835 1084 966 770 631 501 537 500 465 256 173 186 212 169 188 135 152 141 60 29 25 54 98 47 473 279 92 33 42 32 1 0 0
562 724 749 643 608 716 0 0 0 585 852 992 703 545 430 662 80 0 64 112 157 145 20 0 0 0 0 0 0 5 5 32 50 43 132 124 53 67 20 2 1 4 0
866 646 755 734 596 1297 0 0 0 670 1016 573 276 437 0 40 0 0 0 52 63 89 74 1 22 16 1 9 1 25 13 35 64 69 61 91 58 11 5 11 20 19 7

GFSMA_con_sbcape_009.txt.gz
CAPE
2690 2086 2459 1524 1979 2025 1933 1765 1796 1509 1349 1610 1110 494 282 64 24 60 360 2145 1694 1625 2126 2004 2039 1933 1957 1620 1915 1778 1651 1109 677 661 964 616 809 970 1147 934 608 599 968
2447 1685 2884 2086 1908 1718 2675 1997 2328 1555 1944 1382 885 284 118 124 147 214 178 1392 2090 1724 1731 2250 2201 1987 1939 1839 1665 1862 1825 1870 1245 985 1057 1519 1667 1313 1095 765 607 569 873
1825 2220 2126 2011 1294 2251 2028 2087 1960 2073 1538 329 82 26 65 77 134 250 210 143 1479 2167 1856 1881 2802 2758 2614 1998 1947 1838 2245 2339 2191 2182 2142 2114 1958 2138 1984 1686 1237 1233 1352
2304 2352 1788 1734 2009 1698 2096 1918 1795 816 168 46 19 26 23 49 163 150 276 210 195 367 2228 2374 1692 2123 2204 1622 1861 2064 2185 1981 2337 2239 2393 2307 2374 2287 2062 2005 1927 1839 1696
2649 2130 1873 1955 1908 2117 1318 1563 1312 1462 45 10 8 4 28 72 59 118 100 294 476 521 349 2193 2262 1668 1542 1673 2006 1904 2004 2153 1922 1963 2105 2400 2350 2218 2138 2162 2191 2075 2081
2371 2155 1799 1788 2122 1698 1437 1353 994 202 78 57 3 0 45 113 54 74 112 30 32 241 659 801 1533 1429 1696 1499 1400 1922 2347 2301 2312 2141 1883 2024 2242 2296 2277 2026 1944 2017 2029
2681 1964 2073 2139 1799 2145 1729 441 167 115 16 82 0 61 48 69 58 45 19 0 0 1 92 519 857 1213 1704 1618 1486 1513 1559 1589 1538 1657 2103 1996 1820 1913 2193 2119 2094 2081 2118
2493 2448 2670 1567 1599 831 495 191 94 15 16 114 35 13 25 207 420 35 3 0 0 0 3 35 410 855 1172 1188 954 257 215 550 1007 1291 1351 1318 1810 1861 1874 1985 1995 2013 2069
2183 2470 2213 2187 1462 503 0 266 134 29 7 61 205 23 21 59 139 119 37 2 0 0 0 0 0 0 0 23 538 3 0 0 2 63 312 649 911 1351 1662 1810 1757 1807 1852
2164 2247 2300 1169 924 55 542 129 27 88 96 20 30 9 32 44 5 29 98 30 0 2 0 0 0 0 0 0 0 0 0 0 0 0 0 0 4 77 333 891 1580 1610 1670
1595 1393 1269 963 348 0 189 320 39 168 205 6 5 15 368 7 6 0 6 31 44 45 22 1 0 0 0 0 0 0 0 0 0 0 0 0 0 0 0 3 185 660 1585
1611 1425 955 1003 358 34 235 247 168 101 68 159 73 110 23 12 25 24 13 21 25 30 48 30 21 18 4 1 0 0 0 0 0 0 0 0 0 0 0 0 0 5 72
949 2587 1791 1420 653 475 356 254 218 196 75 39 86 50 182 37 26 21 23 23 36 57 70 62 149 109 4 0 5 0 0 0 0 0 0 0 0 0 0 0 0 0 0
919 2825 1735 1309 810 342 410 335 51 13 191 46 12 434 11 48 56 31 38 106 109 65 113 614 246 120 48 1 4 0 0 77 0 0 0 0 0 0 0 0 0 0 0
904 880 1505 1203 898 231 401 205 34 337 63 73 118 507 138 17 17 22 47 418 274 82 100 100 75 322 125 72 86 24 8 18 0 0 0 0 0 0 0 0 0 0 0
2445 2066 1888 1389 817 759 878 538 444 377 215 41 4 317 512 33 32 32 124 72 53 38 33 57 65 216 346 69 99 97 57 110 34 3 0 0 0 0 0 0 0 0 0
3271 2343 2432 1923 1007 813 759 941 500 174 413 621 521 173 380 688 103 19 26 41 17 57 20 16 21 134 1119 741 469 442 169 430 117 43 34 0 0 0 0 0 0 0 0
3527 2689 2351 1862 1081 588 202 871 548 365 128 175 209 644 337 199 1205 1485 168 1236 582 316 90 524 250 23 483 721 1063 1097 304 54 110 44 39 3 0 0 0 0 0 0 0
3692 2478 2362 2035 1102 1005 1051 1098 1050 579 324 392 338 753 572 1129 1280 602 1007 474 278 408 290 45 68 86 79 25 180 765 650 278 231 49 14 7 4 0 0 0 0 0 0
3932 2687 2284 1722 1313 1026 1019 939 978 936 1151 962 861 824 913 1013 1145 1285 1029 1444 1008 565 343 182 102 97 160 190 395 122 124 45 67 89 73 15 45 61 2 0 0 0 0
3669 2501 2123 1427 1209 599 389 1089 668 490 933 842 649 566 891 1009 669 733 838 808 1253 465 252 178 161 144 166 165 191 207 244 213 91 161 130 342 320 317 134 28 77 34 0
3065 2265 1224 721 400 143 0 32 486 192 1133 1130 920 1275 1351 708 449 207 227 178 89 478 584 159 177 160 384 355 142 127 315 161 13 215 321 200 101 102 126 311 164 14 0
2492 1810 955 150 151 433 0 10 0 273 738 1117 1487 1178 1086 793 344 437 442 110 44 0 24 352 561 555 511 533 507 550 403 208 69 13 142 48 138 333 506 191 43 1 0
2257 1519 751 516 523 727 21 1 0 294 791 907 1405 1710 1808 1554 1036 1019 814 418 556 949 651 264 446 654 579 275 101 55 160 143 70 166 335 207 269 478 468 548 44 0 0
1978 1047 604 524 944 1111 32 0 1 642 831 1511 1645 1642 1311 1373 682 172 274 192 214 361 215 8 1 0 0 0 0 0 4 12 18 36 79 199 237 223 315 128 90 0 0
1851 1196 818 1076 1133 1316 75 1 28 437 778 1261 1428 1770 259 248 0 0 83 103 229 339 218 199 168 1 19 22 0 18 53 71 53 51 150 189 45 32 45 32 23 9 0

GFSMA_con_sbcape_012.txt.gz
CAPE
2494 891 2632 2794 1974 1009 2174 2634 1990 2510 2370 1572 1266 984 214 242 243 180 1705 2196 2269 1983 2282 2166 2067 2050 2075 1829 1831 1868 1653 1171 854 1101 1417 1495 1593 1463 1327 1411 1370 1142 1061
3257 3031 3016 2333 1871 2012 2781 2332 2649 2522 2640 1874 1602 500 141 297 360 411 444 2011 2557 2357 2771 2340 2504 2314 2031 1721 2021 2051 1886 2020 1759 1347 1410 1629 1472 1646 1806 1808 1522 1159 1067
3352 3331 2849 2857 2332 2192 2382 2123 1628 2491 887 1362 1015 292 309 289 581 227 355 603 1946 2662 2660 3004 2575 2411 2526 1991 1993 2311 2686 2227 2234 2090 1854 1773 2037 1934 2060 1947 1663 1267 1235
3043 3457 2817 1139 2226 1620 2175 1812 1945 1845 499 605 402 535 154 268 230 391 365 147 1032 1336 2382 2616 2584 2383 2260 1929 1969 2266 2103 2248 2613 2449 2321 2199 2349 2435 2322 2093 2008 1846 1741
3353 2662 2769 1675 2534 2693 1926 2040 1749 1723 1119 556 55 199 263 343 305 56 257 274 393 1072 1421 1976 2349 2339 2088 1641 2018 2486 2187 2068 1830 1979 2133 2099 2301 2157 2209 2142 2111 2090 2059
2968 2680 2722 2816 2871 2732 1120 2082 989 757 629 394 83 15 386 406 192 561 87 77 45 380 1294 1195 1663 1621 1964 1583 1604 1764 1969 2403 2181 2064 2018 1964 1985 2140 2207 2183 2095 2008 2128
3232 3021 3013 2431 2316 2053 563 962 1057 598 807 536 367 198 472 374 443 347 0 0 1 19 273 419 1045 1344 1472 1793 1360 1449 1456 1542 1639 2046 2002 2060 2060 2047 1963 1959 2116 2119 2079
3685 2642 2717 2936 2207 2093 1783 1108 625 663 517 912 261 334 121 269 173 9 10 0 0 2 18 200 646 508 1280 1215 526 263 309 582 1027 1340 1482 1455 1540 1919 1892 1720 1755 2016 2084
2827 1899 2737 2535 2539 1312 1300 1307 966 671 339 960 370 400 348 135 357 225 110 0 0 0 0 60 0 0 0 694 84 0 0 0 1 57 186 362 515 813 1179 1245 1766 1767 1701
3084 3279 3073 2881 2248 1263 1846 1239 847 386 1004 463 597 225 233 103 157 218 282 70 47 0 5 0 11 0 0 7 0 0 0 0 0 0 0 0 0 0 26 315 824 1336 1606
2962 2743 3084 2585 1758 777 1837 927 858 583 824 701 307 677 732 532 246 26 59 85 87 71 68 3 0 0 3 0 0 0 0 0 0 0 0 0 0 0 0 0 0 28 331
2570 2874 2266 2137 1686 911 1487 1082 938 725 496 862 608 785 555 294 71 236 128 55 51 101 94 54 79 44 5 7 0 0 0 0 0 0 0 0 0 0 0 0 0 0 0
2161 2603 2285 1879 1500 1250 1769 1304 1429 1062 728 554 1010 493 233 165 282 260 73 77 57 107 109 118 171 181 59 14 0 0 0 0 0 0 0 0 0 0 0 0 0 0 0
1701 1972 1854 1707 1843 1138 1161 1308 1068 450 748 636 234 622 509 413 317 88 169 205 44 56 57 282 158 121 247 97 79 21 0 7 0 0 0 0 0 0 0 0 0 0 0
2829 1762 1720 2108 1474 1266 1279 1496 440 486 820 1036 924 670 457 174 218 277 422 199 172 58 57 62 116 204 86 40 56 22 42 8 194 0 0 0 0 0 0 0 0 0 0
2328 2327 2116 1883 1536 1180 864 1108 395 910 572 635 501 686 598 360 417 387 128 140 228 125 83 139 76 144 219 204 158 69 105 111 42 1 0 0 0 0 0 0 0 0 0
2495 2463 2168 1822 1597 1127 1119 914 601 388 569 541 477 604 507 820 487 336 669 420 178 160 166 31 78 88 105 136 151 159 382 177 84 57 41 23 2 0 0 0 0 0 0
3017 2365 2265 2000 1646 752 1123 609 371 213 728 655 627 628 477 370 1010 934 915 629 677 827 319 237 239 160 429 603 692 152 355 58 58 43 51 23 11 5 4 0 0 0 0
3099 2320 2370 2038 1742 772 983 651 478 570 603 241 444 564 404 742 1215 979 924 770 560 574 620 190 109 123 112 36 36 48 29 214 354 100 24 12 6 4 2 0 0 0 0
3278 3063 2362 2099 1875 928 757 552 737 820 723 437 831 736 676 651 1145 1156 927 1179 1055 942 397 48 113 177 326 179 271 95 33 143 69 23 34 9 3 8 4 0 0 0 0
3870 3494 2930 2296 2041 1031 710 890 897 846 897 649 1245 806 839 1181 886 1058 1214 1011 1149 730 201 25 7 32 53 39 80 51 43 50 39 49 37 3 0 0 0 0 5 7 0
4220 3741 3141 2232 1909 1016 262 393 732 832 995 686 1001 1194 932 716 453 396 51 127 624 596 134 74 41 20 82 152 171 89 40 8 0 0 60 0 0 0 0 0 0 0 0
4194 3698 3328 2199 1530 1037 0 0 218 695 410 644 1384 1191 1067 544 964 1197 185 127 135 77 65 44 37 71 155 241 151 76 61 50 0 0 0 0 0 2 6 19 48 24 7
3985 3478 2685 1460 903 542 125 23 2 82 201 702 980 1305 1078 837 1165 1157 1065 1007 475 265 212 73 30 73 216 273 184 47 1 0 0 0 1 6 10 8 1 5 50 7 0
2932 2400 1604 674 495 730 36 6 0 55 90 597 932 844 1033 1278 1147 504 648 722 311 604 487 146 99 156 43 0 0 3 0 0 0 0 27 4 5 25 21 2 0 0 0
2225 1913 994 723 587 818 765 61 0 315 304 766 1099 981 482 792 490 193 355 367 370 390 577 537 240 27 9 2 0 1 7 12 15 46 31 80 24 0 0 0 0 0 0

GFSMA_con_sbcape_015.txt.gz
CAPE
525 350 451 681 366 23 619 881 818 1141 1073 903 670 357 1 1 1 878 1060 2526 2327 2546 2775 2276 2079 2052 1873 1650 1754 1624 1417 968 900 1338 1247 1163 1238 1374 1415 1112 1202 1247 1247
1446 964 1322 1022 1147 767 1311 1498 913 871 1210 793 1042 805 7 26 15 105 1065 1405 2050 2123 2326 2656 2312 2118 2153 1810 1951 1906 1940 1639 1184 888 1462 1887 1605 1603 1680 1265 1239 1040 1195
1582 1479 1230 1343 919 1459 1531 593 1015 765 286 342 167 100 4 10 7 0 28 1054 1413 1916 2771 2573 2398 2346 2531 2013 1853 2127 2484 2385 2067 1804 1593 1547 1731 1737 1940 1794 1833 1633 1389
1555 1730 1527 664 870 648 1157 1057 1138 760 483 121 0 1 0 11 17 13 36 718 1097 1158 1711 2082 2185 2136 2057 1741 2021 2109 2223 2550 2426 2363 2226 2090 1985 2188 2196 2248 2007 1825 1691
1718 1237 1638 1114 715 1112 787 615 309 447 23 0 0 0 1 3 30 38 42 19 102 740 1165 1631 1860 1827 1499 1397 1716 1927 2060 2393 2335 2444 2362 2272 2217 2170 2007 2094 2128 2113 2078
1932 1449 1068 1116 1265 1076 653 313 347 58 0 0 0 0 0 0 0 20 15 0 16 1069 873 743 860 1029 1583 1492 1403 1822 1931 2168 2224 2090 2016 1763 2068 2227 2320 2166 2064 1974 1729
1503 1496 1529 1289 1652 1033 279 479 113 0 0 0 0 6 7 31 5 0 0 0 0 1 326 518 798 919 992 1652 1565 1488 1622 1357 1379 1717 1613 1520 1546 1383 1575 1940 1935 2117 2090
1774 1284 1272 1276 1405 823 210 0 0 0 0 18 0 0 20 23 33 0 0 0 0 0 22 0 15 536 598 175 82 263 321 410 689 1122 1418 1381 1403 1414 1504 1444 1215 1193 1779
1826 1175 1479 1299 703 160 37 0 0 0 0 29 0 0 1 4 31 16 7 0 0 0 0 0 0 0 288 1 0 0 0 0 0 0 7 42 67 175 425 888 1163 1309 1271
1672 1245 1311 1362 577 188 102 6 5 0 38 0 0 0 0 0 6 28 37 0 5 0 0 0 0 0 72 0 0 0 0 0 0 0 0 0 0 0 0 1 110 322 565
1743 1714 1537 1194 129 4 189 87 15 10 45 56 8 15 3 0 2 0 10 31 42 15 6 0 1 0 0 0 0 0 0 0 0 0 0 0 0 0 0 0 0 0 0
1534 1934 1485 300 47 8 90 51 61 72 50 22 0 1 0 0 0 0 0 0 2 17 13 32 2 0 0 0 0 0 0 0 0 0 0 0 0 0 0 0 0 0 0
1441 1576 946 287 56 27 184 108 110 66 57 19 48 0 4 0 0 0 0 0 0 5 27 32 24 2 0 0 0 3 0 0 0 0 0 0 0 0 0 0 0 0 0
1286 1120 790 286 122 26 514 264 194 68 79 19 15 0 0 0 0 0 0 0 0 0 0 3 60 24 10 0 0 88 0 0 0 0 0 0 0 0 0 0 0 0 0
1009 1094 871 443 196 100 69 312 214 28 114 54 0 0 0 0 0 0 0 0 0 0 0 0 3 23 8 0 6 10 0 2 9 0 0 0 0 0 0 0 0 0 0
1410 921 1089 617 709 187 162 402 57 154 26 108 59 30 0 1 1 0 0 0 0 0 0 0 0 0 6 23 38 23 0 51 23 4 0 0 0 0 7 10 0 0 0
1086 939 1015 1053 598 342 358 385 43 35 148 2 16 0 77 2 8 0 26 0 0 0 0 0 0 0 18 0 0 7 2 8 2 13 0 0 0 0 0 4 11 2 0
1399 1360 1058 1088 754 455 252 340 69 49 22 125 8 0 0 10 14 7 101 57 116 51 0 0 0 0 0 3 23 28 11 24 22 0 0 0 0 0 4 3 0 0 0
1753 1425 1456 1066 912 686 370 377 122 5 106 29 91 20 15 1 1 82 84 107 69 72 85 32 1 2 7 1 0 0 0 0 16 53 40 34 7 0 0 0 0 0 0
2378 1254 1243 1195 951 711 326 351 140 39 97 129 65 134 75 5 13 296 211 193 151 175 89 25 10 1 8 21 17 21 0 0 0 0 5 10 0 0 0 0 0 0 0
2502 2074 1344 1305 1115 622 319 284 264 195 228 256 104 229 96 111 126 187 220 130 318 257 156 52 4 0 0 0 9 0 0 0 0 0 0 0 0 0 0 0 0 3 0
2813 2187 2011 1531 1276 1117 532 375 305 356 424 344 205 505 184 313 436 496 470 413 350 297 148 2 0 0 0 0 5 3 0 0 0 0 0 0 0 0 0 0 0 0 0
3124 3056 2616 1971 1376 1320 411 147 338 358 335 341 379 509 559 293 205 184 131 145 73 111 103 13 6 0 0 0 15 0 0 0 0 0 0 0 0 0 0 0 0 0 0
3291 3294 2912 2064 1514 687 104 24 4 146 221 184 379 518 429 257 174 593 390 128 44 58 53 3 0 0 0 0 42 38 0 0 0 0 0 0 0 0 0 0 0 0 0
3351 2975 2064 1139 549 328 88 1 0 0 7 6 142 341 366 330 338 154 319 315 344 221 136 288 110 49 5 0 64 0 0 0 0 0 0 0 0 0 0 0 0 0 0
2270 1874 954 536 302 206 40 15 0 3 0 0 0 229 330 328 61 16 180 155 119 99 72 4 0 0 0 0 0 0 5 0 0 0 0 0 0 0 0 0 0 0 0

GFSMA_con_sbcape_018.txt.gz
CAPE
286 173 345 637 620 91 161 607 769 975 848 787 968 401 9 72 651 545 392 1591 1740 2455 2385 2163 2017 1707 1569 1933 1614 1682 1407 813 703 971 1184 1156 1101 911 776 816 806 792 869
280 158 229 674 459 232 8 800 772 458 527 221 278 454 336 8 264 467 550 1178 1955 2342 2736 2407 2145 2070 1997 1788 1813 1777 1692 1284 937 1141 1444 1717 1719 1366 796 1082 1144 1209 1087
638 658 891 653 688 798 908 359 721 428 41 23 0 3 4 7 14 188 641 637 1198 2218 2370 2732 2655 2385 2035 2002 1886 2058 2140 2224 1772 1378 1520 1705 1644 1422 1597 1658 1288 1395 1497
1197 800 1134 502 688 457 823 600 734 417 21 0 0 0 0 15 19 3 29 203 862 978 1725 2065 2131 2198 1918 1684 1779 1939 1775 1962 2047 1921 1776 1664 1239 1567 1694 1993 1777 1962 1910
1207 1018 922 793 315 796 493 536 160 168 1 0 0 0 0 3 22 33 21 393 514 775 805 1426 1692 2005 1476 1042 1283 1702 1940 1985 2095 1892 1836 1856 2086 1875 1959 2011 2010 1948 1885
1247 572 862 873 489 623 459 134 82 0 0 0 0 0 0 0 5 10 0 4 556 767 649 623 906 859 1608 1716 1532 1571 1686 1861 1726 1542 1782 1418 1799 1804 1813 2092 2001 1881 1803
1431 862 669 901 834 642 169 56 0 0 0 0 0 0 5 3 0 0 0 8 12 135 434 392 794 1004 1166 1146 1081 1443 1720 1436 1362 1363 1667 1606 1495 1385 1363 1311 1291 1674 1954
1141 943 882 763 842 99 0 0 0 0 0 0 0 0 0 13 1 0 0 6 4 23 59 165 320 456 229 43 184 635 670 727 897 966 968 1004 1038 1077 1016 1151 1334 1379 1451
1139 1166 799 763 664 250 31 0 0 0 0 0 0 0 0 0 14 1 0 0 0 0 1 0 101 200 40 0 18 0 0 16 10 7 0 0 9 46 131 330 488 584 984
1217 909 823 687 0 49 0 0 0 0 0 0 0 0 0 0 0 0 0 0 0 0 0 0 0 30 34 0 0 0 0 0 0 0 0 0 0 0 0 0 5 77 230
1233 920 805 689 12 0 0 0 0 0 3 0 0 0 0 0 0 0 0 0 0 0 0 0 0 0 42 0 0 0 0 0 0 0 0 0 0 0 0 0 0 0 0
1226 1016 992 558 0 0 14 0 0 0 5 16 0 0 0 0 0 0 0 0 0 0 0 0 0 0 0 0 0 0 11 0 0 0 0 0 0 0 0 0 0 0 0
1036 1147 856 185 0 0 0 0 0 0 0 0 0 0 0 0 0 0 0 0 0 0 0 0 0 0 0 0 0 5 54 0 0 0 0 0 0 0 0 0 0 0 0
1223 1065 687 150 0 0 0 0 0 0 0 0 0 0 0 0 0 0 0 0 0 0 0 0 0 0 0 0 0 220 0 0 0 0 0 0 0 0 0 0 0 0 0
1048 913 684 140 12 0 83 66 21 0 21 0 0 0 0 0 0 0 0 0 0 0 0 0 0 0 0 0 1 0 0 0 15 1 0 0 0 7 22 34 27 18 5
1020 815 553 153 53 4 49 67 55 1 0 4 0 0 0 0 0 0 0 0 0 0 0 0 0 0 0 0 0 15 0 0 0 4 3 0 0 9 26 43 34 19 8
702 791 567 251 115 51 0 130 6 5 0 0 9 0 0 0 0 0 0 0 0 0 0 0 0 0 0 0 0 0 0 0 0 0 1 13 9 0 0 13 19 25 19
653 767 663 408 277 164 69 41 31 21 20 0 0 0 0 0 0 0 0 1 0 0 0 0 0 0 0 0 0 1 6 1 0 0 0 1 12 0 0 0 0 0 0
942 707 649 739 393 328 174 123 63 11 0 5 0 0 0 0 0 6 4 5 27 11 17 11 11 0 0 0 0 0 0 0 0 4 0 0 0 0 0 0 0 0 0
1119 948 751 771 737 391 203 202 147 8 0 1 0 0 0 0 5 0 12 7 26 53 36 36 18 5 0 0 0 10 0 0 0 0 0 0 0 0 0 0 0 0 0
1768 1087 1000 898 695 625 412 231 185 72 11 3 0 0 0 10 11 6 7 19 44 81 72 59 10 0 0 0 0 0 0 0 0 0 0 0 0 0 0 0 0 0 0
2077 1395 1012 1000 796 749 587 237 276 174 91 32 16 0 12 105 105 10 5 30 50 101 42 16 19 5 0 0 0 0 0 0 0 0 0 0 0 0 0 0 0 0 0
2034 1843 1183 1068 997 986 678 119 146 168 146 139 10 14 82 293 133 112 80 80 16 37 213 80 101 1 0 0 0 0 0 0 0 0 0 0 0 0 0 0 0 0 0
2354 2342 1918 1421 1324 1152 715 5 108 272 241 233 194 120 195 298 103 54 29 5 10 19 49 8 0 7 0 0 0 0 0 0 0 0 0 0 0 0 0 0 0 0 0
2897 2755 2740 2071 1606 1395 390 0 66 144 174 185 101 224 303 164 32 4 38 78 81 165 155 63 25 12 0 0 0 0 0 0 0 0 0 0 0 0 0 0 0 0 0
2987 2980 2411 1821 1619 294 0 3 2 0 17 15 0 0 72 170 75 0 37 34 62 45 10 1 0 0 0 0 0 0 0 0 0 0 0 0 0 0 0 0 0 0 0

GFSMA_con_sbcape_021.txt.gz
CAPE
295 279 135 148 343 124 38 182 374 694 765 654 396 108 3 235 317 225 206 1202 1907 2209 1746 1639 1976 1569 1551 1627 1633 1331 1653 1402 955 1205 710 1247 995 594 486 657 710 744 662
186 103 131 253 379 277 1 136 688 424 434 75 105 93 134 0 223 351 251 479 1955 2216 2484 1600 1808 1804 1581 1904 1668 1665 1483 1250 768 879 1307 1511 1576 1195 768 799 1083 1218 1175
203 150 74 511 563 439 424 542 206 231 7 0 0 0 0 0 153 337 293 356 832 1842 2497 2501 2185 1937 1591 1583 1863 1883 1801 1827 1503 1254 1585 1555 1544 1416 1370 1160 1274 1227 1258
434 322 477 553 229 566 519 269 425 240 0 0 0 0 0 5 6 31 164 374 494 662 1130 2112 2255 2169 1614 1298 1253 1761 2190 1863 1780 2061 1848 1406 1379 1594 1632 1790 1515 1613 1471
763 583 742 286 252 323 386 381 104 57 0 0 0 0 0 0 9 7 10 305 424 687 527 1455 1381 1994 1420 1154 1180 1863 1536 1903 1892 1991 1852 1871 1767 1748 1826 1875 2015 1974 1916
1027 756 629 620 198 531 319 94 19 0 0 0 0 0 0 0 6 3 0 126 195 554 487 431 815 934 1502 1219 1501 1444 1543 1841 1571 1800 1794 2076 1899 1865 1827 1841 1852 1856 1823
1025 553 424 645 368 437 232 0 0 0 0 0 0 0 0 0 0 0 1 133 163 277 243 257 436 838 1112 1347 1377 1362 1334 1236 1343 1489 1267 964 1316 1615 1633 1591 1242 1664 1721
1088 670 414 664 612 469 56 0 0 0 0 0 0 0 0 0 0 0 0 22 63 103 164 316 414 491 365 248 626 1039 1191 1299 1314 1216 967 863 958 1088 1053 1036 1140 1383 1415
865 917 516 570 561 110 0 0 0 0 0 0 0 0 0 0 0 0 0 2 4 8 2 29 147 95 0 0 57 49 167 313 273 159 60 21 20 30 88 140 261 332 510
767 786 677 546 383 283 6 0 0 0 0 0 0 0 0 0 0 0 0 0 0 0 0 0 10 92 36 0 0 0 0 0 0 0 0 0 0 0 0 0 0 0 11
753 765 614 469 24 34 9 0 0 0 0 0 0 0 0 0 0 0 0 0 0 0 0 0 0 0 82 6 0 0 2 0 0 0 0 0 0 0 0 0 0 0 0
862 771 609 465 41 0 0 0 0 0 0 0 0 0 0 0 0 0 0 0 0 0 0 0 0 0 4 31 9 0 66 28 0 0 0 0 0 0 0 0 0 0 0
1043 890 714 503 25 0 0 0 0 0 0 0 0 0 0 0 0 0 0 0 0 0 0 0 0 0 0 0 1 96 95 50 0 0 0 0 0 0 0 0 0 0 0
1114 1087 817 616 60 0 0 0 0 0 0 0 0 0 0 0 0 0 0 0 0 0 0 0 0 0 0 0 0 7 0 60 8 0 0 0 18 30 46 54 39 31 11
1012 851 905 608 59 0 0 0 0 0 0 0 0 0 0 0 0 0 0 0 0 0 0 0 0 0 0 0 0 0 0 0 6 0 0 0 4 26 58 71 92 88 92
907 679 876 479 97 0 0 0 0 0 0 0 0 0 0 0 0 0 0 0 0 0 0 0 0 0 0 0 0 0 0 0 0 0 0 0 0 7 30 50 63 62 61
737 718 747 485 129 11 0 0 3 0 0 0 0 0 0 0 0 0 0 0 0 0 0 0 0 0 0 0 0 0 0 0 0 0 0 0 0 0 0 10 27 32 31
709 751 620 411 188 54 0 40 20 15 0 0 0 0 0 0 0 0 0 0 0 0 0 0 0 0 0 0 0 0 0 0 0 0 0 0 0 0 0 0 0 0 0
768 698 636 559 261 96 28 0 15 6 0 0 0 0 0 0 0 0 0 0 1 0 0 0 0 0 0 0 0 0 0 0 0 0 0 0 0 0 0 0 0 0 0
860 727 687 646 456 269 129 61 4 0 0 0 0 0 0 0 0 0 0 3 0 2 0 0 0 0 0 0 0 0 0 0 0 0 0 0 0 0 0 0 0 0 0
1301 780 615 622 588 390 318 143 69 25 21 11 0 0 0 0 0 0 0 0 0 1 1 0 0 0 4 4 0 0 0 0 0 0 0 0 0 0 0 0 0 0 0
1383 974 777 653 611 695 461 216 210 163 92 35 5 9 0 0 0 0 0 2 0 3 0 0 0 2 0 0 0 0 0 0 0 0 0 0 0 0 0 0 0 0 0
1521 1104 1066 939 713 729 574 212 116 238 94 24 63 63 1 0 0 2 4 1 0 0 0 0 0 0 0 4 0 0 0 0 0 0 0 0 0 0 0 0 0 0 0
1727 1659 1217 1016 1087 1028 498 69 97 328 171 118 107 40 2 0 32 23 16 3 0 0 0 0 0 18 5 0 0 0 0 0 0 0 0 0 0 0 0 0 0 0 0
1787 1856 1572 1341 1336 1354 704 116 1 354 254 235 193 145 22 0 55 21 24 4 0 0 11 0 35 25 1 0 0 0 0 0 0 0 0 0 0 0 0 0 0 0 0
2394 1990 1994 1877 1613 1508 554 20 62 341 255 284 154 88 114 92 39 0 15 0 0 12 1 0 0 0 0 0 0 0 0 0 0 0 0 0 0 0 0 0 0 0 0

GFSMA_con_sbcape_024.txt.gz
CAPE
237 405 339 154 426 376 180 280 640 860 1067 684 434 23 39 169 223 163 392 841 1535 1739 1547 1328 1957 1605 1332 1467 1609 1254 1307 1178 1107 1223 864 1130 1031 844 641 525 656 900 624
256 236 172 239 408 410 203 316 842 656 532 19 75 238 250 11 214 404 433 277 1579 1774 1851 1580 1363 1786 1501 1530 1535 1627 1426 1615 1266 1067 1106 1497 1241 1037 805 673 909 1029 1065
346 207 129 217 559 561 636 539 458 544 19 0 0 2 0 14 42 537 534 400 758 1140 1843 1523 1622 1240 1412 1597 1723 1622 1785 1767 1299 977 1464 1496 1493 1453 1426 1141 859 1189 1283
438 242 211 554 552 680 696 391 578 511 20 2 6 0 1 20 26 379 390 545 630 793 1034 1533 1774 1989 1266 1168 1293 1844 1871 1868 1726 2071 1958 1544 1309 1494 1359 1642 1421 1627 1316
690 285 430 643 265 459 415 511 196 116 0 0 4 0 3 4 20 18 30 218 342 922 708 990 1358 1679 1153 994 1232 1228 1336 1738 2060 2150 2139 1975 2004 1899 1896 2057 1947 1898 1919
835 592 597 548 256 450 281 149 80 0 0 0 0 0 0 0 8 10 5 204 497 840 728 788 1230 1225 1239 1242 1254 1152 1145 1268 1757 1919 2013 1865 2123 1916 1835 1654 1789 1829 1721
872 789 535 565 240 526 425 90 0 0 0 0 0 0 0 0 0 0 24 375 667 676 483 510 718 943 1257 979 948 985 1225 1207 1222 1257 1571 1474 1418 1270 1218 1293 1098 1131 1199
823 718 430 528 414 497 160 52 0 0 0 0 0 0 0 0 0 0 4 33 161 334 395 527 859 915 757 829 951 1003 1254 1387 1301 1171 1102 973 991 965 929 849 679 694 1005
895 844 398 516 520 419 219 37 0 0 0 0 0 0 0 0 0 0 0 0 17 36 32 178 455 384 121 22 66 95 190 377 350 187 80 48 35 52 66 70 119 157 241
810 879 714 504 511 316 67 12 0 0 0 0 0 0 0 0 0 0 0 0 0 0 0 0 129 356 141 25 0 0 0 0 0 0 0 0 0 0 0 0 0 0 14
521 804 771 585 471 281 146 5 0 0 0 0 0 0 0 0 0 0 0 0 0 0 0 0 0 32 309 70 21 0 1 0 0 0 0 0 0 0 0 0 0 0 0
555 665 674 615 294 55 94 11 0 0 0 0 0 0 0 0 0 0 0 0 0 0 0 0 0 0 7 231 64 18 32 56 14 3 0 0 0 0 0 0 0 0 0
760 705 642 529 230 14 4 0 0 0 0 0 0 0 0 0 0 0 0 0 0 0 0 0 0 0 0 12 182 299 130 79 42 0 0 0 5 13 0 0 0 4 0
922 956 731 684 357 50 11 0 0 0 0 0 0 0 0 0 0 0 0 0 0 0 0 0 0 0 0 0 0 64 234 38 54 4 0 0 11 20 61 94 79 80 51
910 925 888 821 432 54 27 0 0 0 0 0 0 0 0 0 0 0 0 0 0 0 0 0 0 0 0 0 0 6 106 25 3 20 1 0 0 15 46 66 74 69 99
815 936 980 914 433 76 14 0 0 0 0 0 0 0 0 0 0 0 0 0 0 0 0 0 0 0 0 0 0 43 14 2 7 2 5 4 9 18 23 40 58 68 70
630 856 1024 903 547 139 52 5 5 0 0 0 0 0 0 0 0 0 0 0 0 0 0 0 0 0 0 6 0 0 0 2 2 0 0 0 0 0 3 0 0 0 10
598 773 886 906 670 210 110 77 40 31 0 0 0 0 0 0 0 0 0 0 0 0 0 9 0 0 0 0 1 15 3 0 1 0 0 0 0 0 0 0 0 0 0
751 801 833 867 658 369 126 135 124 81 60 31 1 0 0 0 0 0 0 0 0 0 0 0 6 0 0 0 4 0 0 0 0 0 0 0 0 0 0 0 0 0 0
840 926 920 915 708 514 280 152 148 148 124 122 50 0 3 0 0 0 0 0 0 11 5 2 0 1 0 1 0 12 25 1 0 1 1 0 0 0 0 0 0 0 0
1019 906 932 936 826 634 469 328 200 162 160 148 87 35 4 0 1 0 0 0 0 1 11 9 5 2 2 1 12 1 0 0 0 0 3 0 0 0 0 0 0 0 0
1275 1039 931 978 906 848 599 225 275 264 193 159 75 66 95 0 0 0 0 0 0 0 9 10 0 17 11 23 5 0 0 0 5 0 0 12 0 0 0 0 0 0 0
1345 1155 1101 1005 1004 1055 509 196 155 457 407 300 188 92 42 77 3 34 0 0 0 0 2 26 25 0 9 83 5 0 0 0 8 6 0 0 0 0 0 0 0 0 0
1296 1329 1200 1048 1058 984 503 114 100 580 539 385 283 181 212 244 101 14 11 4 0 0 3 3 61 8 2 21 0 0 1 1 1 10 0 4 0 0 0 0 0 0 0
1546 1516 1412 1214 1169 1205 345 30 49 544 500 425 325 249 244 223 38 0 57 68 5 1 1 2 1 0 0 0 3 2 0 0 7 0 0 0 0 0 0 0 0 0 0
1841 1730 1604 1368 1230 1436 65 22 57 662 661 514 420 340 72 176 6 0 178 296 192 3 3 1 0 0 0 0 0 0 0 0 0 0 0 0 0 0 0 0 0 0 0

GFSMA_con_sbcape_027.txt.gz
CAPE
1313 1566 1932 1497 1340 1493 1170 1373 2075 1655 1783 1192 864 648 403 638 733 788 755 896 1312 1486 1140 1402 1519 1715 1284 1406 1441 847 1264 916 1028 996 1138 1078 1151 1123 1041 575 617 927 793
1546 1528 1734 1514 1406 1680 1586 1408 1946 1701 514 282 388 1041 927 424 763 992 866 665 976 1385 1364 1215 1332 1635 1332 1489 1481 1529 1342 1443 1351 1129 1361 937 1185 1083 819 628 752 979 1046
1754 1943 1658 1371 1526 1909 1972 1521 1551 1610 507 16 25 216 225 264 308 899 987 739 716 970 1300 1243 1180 1197 1639 1482 1601 1696 1484 1806 1762 1231 1179 1136 1329 1345 1290 1254 957 874 1205
1711 1935 1860 1517 1647 1772 2047 1662 2009 1752 1076 22 45 66 133 237 344 762 842 928 935 582 817 1241 1193 1052 1103 1174 1486 1680 1622 1330 1727 1696 1795 1443 1365 1640 1603 1502 1456 1397 1342
1645 1820 1835 1832 2008 1716 1718 1566 1448 1218 398 53 173 64 163 217 120 166 355 750 977 965 724 708 972 1239 1036 1052 1059 1137 1220 1660 1972 1797 1848 1807 1816 1866 1987 2052 1905 1935 1857
1717 1967 1782 2069 1890 1520 1588 1436 1522 557 96 141 7 50 37 284 308 311 368 593 1195 1276 1040 1114 1046 884 884 949 1114 963 1071 1127 1323 1440 1562 1950 2019 1745 2005 1780 1741 1900 1853
1861 2150 1877 2135 1875 1654 1736 1685 1038 612 54 33 0 68 34 59 47 101 697 500 1068 1026 966 1141 1046 1005 1041 901 997 1010 1300 1316 1224 1050 1169 1363 1487 1320 1191 1203 1178 897 1046
2013 2117 2140 2056 1910 1582 1815 1611 997 240 32 55 24 53 13 44 17 8 500 395 752 310 157 212 1234 1480 1081 840 767 718 1125 1311 1288 1197 965 776 775 838 775 566 418 440 449
2121 2221 2222 2043 2031 1900 1716 1724 937 419 48 161 60 52 16 1 62 0 221 266 450 174 66 195 479 851 901 208 0 3 124 355 77 0 0 0 0 0 0 0 54 99 178
2070 2164 2262 2025 2113 1846 1948 1705 819 414 111 95 40 4 66 232 0 0 0 130 118 85 47 34 153 290 511 26 0 0 0 0 0 0 0 0 0 0 0 0 0 0 0
2038 2042 2238 2176 2213 2044 2015 1560 782 487 158 39 80 1 0 0 0 0 2 0 30 22 22 47 38 114 353 244 66 1 0 0 0 0 0 0 0 0 0 0 0 0 0
1645 1996 2186 2444 2461 2142 2130 1782 1103 752 323 134 174 119 3 0 0 0 1 0 0 0 0 6 25 51 68 246 211 36 10 21 0 0 0 0 0 0 0 0 0 0 0
1418 1952 2154 2257 2151 2176 2004 1688 1290 780 550 282 393 199 169 37 0 0 0 0 0 0 0 2 21 33 36 65 174 276 288 42 41 4 0 0 0 0 0 0 0 0 0
1481 2016 2238 2257 2198 2063 1778 1395 1197 829 416 453 421 216 193 183 69 0 0 0 0 0 0 2 0 23 125 38 32 170 256 71 32 0 0 0 0 0 0 35 70 66 1
1486 1925 2290 2386 2372 2083 1796 1374 938 725 364 422 365 314 152 142 121 16 0 0 0 0 0 10 0 65 80 135 60 80 239 89 0 0 0 0 0 2 14 37 47 64 111
2156 1951 2323 2423 2396 2146 1848 1574 1237 783 535 341 220 322 275 117 94 91 43 11 0 4 0 0 9 21 37 78 32 268 154 0 0 0 0 0 0 0 7 31 49 49 55
2320 2319 2321 2303 2305 2183 1860 1684 1540 1022 712 688 340 360 367 316 94 67 39 18 13 0 0 0 5 67 68 103 36 161 96 232 126 0 0 0 0 0 0 2 2 4 6
2194 2522 2465 2357 2231 2190 2003 1736 1659 1199 949 851 639 434 387 131 217 148 44 131 41 16 0 255 82 91 190 242 416 455 265 49 149 6 0 0 0 0 0 0 0 0 0
2253 2047 2418 2577 2267 2091 2076 1825 1814 1641 1154 1076 829 602 512 393 214 40 72 15 13 112 119 53 71 91 123 140 293 469 486 242 172 10 0 0 0 0 0 0 0 0 0
2267 2364 2514 2665 2430 2082 2043 1831 1792 1822 1538 1269 1032 773 636 557 414 319 175 223 168 146 169 146 105 96 160 269 277 263 224 101 44 32 33 1 0 0 0 0 0 0 0
2269 2396 2489 2587 2460 2049 1777 1922 1827 1838 1725 1523 1324 1016 780 647 247 222 147 440 619 359 153 189 201 196 128 110 34 204 101 67 84 101 163 270 271 166 136 0 0 0 0
2354 2488 2532 2589 2592 2054 1416 1000 1566 1905 1787 1989 1824 1427 1064 309 78 0 0 97 602 693 695 293 296 350 502 54 269 122 94 153 95 65 244 332 432 542 469 421 14 0 0
2417 2484 2466 2545 2610 2617 820 277 383 2062 1881 2138 2043 1877 1378 772 165 330 32 0 0 0 86 765 693 738 546 200 172 309 238 206 287 525 440 475 539 547 225 80 0 0 0
2560 2567 2531 2539 2594 2555 440 72 124 1862 2260 2243 2076 1907 1655 1284 814 652 826 407 267 108 36 92 645 863 464 391 198 352 455 548 519 459 547 329 58 68 51 0 0 0 0
2711 2733 2683 2713 2641 2711 261 17 52 1571 2205 2247 2136 1875 1554 1417 766 152 780 769 467 510 97 1 27 4 1 3 41 358 331 204 148 88 56 0 3 4 0 0 0 0 0
2676 2645 2802 2802 2271 2777 222 4 63 1926 2186 1967 2069 1804 586 1071 643 0 736 983 1032 856 663 141 5 0 0 1 0 247 101 0 0 0 8 0 0 0 0 0 0 0 0

GFSMA_con_sbcape_030.txt.gz
CAPE
1716 1769 1883 1484 1628 1514 1355 1290 1026 1199 1241 1237 824 197 100 117 146 157 623 994 1075 1115 974 1260 1635 1332 1567 1519 1408 1259 1025 458 884 1112 1134 1152 1055 1112 962 610 553 787 874
1804 1721 1618 1470 1488 1609 1615 1783 1194 1337 762 448 903 593 54 87 79 117 285 741 1079 1238 957 1145 1330 1636 1508 1420 1349 1329 1172 1323 1208 1101 1181 982 1207 1159 882 650 574 850 939
2171 2527 2149 1604 1486 2021 1470 1549 1123 1024 530 133 418 48 60 128 141 83 273 531 646 951 1127 915 1171 1458 1722 1396 1623 1672 1628 1533 1543 1688 1067 1523 1103 1399 1300 1314 1117 879 985
2051 2457 1741 1349 1828 2063 1387 1489 1079 784 399 125 83 45 40 143 222 168 247 504 298 501 764 775 780 1127 1071 1354 1508 1661 1722 1648 1663 1519 1511 1287 1129 1539 1797 1544 1525 1494 1415
1773 2375 2081 1870 2304 1714 1687 1253 1149 1040 269 164 159 53 31 85 202 52 78 269 444 279 431 722 770 745 837 1031 1020 1025 1319 1571 1817 1669 1618 1639 1880 1864 1542 1853 1775 1706 1646
1718 2383 2010 1625 1604 1532 1446 1373 1094 849 356 166 21 3 47 71 73 65 43 71 446 395 396 717 860 780 828 942 1009 880 924 1062 1197 1235 1281 1461 1782 1897 1965 1575 1628 1728 1708
2271 2720 2203 1964 2158 1633 1536 1387 1247 1089 226 131 3 27 46 51 54 51 54 53 56 57 44 201 381 478 672 972 909 899 1179 1250 1244 1156 1370 1271 1286 1280 1140 960 937 1123 843
2544 2654 2738 2092 2072 1721 1985 1903 1449 627 228 2 22 38 43 38 31 47 46 36 23 24 3 3 706 693 642 1154 517 515 1186 1291 1293 1156 789 553 530 552 457 438 348 490 439
2523 2890 2515 1792 2301 2338 1833 2165 1792 1161 139 21 156 118 18 30 30 18 122 44 34 27 14 26 34 306 248 1 0 4 66 155 0 0 0 0 0 0 0 0 2 25 53
2420 2524 2570 2486 2862 2091 2012 2639 1821 1242 1153 12 54 4 253 546 26 39 12 36 19 27 17 16 30 37 44 23 0 0 0 0 0 0 0 0 0 0 0 0 0 0 0
2425 2170 2592 2836 2852 2643 2336 2610 2033 1887 1062 54 1 0 16 0 58 14 46 34 74 27 43 33 36 51 61 36 39 1 0 0 0 0 0 0 0 0 0 0 0 0 0
2036 2375 2400 2881 2912 2707 2640 2716 2470 1931 1611 515 16 80 0 0 0 5 5 18 36 88 44 19 35 42 55 109 109 33 16 0 0 0 0 0 0 0 0 0 0 0 0
1204 2735 2650 2779 2667 3118 2732 2771 2779 2041 1975 1208 566 92 61 25 0 0 0 1 4 13 16 9 25 28 22 62 108 112 192 6 0 0 0 0 0 0 0 0 13 8 11
1621 1759 2305 2509 2660 2674 2881 2769 2649 2256 1739 1551 876 494 58 104 98 16 0 0 1 0 1 20 4 8 4 6 97 781 150 161 64 22 0 0 0 0 0 31 49 98 100
1737 1832 1992 2521 2496 2683 2794 2892 2525 2378 1488 1526 851 830 307 46 134 65 37 1 0 1 14 60 0 6 1 7 120 278 373 470 179 46 9 0 0 1 1 20 78 129 161
2787 2282 2181 2333 2466 2710 3006 3067 2545 2394 2051 1370 771 540 754 68 108 115 59 14 2 0 0 10 4 4 5 2 78 255 234 116 114 19 0 0 0 0 11 30 34 43 50
3571 3013 3072 2550 2399 2801 3062 3194 3077 2413 2358 1929 1362 729 873 738 94 48 86 84 63 36 0 7 3 136 443 439 53 69 138 152 75 14 2 0 0 0 2 3 2 0 0
3456 3790 3340 3251 2792 2659 2986 3010 3008 2399 2489 2232 1981 1515 889 588 783 359 132 998 368 203 0 234 107 195 603 534 524 678 298 56 58 18 10 0 0 0 0 0 0 0 0
3844 2722 3498 3946 3357 3026 3288 3016 2919 2978 2625 2557 2289 2047 1490 765 852 485 389 235 116 146 275 36 32 235 149 354 569 738 626 617 235 21 0 0 0 0 0 0 0 0 0
3900 3854 3700 4175 3794 3190 2984 2699 2720 2940 2997 2637 2590 2331 1922 1416 1005 931 545 523 319 164 290 155 72 26 246 416 254 108 536 596 297 136 18 1 0 0 0 0 0 0 0
3798 3987 3954 4050 4097 3123 2551 3566 3408 3076 3428 2937 2739 2589 2282 1720 888 936 865 981 1382 597 60 175 227 165 200 248 489 288 199 309 353 487 310 205 167 218 273 0 30 56 0
3910 3974 3903 4053 4080 3067 1949 1501 2615 3219 3733 3771 3240 2791 2536 1265 771 299 308 333 886 1274 1318 223 268 495 987 576 571 358 210 198 141 343 428 465 428 478 487 447 34 0 0
3973 4032 3987 4011 4151 4043 1635 721 1197 2947 3607 3635 3449 3220 2739 2310 1375 1471 149 31 34 295 368 1086 1035 1221 854 1289 1116 779 738 512 511 384 835 618 345 417 343 163 0 0 0
3974 4092 4037 4095 4145 4075 2071 270 474 2767 3683 3765 3584 3556 3885 3506 2435 1812 1709 736 489 485 434 311 816 952 1525 943 1061 775 841 677 638 533 908 438 186 29 89 30 1 0 0
3665 3693 3554 4120 4375 4226 1590 64 332 2572 2936 3985 3671 3512 3594 3550 2621 883 1878 1923 1683 1187 286 78 43 62 75 63 163 482 406 711 599 249 412 34 6 13 7 0 1 0 0
3556 3107 3511 3910 3417 4265 2082 1 230 2261 2849 2715 3804 3971 1993 2884 2233 220 1470 1815 2004 1783 1295 419 79 36 7 24 0 194 286 257 105 5 29 0 0 0 2 0 0 0 0

GFSMA_con_sbcape_033.txt.gz
CAPE
2001 1822 1624 1754 1614 1741 2019 1795 1352 1444 1093 878 902 979 100 3 44 420 257 895 946 919 1277 1465 1445 1390 1458 1488 1337 1286 707 459 1031 1252 1241 1186 1026 1021 922 621 488 636 967
1630 1950 1654 1926 1919 2043 1308 1287 1359 1260 1128 750 380 433 68 65 18 321 346 688 1406 1109 1028 1138 1609 1628 1408 1527 1576 1229 1230 1214 929 975 1096 1114 1192 1099 909 746 505 675 940
2074 2187 1665 1528 2105 2532 1609 1640 1362 1611 577 251 168 16 46 89 30 37 644 370 668 1551 1035 1082 1244 1631 1772 1460 1552 1538 1512 1474 1523 1561 1501 1273 1190 1290 1312 1227 1313 1020 837
2186 2445 1784 1436 2049 1846 951 2006 740 380 735 29 44 46 178 28 78 2 143 618 616 290 1207 1191 1092 1284 1402 1435 1676 1646 1700 1616 1711 1794 1740 1582 1182 1285 1743 1631 1264 1317 1487
1848 2493 1158 1141 2288 1963 1404 653 1077 756 46 48 39 53 58 22 257 34 15 45 368 491 357 1410 1400 1059 1029 1090 1137 1186 1542 1519 1755 1772 1561 1750 1687 1786 1939 1798 1678 1780 1662
1804 2390 2334 2091 1592 1901 1831 1370 1262 272 389 18 28 8 51 57 58 68 23 284 49 41 451 947 618 820 1282 1207 1113 899 957 1092 1235 1382 1377 1400 1321 1833 1937 1930 1884 1920 1785
2003 2487 2324 2759 1864 2488 1684 1351 1306 914 688 25 11 27 42 26 32 41 54 54 47 62 19 134 986 598 604 1328 1024 956 1160 1216 1292 1323 1450 1384 1362 1254 1191 1095 1113 1288 1391
2150 2557 2953 2358 2226 1648 1886 1936 1420 1253 37 0 182 39 38 30 37 45 34 22 31 20 7 12 82 1067 920 640 539 789 1312 1441 1437 1096 665 555 642 653 555 404 387 623 480
2232 3457 2545 2250 2464 2560 3146 2250 1603 1042 265 0 413 273 191 99 18 1 17 36 5 15 4 4 31 83 339 1 21 67 240 148 2 0 0 0 0 0 0 0 0 0 0
2280 2473 2477 2032 2848 2162 2768 2244 1784 1605 1262 60 0 21 602 652 452 124 45 24 20 14 4 38 31 23 38 22 2 32 36 30 4 0 0 0 0 0 0 0 0 0 0
2594 2041 3206 2890 3157 2774 3384 2420 2358 2162 1094 529 0 0 0 0 0 118 181 263 20 21 52 26 64 116 80 50 1 0 12 0 0 0 0 0 0 0 0 0 0 0 0
2328 3464 2722 3743 3848 3516 2553 2756 2856 2406 2096 898 194 49 23 41 65 44 17 442 272 307 26 32 27 32 77 85 58 13 16 0 0 0 0 0 0 0 0 0 0 0 0
1012 2948 3754 3646 2877 3868 3103 3534 3892 2783 2338 1810 1326 122 47 64 12 0 0 2 2 29 46 5 26 27 15 22 101 57 81 0 0 0 0 0 0 0 0 0 8 40 63
1141 2760 3858 3465 3433 3530 3310 4009 3024 2711 2842 1998 1412 1375 187 114 102 82 35 0 20 1 10 13 10 12 17 13 166 398 68 24 1 6 6 0 0 14 53 80 68 23 58
1331 2928 3542 3601 3579 3578 3862 4082 2681 3537 3026 2374 2098 1701 704 49 104 89 31 0 0 19 78 352 1 354 3 39 137 70 133 134 168 72 2 15 41 23 33 93 98 151 285
3617 3627 3149 3271 3471 3765 3927 4317 3227 3633 3546 1986 1008 2194 1899 128 154 94 43 21 0 0 5 50 47 40 78 40 149 45 122 298 310 114 10 0 0 0 3 18 45 122 216
4402 3761 4087 3664 3708 3792 3985 4382 3978 3703 3624 3309 2489 2464 2153 2223 113 56 74 52 43 41 4 0 9 798 448 335 218 321 169 594 52 0 0 1 0 0 0 15 28 28 13
4201 4405 4284 4201 3972 3808 3980 4255 3998 2588 3707 3201 2626 2695 1960 832 2090 1797 228 1555 451 737 76 1678 696 426 1065 1547 1437 1610 402 34 217 18 12 0 0 0 0 0 0 0 0
4402 4196 4284 4471 4324 3948 4019 4410 4289 3990 3784 3670 3464 3331 2717 2201 2260 733 845 426 243 496 486 181 113 175 269 535 1037 1419 1416 1138 453 23 0 0 0 0 0 0 0 0 0
4392 4329 4275 4403 4410 4297 4028 4109 4185 4195 3988 3799 3715 3664 3426 2811 2199 2333 1666 1605 1161 643 538 251 140 62 177 887 442 256 421 637 593 146 56 7 31 0 0 0 0 0 0
4357 4407 4369 4378 4566 4398 3585 4064 3864 3998 4138 4172 3966 3914 3728 3025 1897 1923 1369 1582 1470 851 66 160 290 304 137 413 886 631 602 183 590 146 463 290 733 236 233 0 37 4 0
4476 4467 4464 4380 4376 4091 2786 2136 3148 3961 4130 4318 4211 4130 3848 2340 1589 954 847 982 1461 2066 1756 830 709 768 2151 1282 620 386 526 195 290 752 440 458 955 833 366 179 67 64 0
4534 4520 4471 4529 4479 4476 2809 1239 1332 3789 4117 4033 4326 4294 3920 2713 2394 2196 431 429 226 605 944 2247 1981 1867 2173 1970 1905 984 1443 1050 570 629 776 405 350 301 59 1 0 0 0
4592 4594 4599 4656 4632 4514 3308 758 597 2993 3735 3929 4072 4258 4310 3464 3477 2976 2725 1515 1348 1128 968 751 1665 2057 2086 2005 1058 1607 1475 1220 1017 598 1150 264 238 47 0 0 0 0 0
4605 4555 4610 4724 4717 4575 2954 1369 194 2671 3202 3552 3735 4154 4213 4284 3424 1745 3123 2985 2137 1674 570 527 348 306 275 326 460 803 497 691 601 379 866 237 25 0 0 0 0 0 0
4567 4299 4481 4632 4293 4683 3743 995 358 2907 3106 3276 3593 4079 2885 3642 3471 656 2807 3163 2677 2091 1602 614 113 41 65 15 0 742 434 278 316 163 502 43 8 0 0 0 0 0 0

GFSMA_con_sbcape_036.txt.gz
CAPE
1446 1364 1787 683 1838 1385 866 1351 1862 1301 2121 1047 957 938 128 37 313 62 551 1663 1561 1947 1583 1559 1417 1419 1361 1469 1123 1055 421 861 1270 1199 1274 1144 1093 1070 869 662 450 479 895
1985 2290 2711 1655 1834 1436 880 1844 2934 2029 510 1099 1119 947 103 451 177 146 427 1168 1766 1695 1888 1859 1651 1538 1497 1584 1581 1209 1365 589 636 1019 989 1194 1303 1111 1070 945 627 547 844
3019 1369 2646 2426 2483 3008 2891 2671 794 1087 772 255 697 723 302 43 418 97 176 278 1250 1825 1791 1852 2105 2161 1660 1509 1595 1635 1565 1744 1545 1586 1772 1388 1604 1422 1426 1371 1347 1405 1170
2951 3494 2381 1653 963 1699 2694 1027 2237 1101 1207 1030 280 205 196 252 206 389 274 454 630 595 1448 1840 1986 1922 1429 1654 1571 1648 1742 1882 2108 2167 2035 2020 1721 1781 1918 2203 1861 1712 1813
2748 2950 2211 947 2343 2656 2239 2099 1878 1093 1212 709 26 517 519 25 42 51 477 547 687 257 374 1720 1965 1976 1411 1313 1352 1450 1698 2139 2142 2212 2034 2134 2095 2073 2072 2021 1941 2011 1979
2739 3205 2303 2520 3000 2759 1740 1726 2341 1569 1044 696 9 128 70 271 62 331 140 184 668 563 289 572 1324 1148 1676 1677 1292 1067 1052 1224 1396 1389 1587 1679 1702 1899 1921 1980 1852 1877 1669
2991 3644 2161 1025 2410 2550 2692 2530 2014 1330 891 276 681 296 252 46 50 39 66 51 199 211 207 924 953 547 1196 1498 1228 1094 1113 1172 1459 1563 1391 1559 1372 1261 1207 1059 1068 1140 1343
3187 3365 2908 2527 2614 1142 2680 2188 2155 1666 1113 328 867 189 178 207 43 41 118 44 117 37 15 782 501 1083 676 622 927 1431 1760 1683 1310 1055 834 814 798 691 527 419 450 612 567
2958 3077 2890 2845 2636 2619 2227 2270 2434 2551 1069 271 1385 1215 138 30 255 139 59 18 62 7 9 328 534 1097 583 13 397 578 677 461 59 0 0 1 14 2 0 0 0 0 0
2820 2861 2891 3504 3389 2579 2717 2893 3121 2718 1987 320 260 567 1142 1105 369 18 305 110 189 13 229 41 97 248 596 8 4 12 10 0 7 0 0 0 0 0 0 0 0 0 0
3006 3050 3031 3322 3690 3350 2962 2500 3222 2920 2675 1846 507 387 747 990 819 916 199 253 183 177 195 244 77 44 322 0 0 0 0 0 0 0 0 0 0 0 0 0 0 0 0
2708 3467 3234 3162 3598 3343 3478 2953 3417 3512 3115 2751 1686 1046 499 329 569 520 654 326 343 502 326 94 206 181 258 54 0 0 0 0 0 0 0 1 0 0 0 0 0 0 21
2388 2802 3464 3419 3040 3172 3412 3647 3457 3754 3250 2900 2126 1641 1232 1240 904 769 364 448 386 334 421 297 393 242 237 617 63 0 20 0 0 0 0 0 0 3 25 40 6 21 45
1714 2952 2781 3180 3075 2954 3206 3919 3747 3302 3148 2792 2949 1914 1322 1352 952 693 576 878 319 310 570 207 132 519 437 325 2 11 0 0 0 0 0 0 0 0 10 102 179 254 141
2227 3502 2905 3130 2856 3265 3519 3810 2997 3453 3547 2871 2497 2505 1738 1112 1104 920 852 607 670 534 720 904 253 212 654 220 77 1 76 0 0 0 0 0 0 0 0 44 109 172 137
2420 3742 3135 3026 3194 3068 3677 3509 3338 3479 3261 2893 2218 1978 1807 678 652 1091 757 781 577 474 394 577 553 390 131 544 305 503 429 46 0 0 0 0 0 1 10 31 53 15 35
4141 2962 3801 3214 3270 3295 3313 3603 3117 3012 3577 3044 2101 2192 1728 1389 1471 1024 774 807 903 714 463 402 1137 1405 917 413 120 416 271 415 42 0 2 5 0 0 1 0 0 0 0
3182 4257 3687 3381 3411 3162 3294 3285 3316 2545 3323 3051 2514 1982 2011 1418 1654 1782 1770 890 744 1084 893 1100 845 1159 1253 913 1083 1080 331 5 251 126 0 0 0 0 0 0 0 0 0
3838 3286 3993 3906 3245 3180 3159 3273 3259 3226 2335 3197 3009 2522 2147 1706 1556 930 1165 1057 988 1143 1408 673 758 1002 1294 1315 1012 1020 1278 805 636 42 0 0 2 0 0 0 0 0 0
3454 3668 3533 3472 3818 3317 3249 3170 3286 3559 3216 2899 3257 3000 2712 2161 1534 1589 1231 917 1138 1079 713 847 677 481 982 948 871 681 729 735 602 247 1 0 0 0 0 0 0 0 0
3421 3551 3630 3611 3506 3697 3348 3228 3249 3515 3493 3051 2970 3348 3043 2723 2097 1607 1387 1531 786 972 876 428 333 527 595 816 648 618 291 236 493 564 226 12 19 6 0 0 1 11 3
3837 3782 3820 3703 3687 3585 3298 2789 2957 3320 3556 3367 3272 3215 3204 2631 2170 1420 1268 1067 1302 734 499 247 345 485 638 875 1429 604 347 343 307 482 237 371 606 602 303 334 119 13 0
4051 4029 4011 3966 3710 3695 3135 2018 1778 3129 3227 3283 3241 3261 3317 3020 2484 1943 696 758 696 888 721 641 931 1312 1814 1583 1467 1242 1084 981 533 589 378 210 502 281 451 0 0 0 0
4163 4119 4174 4101 4021 3862 3240 1315 1017 2542 3087 3145 3203 3198 3254 3169 2931 2687 1847 937 806 611 464 692 1364 1179 1740 1599 1542 1529 1210 1138 1006 729 543 177 293 324 20 0 0 0 0
4213 4311 4243 4271 4191 4029 3010 1523 306 2232 2718 2922 3162 3299 3212 3243 3087 1898 2513 1770 1139 1046 742 428 548 1126 796 782 1343 918 923 577 510 404 477 275 202 94 0 0 0 0 0
4351 4304 4316 4274 4146 4196 3774 1228 325 2746 2633 2628 2809 3221 2564 3060 3035 1073 2275 2488 1924 1406 1195 637 131 21 17 72 177 763 573 417 241 239 425 259 64 0 0 0 0 0 0

GFSMA_con_sbcape_039.txt.gz
CAPE
687 814 1139 517 627 565 499 918 670 807 551 443 74 33 82 38 127 641 1128 2233 2080 2144 1954 1422 1314 1158 1014 858 799 649 1062 1197 1281 1287 1315 1211 1262 1144 776 668 513 503 880
930 889 1380 1102 927 517 306 400 988 965 339 363 60 130 65 51 28 208 463 1098 2096 2146 1911 1904 1466 1520 1526 1665 1435 1352 959 503 889 1270 1096 1356 1572 1312 1152 1068 845 608 853
834 790 658 1153 912 793 530 1156 38 630 378 231 55 41 17 52 41 94 276 646 1343 2101 2195 2286 2340 2197 1739 1662 1754 1646 1575 1826 1347 1416 1687 1686 1783 1694 1605 1545 1428 1302 1337
1787 852 986 830 840 1197 1439 1161 991 193 394 170 71 71 46 26 30 81 116 265 678 904 1911 2185 2259 2028 1776 1620 1838 1770 2046 2142 2223 2290 2081 1864 1603 2027 1876 2039 1742 1879 1689
1734 1324 778 780 781 1371 1013 561 1019 322 260 260 42 53 44 37 47 108 24 157 263 476 613 1777 1983 1792 1456 1401 1529 1523 1835 2136 2353 2306 2169 2063 1912 1930 1870 1790 1667 1654 1677
1548 1554 1032 790 1265 911 901 406 285 84 92 8 18 58 23 10 28 83 177 257 146 117 205 661 1053 1045 1402 1627 1826 1613 1526 1651 2180 1913 1451 1724 1699 1759 1759 1547 1613 1518 1485
1588 1482 1400 860 1218 880 986 977 386 458 96 0 0 24 9 10 23 31 30 104 148 52 90 150 372 491 1003 1562 1123 912 1071 1274 1441 1438 1373 1492 1365 1337 1274 1145 1106 1083 1077
1623 1505 1425 902 1308 1081 1234 1089 800 510 360 0 58 33 8 4 4 10 11 61 43 3 27 162 215 293 580 466 685 1544 1804 1765 1278 1010 913 768 659 508 475 336 425 457 335
1878 1638 1388 1425 1333 584 957 1151 893 917 0 0 41 104 12 1 1 13 2 0 6 0 0 343 174 114 193 92 833 1186 1376 1113 344 0 0 0 8 14 1 0 0 0 0
1399 1761 1533 1312 1496 1275 999 998 1146 903 24 0 0 26 93 48 0 0 0 0 0 0 17 104 239 95 76 0 172 196 268 0 0 0 0 0 0 0 0 0 0 0 0
1196 2109 1615 1771 1537 1640 1064 1063 1748 796 618 145 0 0 0 0 0 0 1 1 0 0 0 0 18 90 0 0 0 0 1 0 35 79 17 0 0 0 0 0 0 0 0
1380 1892 1865 1816 1673 1712 1396 1420 1648 1196 945 1165 67 16 0 0 0 0 9 5 0 0 0 0 0 0 0 0 0 0 4 0 21 21 32 51 92 23 0 0 0 0 9
1518 1886 1935 1804 1889 1982 1977 1399 1851 1956 1378 1240 951 37 97 0 44 0 0 0 0 0 0 0 0 0 0 0 0 0 10 0 0 0 0 4 36 48 98 81 14 16 38
1479 1412 2179 1738 1820 1744 1788 1986 1944 2028 1751 1209 1553 606 37 142 16 0 0 0 0 0 0 0 1 0 0 0 0 0 0 0 0 0 0 0 0 0 1 22 77 108 49
938 1582 1818 2276 1813 1672 1633 1953 2234 1915 2016 1613 1061 1316 584 79 129 25 0 0 0 0 19 9 3 8 0 0 4 0 0 0 0 0 0 0 0 0 0 0 0 19 46
670 1498 1789 2030 1960 1871 1881 1998 2362 2323 1986 1877 1403 1209 1045 424 81 64 40 4 0 0 0 28 0 22 61 10 28 0 0 0 0 0 0 0 0 0 0 0 0 0 0
1544 1292 1985 1990 1950 2072 2269 2191 2038 2032 2376 2083 1603 1317 1024 667 108 64 80 56 32 0 0 0 22 62 70 64 17 18 26 5 0 0 0 0 0 0 0 0 0 0 0
1376 2290 2362 2105 2232 2044 1965 2499 2105 2202 1898 2171 1819 1128 1099 809 420 268 641 45 27 89 0 0 163 291 101 0 0 0 32 39 3 0 0 0 0 0 0 0 0 0 0
2483 1604 2625 2359 2292 2343 2310 2140 2347 2194 1894 2211 2018 1391 973 967 663 323 417 514 266 27 402 72 149 347 326 214 249 166 42 4 3 129 13 0 0 0 0 0 0 0 0
2107 2929 1882 2572 2400 2395 2291 2408 2355 2397 2268 1796 2204 1942 1549 1198 987 653 352 297 282 342 137 248 27 16 117 486 111 153 187 250 148 145 0 0 0 0 0 0 0 0 0
2504 2237 2630 2337 2679 2389 2462 2327 2448 2418 2419 2405 1831 2375 2114 1728 1276 844 724 371 210 313 255 51 77 143 60 374 527 247 137 157 189 98 55 0 0 0 0 0 0 0 0
2106 2395 2411 2449 2699 2803 2646 2131 2372 2478 2486 2570 2560 1928 2513 2077 1597 947 744 698 563 159 136 365 40 40 78 90 229 280 235 69 120 65 65 20 0 0 0 0 0 0 0
2924 2590 2428 2722 2624 2755 2617 1522 1608 2505 2495 2633 2664 2586 2087 2441 2040 1998 581 596 455 559 143 76 256 115 44 78 161 168 72 11 8 4 0 1 1 12 0 0 2 0 0
3055 3158 3066 2815 3012 2923 2672 1321 837 2349 2568 2540 2835 2791 2689 2534 2458 2345 2216 1162 957 667 399 154 41 30 130 303 314 328 150 94 117 46 2 26 10 13 0 0 0 0 0
3122 3172 3367 3307 3211 3206 2426 1459 312 2010 2607 2649 2689 2765 2896 2814 2649 1801 2434 2051 1449 1114 622 281 255 253 670 808 573 318 200 144 83 110 88 13 6 9 0 0 0 0 0
3237 3279 3277 3496 3388 3413 3155 1049 317 2308 2598 2645 2615 2562 2303 2582 2703 1311 2061 2478 1958 1511 1113 745 60 58 602 288 362 259 96 48 42 67 37 136 22 18 0 0 0 0 0

GFSMA_con_sbcape_042.txt.gz
CAPE
233 421 641 722 557 433 264 474 528 594 499 45 21 407 417 49 440 1010 1300 2173 2427 1980 1525 1199 712 566 774 1131 1376 1403 1468 1283 1365 1338 1245 1257 1199 1023 706 646 513 467 716
336 531 564 222 322 274 278 165 615 473 117 44 25 61 26 32 143 756 845 1622 2265 2511 2074 1431 1393 1282 1328 1161 1104 1000 683 1097 1396 1423 1148 1322 1337 1187 1148 1078 948 740 720
659 624 710 721 343 305 192 103 162 131 21 46 29 26 21 12 53 214 518 600 1596 2408 2395 2021 1861 1764 1590 1795 1737 1424 1527 1053 838 1047 1185 1253 1287 1328 1355 1476 1452 1411 1262
577 657 647 679 605 848 685 744 369 77 89 75 51 12 17 27 28 47 205 397 709 1108 2173 2140 1873 2013 1582 1628 1676 1776 1782 1742 1997 1850 1837 1670 1568 1401 1644 1541 1333 1429 1637
991 472 471 678 471 645 776 197 610 178 151 138 57 13 27 38 38 36 42 98 271 585 852 1685 1466 1926 1440 1561 1666 1684 1661 1862 1894 1840 1818 1694 1676 1645 1625 1545 1453 1542 1307
1221 922 439 211 494 628 502 381 62 33 54 66 29 34 5 22 37 39 48 73 85 140 215 702 749 1098 1254 1521 1324 1576 1350 1377 1348 1436 1828 1666 1646 1601 1409 1366 1138 1020 960
1039 1078 910 899 851 802 709 70 70 45 5 0 9 4 0 9 11 36 52 39 38 37 94 234 374 420 766 1255 1152 931 814 928 1049 1092 1095 1224 1217 1237 1061 963 881 912 702
1073 975 865 618 679 809 666 584 269 101 3 0 21 0 0 0 0 2 27 33 13 17 28 58 91 148 494 421 434 1122 1262 1366 1241 924 809 642 527 339 193 267 239 60 0
1131 1091 913 724 775 590 701 620 467 65 0 0 1 0 0 0 0 0 0 11 16 7 0 63 54 93 218 61 756 1019 1228 1085 785 183 0 0 0 0 0 0 0 0 0
1139 1202 969 911 1080 531 380 641 540 355 0 0 0 1 4 0 0 0 0 0 0 0 0 82 78 46 39 0 225 578 1031 492 52 0 0 0 0 0 0 0 0 0 0
950 1152 1117 923 895 1018 580 506 989 622 0 0 0 0 0 0 0 0 0 0 0 0 0 28 86 41 3 0 0 36 473 0 0 39 2 0 0 0 0 0 0 0 0
583 1117 1175 1047 1123 1092 968 563 891 554 551 0 0 0 0 0 0 0 0 0 0 0 0 0 17 55 0 0 0 0 106 0 0 7 2 10 32 8 0 0 0 3 26
395 889 1511 1084 1174 1162 880 755 988 953 374 734 116 0 0 0 0 0 0 0 0 0 0 0 0 0 0 0 0 0 44 0 0 0 0 0 4 50 132 25 0 16 26
588 744 1391 1368 1331 1185 1204 992 971 1358 812 663 631 35 8 64 0 0 0 0 0 0 0 5 0 0 0 0 0 4 0 0 0 0 0 0 0 0 0 2 11 13 17
1024 830 1340 1382 1316 1250 1292 1336 1172 1172 1444 723 485 828 97 10 24 26 0 0 0 0 0 0 0 0 0 0 0 0 0 0 0 0 0 0 0 0 0 0 0 0 0
823 1081 1113 1739 1394 1288 1099 1215 1765 1369 1481 1276 894 480 607 322 39 21 10 0 0 0 0 0 4 0 0 0 0 0 0 0 0 0 0 0 0 0 0 0 0 0 0
86 755 1171 1445 1728 1483 1226 1109 1348 1875 1372 1522 1459 994 630 420 263 20 0 0 0 0 0 0 0 0 0 0 0 0 0 0 0 0 0 0 0 0 0 0 0 0 0
773 101 1267 1341 1671 1679 1463 1406 1325 1745 1992 1626 1563 1323 1109 769 498 125 0 36 0 0 0 0 0 196 10 0 0 0 0 0 0 0 0 0 0 0 0 0 0 0 0
856 1032 1420 1449 1639 1640 1709 1729 1572 1575 1618 1825 1726 1460 1387 963 894 521 70 65 133 0 0 0 0 0 18 1 1 0 0 0 0 5 2 0 0 0 0 0 0 0 0
636 1198 1692 1803 1803 1785 1682 1739 1984 1913 1696 1613 1691 1680 1501 1077 1121 727 284 124 61 168 0 26 0 14 39 90 2 3 27 7 3 29 61 25 0 0 0 0 0 0 0
1816 1015 1593 1837 2000 1952 2014 1905 1739 1829 2027 1904 1589 1906 1832 1418 1116 940 728 411 54 46 41 0 0 0 0 103 142 0 17 27 61 11 22 0 0 0 0 0 0 0 0
1337 1974 1762 1984 1969 2266 2211 1836 2011 2049 1929 1910 1917 1750 1728 1710 1211 669 467 692 352 172 124 59 97 20 31 0 80 86 50 1 14 3 29 28 0 0 0 0 0 0 0
1668 1287 1741 2091 2079 2247 2243 1308 1149 2055 2123 2089 2035 2006 2011 1933 1734 1764 380 159 222 162 325 66 21 57 11 3 0 46 81 21 40 5 20 58 0 0 0 0 0 0 0
2381 2144 1690 1809 2182 2143 2125 953 562 1853 2164 2150 2199 2191 2182 2213 1981 2041 2176 1369 634 618 227 122 217 55 23 9 1 8 41 49 2 0 0 7 0 0 0 0 0 0 0
2393 2570 2570 2363 2014 2140 1967 906 195 1514 2095 2395 2383 2304 2407 2441 2366 1374 2027 2273 1969 1402 968 204 270 232 5 1 0 0 28 8 7 4 0 0 0 7 0 0 0 0 0
2659 2625 2666 2805 2771 2661 2337 857 105 1953 2167 2308 2533 2606 2057 2221 2618 1548 1351 2152 2288 2325 1871 1494 377 26 3 0 0 49 78 40 34 14 0 0 0 0 0 0 0 0 0

GFSMA_con_sbcape_045.txt.gz
CAPE
212 311 443 371 454 371 164 277 217 340 128 37 62 499 263 63 285 783 1219 1724 1768 1659 813 542 689 977 1146 1359 1343 1547 1402 1339 1261 1250 1153 1233 1104 907 630 700 694 489 647
262 276 323 269 270 210 108 78 355 254 54 32 36 292 28 89 388 825 973 1553 2110 2039 1540 1059 796 672 842 875 941 769 1137 1261 1409 1380 1171 1283 1246 1171 1098 1135 1035 988 1109
315 475 374 435 205 182 164 6 6 27 16 12 35 28 21 39 161 618 708 813 1667 1738 1636 1415 1354 1241 1420 1406 1230 1232 1067 586 583 765 999 1000 1171 1222 1256 1327 1211 1154 1324
372 451 522 569 255 329 351 606 250 43 33 15 21 12 10 14 29 190 298 343 897 1350 1907 1839 1626 1662 1539 1500 1583 1514 1448 1454 1392 1593 1586 1544 1404 1396 1374 1384 1220 1209 1168
533 436 583 660 428 350 318 480 325 80 93 63 7 0 9 21 12 48 64 160 337 575 913 1496 1730 1695 1435 1081 1025 1012 1363 1690 1680 1512 1499 1575 1322 1321 1360 1268 1198 1168 1165
837 249 266 327 306 588 321 189 70 30 52 29 14 8 8 24 29 45 42 42 90 248 349 518 640 706 1123 1177 1435 1218 1108 1081 1200 1123 1212 1174 1187 1069 1063 796 748 754 799
893 568 273 235 537 314 373 24 31 0 0 0 3 1 0 0 0 33 39 40 59 21 35 176 259 275 399 1183 1018 1059 837 789 861 960 955 979 1031 1008 792 601 554 441 321
857 824 637 607 577 455 308 210 20 13 0 0 1 0 0 0 0 0 27 44 32 16 32 53 88 90 198 346 295 785 795 846 1107 802 653 506 333 133 19 0 0 0 0
809 784 647 359 492 419 454 245 124 0 0 0 0 0 0 0 0 0 0 13 16 9 1 0 14 31 134 95 330 732 1195 1122 806 524 54 0 0 0 0 0 0 0 0
732 854 613 398 501 326 151 319 158 20 0 0 0 1 0 0 0 0 0 0 0 0 0 1 14 22 66 20 134 412 1013 721 702 0 0 0 0 0 0 0 0 0 0
685 935 751 580 699 624 256 315 276 113 0 0 0 0 0 0 0 0 0 0 0 0 0 0 18 25 18 9 0 25 723 529 49 34 3 0 0 0 0 0 0 0 0
496 776 854 619 522 654 591 259 339 232 9 0 0 0 0 0 0 0 0 0 0 0 0 0 0 35 2 0 0 25 382 267 0 18 12 38 21 0 0 0 0 0 0
227 544 795 726 652 660 715 454 346 602 264 25 0 0 0 0 0 0 0 0 0 0 0 0 0 4 9 0 0 60 145 98 0 0 0 0 34 131 200 102 4 0 0
170 404 742 798 702 789 784 450 480 663 242 382 185 0 0 0 0 0 0 0 0 0 0 0 0 0 0 0 0 2 0 0 0 0 0 0 0 1 22 60 55 25 0
109 162 432 1048 1005 902 907 725 544 750 965 370 308 228 11 0 4 0 0 0 0 0 0 0 0 0 0 0 0 0 0 0 0 0 0 0 0 0 0 0 0 0 0
246 402 480 663 900 1080 919 919 773 701 929 962 493 209 330 156 2 0 3 0 0 0 0 0 0 0 0 0 0 0 0 0 0 0 0 0 0 0 0 0 0 0 0
101 609 577 856 970 983 878 867 1120 1172 934 1096 1087 799 420 177 243 30 0 0 0 0 0 0 0 0 0 0 0 11 0 0 0 0 0 0 0 0 0 0 0 0 0
0 233 690 798 1140 1174 992 938 915 1265 1417 1213 1263 1234 1123 802 315 67 0 0 0 0 0 0 0 0 0 0 0 0 0 0 0 0 0 0 0 0 0 0 0 0 0
276 127 376 825 986 1249 1254 1033 1028 995 1283 1560 1412 1337 1465 1211 1058 602 126 20 0 0 0 0 0 0 0 0 0 0 0 0 0 0 0 0 0 0 0 0 0 0 0
371 419 465 723 985 1160 1328 1340 1291 1213 1170 1366 1614 1581 1564 1333 1389 1241 604 238 6 0 0 0 0 0 0 0 0 0 0 0 0 0 0 0 0 0 0 0 0 0 0
985 698 741 1051 1124 1168 1315 1375 1482 1462 1336 1292 1304 1433 1561 1566 1309 1327 1235 840 113 9 1 0 0 0 0 0 13 0 0 0 0 0 0 0 0 0 0 0 0 0 0
1444 1043 823 929 1328 1508 1626 1307 1430 1527 1609 1607 1542 1412 1511 1463 1194 754 700 1029 870 505 354 83 188 34 5 0 0 0 0 0 0 0 0 0 0 0 0 0 0 0 0
1091 1511 1480 1115 1201 1363 1549 1075 863 1629 1548 1526 1594 1604 1637 1639 1419 1627 561 84 85 120 592 1096 382 518 229 16 2 1 6 0 0 0 3 2 0 0 0 0 0 0 0
1344 1237 1235 1565 1628 1642 1580 507 486 1434 1872 1840 1760 1712 1716 1756 1734 1587 1655 1597 638 641 328 97 746 1155 649 230 0 1 0 0 0 0 0 1 0 3 6 0 0 0 0
1951 1713 1550 1237 1227 1638 1373 867 86 1204 1709 1922 1959 1914 1970 1980 1915 1390 1556 1836 1881 1864 1157 420 143 317 280 172 43 0 0 0 0 0 0 9 2 2 5 0 0 0 0
2174 2254 2272 2138 1670 1476 1526 422 27 1571 1785 1876 2026 2148 1830 1845 2104 1560 1159 1820 1956 2052 2061 1946 1113 92 21 27 0 0 169 3 0 0 0 1 1 0 0 0 0 0 0

GFSMA_con_sbcape_048.txt.gz
CAPE
316 512 429 178 495 401 208 476 643 459 113 48 325 573 553 265 459 836 1253 1202 1554 1170 556 897 1131 1141 1141 1191 1160 1262 1172 1150 1020 1054 1049 1159 1023 975 758 972 1009 862 803
187 256 219 346 224 317 216 324 749 306 68 35 97 505 243 243 502 913 1171 1815 1755 1808 698 507 500 578 770 1015 1013 891 1123 1087 1214 1279 1116 1133 1243 1252 1170 1156 1197 1107 1163
183 388 399 362 182 252 185 191 1 31 45 41 71 141 103 265 514 808 1154 1149 1518 1361 1358 1212 974 783 814 764 793 928 732 483 493 524 784 936 1105 1072 1121 1183 1136 1040 1072
96 494 614 631 330 470 468 569 240 63 63 55 56 56 56 55 298 575 685 835 1273 1562 1480 1248 1060 1171 1234 1282 1509 1196 1158 1165 1220 1250 1285 1269 1222 1211 1166 1194 1004 973 993
389 524 506 711 582 606 584 745 425 92 108 80 37 37 29 29 48 140 312 395 615 974 1091 1258 1480 1512 1138 1042 1099 1086 1013 1264 1143 1261 1285 1175 1059 885 1010 900 716 732 731
645 360 526 419 511 804 661 303 154 55 85 38 22 16 30 39 36 65 58 131 222 489 612 799 922 895 1171 1153 1471 1233 1135 965 1000 971 926 887 741 681 739 667 677 703 589
930 275 348 336 738 521 594 143 59 20 12 9 17 7 0 1 44 54 36 41 80 164 145 305 485 548 525 982 1161 1107 870 774 794 861 802 766 781 705 464 302 227 64 0
1035 714 393 540 764 583 186 138 70 73 2 0 7 1 5 6 4 6 37 94 79 77 102 119 237 256 273 560 597 617 635 638 979 700 504 333 204 71 0 0 0 0 0
931 943 672 603 601 283 323 364 165 14 0 8 2 0 0 0 0 0 2 44 82 64 63 63 83 120 194 391 318 651 811 1038 778 451 53 0 0 0 0 0 0 0 0
596 845 746 444 591 363 524 525 247 0 0 0 0 6 0 0 0 10 0 0 1 38 54 61 100 91 166 264 140 275 428 544 689 21 0 0 0 0 0 0 0 0 0
472 876 787 562 569 669 359 448 416 138 0 0 0 0 0 0 0 0 0 0 0 0 5 9 61 172 177 191 124 60 228 481 289 12 0 0 0 0 0 0 0 0 0
393 665 919 664 588 814 716 355 504 214 3 0 0 0 0 0 0 0 0 0 0 0 0 0 1 85 282 239 127 62 94 397 178 0 0 17 9 0 0 0 0 0 0
268 461 724 717 619 623 840 631 520 604 299 2 0 0 0 0 0 0 0 0 0 0 0 0 0 32 209 316 196 312 241 142 110 0 0 0 22 93 191 165 63 1 0
130 424 570 796 763 794 784 729 616 666 531 553 240 0 5 0 0 0 0 0 10 0 0 136 0 0 123 354 329 79 179 3 2 0 0 0 0 21 51 105 189 163 44
42 255 513 844 827 854 918 810 688 795 994 561 628 450 56 16 1 0 0 0 17 31 33 81 57 0 10 131 418 396 292 1 0 0 0 0 0 0 0 0 1 0 0
41 165 304 732 951 991 969 941 902 728 1017 1132 756 515 480 264 22 14 9 0 0 0 35 0 22 0 0 0 34 366 170 1 0 0 0 0 0 0 0 0 0 0 0
0 180 315 486 671 944 1089 1104 1193 1122 974 1125 1146 935 695 360 516 204 0 1 0 0 0 11 0 0 37 62 91 183 99 54 12 0 0 0 0 0 0 0 0 0 0
0 211 435 539 781 883 1011 1112 1255 1489 1336 1284 1306 1288 1393 917 689 487 174 63 1 0 0 64 0 0 38 62 60 51 47 0 0 0 0 0 0 0 0 0 0 0 0
12 61 398 614 758 1071 1170 1106 1228 1329 1582 1668 1610 1602 1686 1485 1567 1120 740 429 31 1 0 0 73 0 0 0 35 0 41 82 8 0 0 0 0 0 0 0 0 0 0
394 238 245 548 762 960 1258 1343 1307 1315 1308 1510 1687 1724 1732 1767 1781 1782 1346 1249 1011 375 30 15 20 0 0 29 0 88 134 0 28 6 0 0 0 0 0 0 0 0 0
301 453 443 486 760 979 1144 1435 1526 1492 1481 1471 1533 1699 1816 1699 1452 1579 1774 1673 1351 1017 1035 609 602 486 53 63 77 212 24 187 181 51 16 43 15 10 30 0 0 0 0
878 724 624 702 713 837 832 870 1277 1633 1659 1613 1590 1569 1671 1272 1151 847 638 1050 1510 1234 1205 1019 954 1044 961 685 416 121 114 122 236 1 1 35 17 34 28 19 0 0 0
1144 1144 993 923 1030 1194 907 423 451 1518 1674 1748 1771 1773 1729 1641 1282 1771 810 248 202 163 736 1758 1487 1324 1257 1256 855 366 98 288 323 326 15 32 64 17 42 0 0 0 0
812 1227 1332 1122 975 1036 885 190 158 1210 1658 1773 1777 1850 1899 1970 1906 1778 1917 1993 1689 1313 591 405 1094 1692 1961 1959 1542 874 596 332 253 224 44 0 121 14 23 39 0 0 0
1196 1075 1213 1500 1542 1361 702 172 0 1188 1622 1798 1952 1980 1955 2017 1872 1202 1786 2048 2144 2131 1657 622 307 434 290 184 240 965 310 0 12 159 38 0 109 6 26 2 0 0 0
1735 1615 1578 1481 1300 1591 1388 147 4 1312 1543 1742 1969 2063 1553 1697 1941 1294 1317 2120 2265 2398 2464 2516 2072 271 65 96 1 9 383 575 148 32 165 0 0 0 0 0 0 0 0

GFSMA_con_sbcape_051.txt.gz
CAPE
1466 1268 1121 1205 1641 1467 1499 1591 1576 1187 1066 1233 963 1234 1245 1151 906 449 557 1274 1017 659 724 1241 1296 1077 1138 1072 976 1004 999 941 932 1055 1108 1133 988 1004 1049 1108 1073 985 999
1350 1471 1556 1576 1551 1388 1381 1667 1723 871 618 448 1290 1145 1151 1029 842 581 575 771 917 1014 506 405 499 636 714 906 901 858 986 984 1092 1207 935 761 890 900 1038 982 1087 976 958
1274 1478 1500 1488 1364 1457 1369 1409 1109 661 392 663 1483 1325 1101 997 489 632 852 1304 1046 1031 1116 649 562 463 562 599 581 618 549 432 369 365 571 1063 1102 1063 978 1014 979 891 774
1106 1725 1596 1556 1539 1568 1657 1309 913 491 466 599 963 938 982 734 489 578 605 912 1078 815 1130 1057 992 1130 1089 1268 1148 1115 1039 1047 1130 1111 1035 1010 816 882 897 898 951 872 798
1117 1561 1772 1702 1778 1808 1688 1544 1439 625 435 356 448 643 535 253 221 207 492 649 840 871 910 1217 1296 1194 960 849 908 891 879 976 1082 882 771 1077 985 746 662 648 559 670 688
1205 1622 1953 1974 1716 1973 1636 1288 1667 261 775 414 88 262 274 270 174 411 352 236 403 668 661 982 857 734 965 1077 1209 1276 1140 1019 965 922 870 755 677 613 677 632 633 437 237
1483 1859 1523 1740 1602 2492 2159 1316 828 610 106 178 160 120 38 44 358 343 493 386 332 427 403 486 715 511 494 649 996 920 836 751 785 834 695 663 697 560 353 184 79 0 0
1881 1948 1691 1521 1999 1729 1723 1488 1287 246 95 108 136 95 81 60 84 204 462 539 658 555 449 393 459 687 599 555 520 542 569 520 960 652 420 244 167 53 0 0 0 0 0
1955 2192 1907 1610 1991 2365 1600 1741 1342 939 62 172 256 78 53 38 68 114 388 605 848 811 702 736 491 546 722 619 420 213 669 967 832 427 62 7 0 0 0 0 0 0 0
1829 2252 2335 2001 2006 1879 1970 1846 1561 1048 322 188 229 309 51 159 26 54 206 369 622 770 790 684 504 624 797 721 337 193 270 577 668 127 0 0 0 0 0 0 0 0 0
1778 1746 2132 2042 1873 1938 2148 1854 2023 1831 563 135 211 615 722 54 25 68 25 155 351 479 660 714 462 571 887 889 617 223 284 534 496 208 0 0 0 0 0 0 0 0 0
1529 1713 1831 2046 2030 1872 2120 1975 1991 1906 1154 124 156 566 437 369 170 55 29 201 190 289 407 648 624 558 666 909 914 342 276 334 393 108 42 95 65 4 1 0 0 0 0
1274 1573 1943 2116 1999 2223 2181 2224 2257 2021 1661 1091 530 41 139 223 199 213 187 201 258 382 394 475 552 680 575 833 959 831 690 210 257 72 0 20 83 177 198 132 61 29 10
860 1497 1915 1973 2096 2188 2154 2288 2166 2146 1996 1706 1641 874 361 208 106 182 214 282 362 525 560 912 715 663 636 789 1013 938 813 244 42 2 0 0 1 20 83 170 255 295 183
522 1140 1654 1832 1971 2100 2222 2355 2164 2392 2359 2324 2102 2149 1495 903 562 269 254 293 404 468 416 493 547 966 847 879 965 1095 1182 749 31 0 0 0 0 0 0 0 2 0 0
812 728 1534 1738 1935 2022 2243 2448 2074 2382 2531 2260 2063 2271 2236 1678 1248 877 741 520 422 473 548 486 546 681 823 596 742 841 1064 664 243 0 0 0 0 0 0 0 0 0 0
1110 1319 1616 1732 1880 1999 2127 2374 2297 2240 2570 2585 2414 2408 2498 2390 1837 1420 1108 893 757 630 635 605 698 652 935 1147 945 827 756 860 630 10 0 0 0 0 0 0 0 0 0
1178 1343 1585 1801 1824 1815 1941 2171 2100 1746 2352 2660 2673 2562 2432 2271 2454 2310 1824 1754 1435 1198 843 1688 1214 913 1384 1320 1350 1311 934 421 524 224 0 0 0 0 0 0 0 0 0
1387 1139 1281 1846 1880 1825 1884 1982 2051 2156 2239 2399 2734 2775 2673 2568 2655 2367 2571 2259 2016 1773 1346 1032 1094 938 963 824 1043 1362 1028 1221 643 214 9 0 0 0 0 0 0 0 0
1685 1415 1502 1846 1845 1873 1920 2017 2095 2239 2372 2344 2611 2798 2818 2829 2876 2933 2864 2859 2683 2515 2433 2028 1792 1664 1575 1676 1045 902 870 842 777 495 184 11 43 0 0 0 0 0 0
1860 1913 1686 1698 1662 1594 1449 1881 2081 2251 2418 2510 2547 2709 2726 2571 2245 2504 2719 3478 3196 2600 2271 1948 1809 1697 1665 1642 1787 1477 1371 1375 1502 1160 841 687 505 239 89 0 0 0 0
1880 2212 2004 1807 1683 1381 787 861 1642 2185 2537 2620 2625 2668 2748 2004 1756 1114 776 1067 1935 3444 2838 2544 2300 2386 3423 2695 2358 2212 2078 1906 2224 1947 1337 792 544 454 318 228 9 0 0
1986 2177 1857 1859 2136 2258 984 401 504 1910 2420 2667 2869 2738 2516 2092 2000 2524 1690 311 207 164 819 2951 3475 3529 3692 3712 3676 3102 3230 2801 2488 2048 2052 1614 1194 1057 544 504 0 0 0
2504 2314 2099 2301 2352 2322 1333 221 1 1386 2524 2941 2990 2843 3018 3137 2913 2575 2784 2840 2967 3016 2306 1571 2146 2892 3457 3766 3815 3711 3744 2941 2093 1855 1831 1398 1469 1749 1345 941 79 0 0
1984 2247 2243 2354 2493 2550 1062 390 5 1705 2048 2845 2948 2897 3081 3161 2612 2101 2544 2965 3361 3366 2342 1979 1656 1401 996 486 631 1805 1691 1688 1280 1289 1673 1509 1327 1222 1206 1297 713 0 0
2247 1798 1894 2485 2144 2732 1733 54 2 1582 2146 1964 2753 3054 1947 1891 2227 1634 2210 2606 3299 2937 2921 3268 3498 1116 209 905 49 16 808 935 1567 1793 2469 2091 1515 1276 694 647 807 481 10

GFSMA_con_sbcape_057.txt.gz
CAPE
1495 1595 1588 1079 982 1034 489 937 1553 1525 476 808 1215 1304 343 470 230 668 526 815 817 1113 1508 1546 1134 1294 1118 944 867 903 899 877 1084 982 936 764 674 589 704 674 712 760 707
1853 1995 1184 1448 2142 1966 1826 1729 1960 1051 969 504 857 1175 848 635 889 1076 563 913 910 533 473 574 574 586 621 809 616 681 519 605 593 409 249 433 756 935 827 749 832 824 782
1656 2292 1070 1630 1953 1567 1312 841 242 98 81 639 1053 1141 514 1202 653 1010 1342 946 1161 1020 673 536 495 454 530 598 570 597 615 519 299 316 682 1007 823 671 785 692 769 758 714
1873 1907 1639 1460 875 1121 1068 514 581 1090 84 795 776 1063 888 601 536 662 1173 1481 1227 1236 1016 1084 1040 967 890 975 961 900 1030 787 876 893 938 830 857 797 704 579 495 532 597
1628 1754 1489 1486 1641 1100 933 730 1591 337 59 277 396 566 956 254 904 85 301 832 732 1092 1451 1567 1354 977 787 802 926 1036 850 853 907 948 704 704 828 670 479 408 526 562 285
1437 1861 1797 1066 1585 1434 420 1412 275 1390 521 383 60 157 536 227 106 302 80 131 97 308 1068 1299 1105 791 1352 816 1048 1282 1117 975 850 779 685 509 428 457 467 456 196 12 0
1544 1864 2089 1464 1478 1890 587 800 96 500 69 34 36 55 32 15 151 112 84 203 143 226 21 311 718 1291 1043 1428 676 734 633 655 667 640 470 386 422 369 235 43 0 0 0
1916 1572 1648 1425 1494 1435 1352 927 1025 671 198 306 531 417 174 49 97 128 71 65 235 244 286 210 224 241 212 873 1361 573 364 322 711 545 265 111 114 19 0 0 0 0 0
1748 1947 1609 2222 1558 1929 1145 1376 1361 2657 919 50 328 830 268 286 313 46 134 258 444 648 403 524 317 308 399 518 266 382 450 417 637 317 45 0 0 0 0 0 0 0 0
1781 1903 1876 1722 2119 2096 2619 1828 1683 2207 2232 367 35 52 1101 405 722 1102 217 237 366 430 602 600 704 520 556 650 374 605 671 1123 809 264 6 0 0 0 0 0 0 0 0
2064 1683 2257 1818 2052 1626 1786 1819 1790 1900 1024 1422 116 79 376 56 817 1089 582 360 368 274 422 769 440 521 970 699 689 719 563 638 858 942 353 26 0 0 0 0 0 0 0
1919 2287 2047 2817 2112 1903 1970 1976 1949 1709 2681 1573 1206 513 248 453 492 179 104 540 285 346 278 357 513 491 542 887 1013 589 465 457 476 585 615 288 159 32 0 0 0 0 0
763 3142 3271 3022 2492 2556 2241 1934 2361 1972 2101 1500 1801 341 281 293 338 356 306 292 311 439 587 599 605 658 578 679 711 1132 749 298 260 185 187 157 172 206 191 159 145 75 22
601 3613 2623 2217 2365 2424 2352 2895 2150 1989 3036 1948 1880 2350 587 223 221 280 474 596 686 776 1040 1034 835 905 919 965 1134 972 873 141 39 4 2 4 4 30 103 151 210 265 318
817 1105 2124 2258 2118 2057 2666 2926 1816 3020 2518 2431 2641 2433 1714 649 589 422 452 524 610 825 892 1881 450 1194 745 724 1015 1427 1915 1011 95 1 0 0 0 0 0 7 23 66 141
2622 1450 1960 1651 2122 2630 2736 3675 2594 2768 3134 2309 1651 3396 2939 1307 1228 872 743 667 638 601 625 590 616 1059 932 898 860 1196 1264 802 304 83 13 0 0 0 0 0 0 0 0
3267 3041 2668 2304 2271 2357 2785 3881 3639 2641 2746 3285 3005 2531 3519 3844 2112 1320 960 844 815 790 754 710 617 1360 2715 3289 2664 2422 1773 2260 1477 306 98 0 0 0 0 0 0 0 0
3029 3488 3141 2931 2432 2099 2970 3568 2624 2300 2691 2782 2926 3505 2553 2232 3997 3922 2319 3596 1923 2367 1172 2675 1751 1601 2871 2961 3191 3513 1987 1742 1883 1103 156 15 0 0 0 0 0 0 0
3721 2432 3266 3532 3039 2417 3145 3457 3639 3268 2975 3032 2988 3319 3228 3529 4145 2836 3631 2216 1623 2341 2355 2163 2299 2148 2239 2116 2623 3450 3612 3134 2269 1596 1016 295 4 0 0 0 0 0 0
3722 3615 3693 3655 3370 2961 2772 2733 3208 3399 3353 2821 3163 3288 3382 3700 4176 4536 3838 4493 3716 3315 2543 2330 2352 2414 2464 2846 2405 2283 2596 2660 2687 2172 1936 1880 1409 83 0 0 0 0 0
3654 3841 3954 3817 3673 2856 2078 2842 3170 3324 3636 3308 3274 3432 3307 3292 2612 3646 3240 4051 4127 3745 2712 2795 2570 2245 2041 2089 2778 2592 2717 3206 3627 3152 2858 3216 3195 3573 2957 0 0 0 0
3842 3976 3885 3911 3801 2191 1417 1105 1968 2736 3338 3583 3691 3682 3738 2450 2222 2025 2083 2227 2247 3927 4722 3208 2608 2514 3618 3493 3140 2999 3386 3224 3534 3255 4407 4537 4313 4107 3960 3784 2879 17 0
3964 4176 4061 3980 4029 3906 1525 573 431 2212 2916 3302 3632 3798 3280 1881 2637 3722 2074 1827 1633 1179 817 2941 3416 3548 3716 4121 4589 4651 3437 3933 4536 4266 3917 4054 3745 3868 3924 3145 2873 2292 185
4002 4124 4168 4208 4201 3964 2347 539 11 2153 2289 2855 3517 3678 3987 3719 3716 3463 3988 3768 3524 3696 3466 2347 2718 3308 3978 4226 4454 4089 4193 4191 4322 4111 4106 3886 3999 4011 4277 3995 2943 1704 732
4138 4095 4170 4312 4379 4263 1954 950 18 2021 2166 2922 3123 3202 3577 4082 3479 2670 3323 3554 3901 4082 2295 1566 1825 2700 2718 2180 1474 1831 2628 3729 3764 3492 3876 4244 4050 3827 2980 2664 2488 1314 1181
4179 3612 3926 4310 3995 4506 3188 369 214 2253 2449 2153 3218 3586 2497 2265 2705 2431 3286 3714 3880 4056 3820 3370 3312 2618 944 1426 641 1154 3594 3491 3781 3740 3901 3760 3273 2599 2380 2757 2492 2783 2169

GFSMA_con_sbcape_060.txt.gz
CAPE
826 778 1118 674 751 1121 523 726 999 1555 452 843 1243 911 684 958 264 331 963 1941 2061 1893 1583 1155 1131 1091 1096 732 807 713 721 797 865 818 418 245 305 695 739 625 709 816 812
1070 1436 1016 1019 235 608 1541 1655 1059 1327 245 863 420 856 516 1061 726 392 450 933 1370 1528 1593 884 675 588 583 553 528 826 342 351 307 184 156 535 913 757 743 756 755 882 831
1680 2489 1236 2281 2274 138 2191 1006 1510 1177 886 888 1045 765 1398 1343 1034 1279 542 732 987 1224 1045 835 713 510 526 470 442 459 521 571 415 385 675 951 773 789 698 756 718 572 611
2642 923 808 210 1210 2463 113 102 1283 640 910 347 828 247 524 1073 1307 1312 1529 1114 1199 859 1263 1249 1117 875 556 872 869 936 921 924 794 824 843 756 681 819 651 498 441 498 509
2499 603 86 490 2387 517 1527 736 1558 1077 52 893 215 313 711 1013 517 753 1408 1802 1719 817 1001 1660 1751 1634 950 815 878 997 906 791 1085 1016 858 699 712 549 422 380 449 296 2
2297 2201 1719 2672 2785 583 1390 1973 409 989 1067 210 39 130 112 1024 660 1009 521 989 1263 1449 1353 887 1311 1065 1514 1182 1124 1322 1192 992 904 747 626 465 370 405 410 366 112 0 0
2473 3326 2578 2218 1696 170 625 1915 1459 670 858 467 472 918 589 337 312 1005 624 486 402 1075 1202 1505 1074 1144 673 1783 1273 1203 972 659 745 589 498 308 370 371 302 86 0 0 0
2857 2992 2735 2557 1441 860 1729 1934 393 712 1662 954 1050 704 565 377 670 14 841 601 656 476 486 624 1010 1185 1400 722 896 1266 720 618 572 562 315 144 150 123 28 0 0 0 0
2770 2698 2867 2639 2405 2072 2359 2006 1311 2207 1602 641 1124 1171 787 129 656 665 339 844 821 400 948 940 844 789 722 1229 1526 1009 807 481 857 482 183 50 75 15 0 0 0 0 0
2854 3035 2972 2966 2698 897 2396 2441 2123 1913 444 1385 1286 840 988 789 541 463 1191 1066 864 809 967 1467 774 850 1086 1171 1004 825 731 441 1184 824 298 81 80 16 0 0 0 0 0
3287 2645 2893 3187 2765 2785 2833 2453 2104 2307 2433 1387 1624 1065 1261 1369 1749 900 696 1145 1030 1156 1379 1199 1128 933 1195 1100 868 625 433 607 973 1036 789 321 126 0 0 0 0 1 3
2983 3213 2896 3243 3433 2611 2404 2854 3064 2753 2760 2999 1923 2062 913 964 1149 1210 1087 949 1129 977 1118 1263 921 939 1374 1277 1321 1130 540 433 507 595 726 590 313 136 4 0 0 0 0
1918 2851 3535 3201 2987 3515 3164 2899 3167 3072 3189 3240 2843 2432 1174 407 300 1631 1093 1725 1043 1323 1134 995 1366 1301 1089 1461 1268 776 662 316 240 165 186 291 260 245 235 205 195 132 54
1653 2639 3180 2848 3231 3261 3084 2920 3150 3083 2981 3158 3188 3105 2403 1894 1018 1206 1426 1579 1426 1795 2175 1483 1624 1604 1514 1428 1834 977 665 108 28 13 2 11 33 37 81 138 141 168 239
2276 2731 2970 3421 3150 3328 3116 3164 2597 2764 2640 3181 3070 3469 3102 1999 1466 1142 1480 1513 1812 1357 1462 2241 1951 2038 1479 1708 1919 1096 1155 601 16 0 0 0 0 0 0 0 0 0 16
2317 2983 3218 3005 3182 3518 3661 3541 2905 3118 3051 2578 2911 3004 3198 2189 2121 2241 1766 1973 1950 1635 1409 1396 1950 2171 1723 1131 1749 2037 1900 1358 551 65 0 0 0 0 0 0 0 0 0
3990 3306 3733 3274 3062 3062 3650 3645 3077 3174 3116 3141 3463 3570 3235 3060 3103 2994 2757 1960 1818 2187 1759 1583 2207 1840 2884 2909 2343 2276 2524 2128 1801 930 81 0 0 0 0 0 0 0 0
2608 3728 3292 3877 2998 3074 3135 3235 3240 2037 3053 3151 3465 3228 3516 3302 3996 3608 3090 3100 3315 3556 2733 2294 2247 1777 1766 1937 2812 3230 2965 1936 1594 1748 1265 38 0 0 0 0 0 0 0
3151 2567 3370 3047 3292 2801 2820 2963 3249 2963 2864 3336 3277 3414 3237 3513 3689 3664 3726 2929 2418 2672 2416 2319 2163 2843 2847 2705 2289 2853 3321 2828 2462 2131 1862 801 82 0 0 0 0 0 0
2269 2679 2769 3190 3068 2793 2480 2555 3251 3180 3006 2795 3297 2949 3414 3592 3564 3932 3558 3471 3438 3442 3009 3009 2449 2251 2411 2577 3249 2806 2457 2478 2070 2655 2405 1889 1688 695 1 0 0 0 0
2489 2755 2854 3078 3133 2974 2460 2315 2561 3062 3181 3052 2903 3206 3151 3281 2944 3429 3376 3658 3649 3620 3324 3171 2954 2985 2472 2384 2492 2509 2859 2946 2734 2815 2660 3324 3548 3336 3362 2142 0 0 0
2438 2815 2966 3054 3209 2930 2164 1509 2007 2335 3209 3096 3020 2966 3480 2229 2069 1985 1679 1967 2465 3312 3154 3415 3349 3061 2766 2802 2936 2588 2704 2790 2625 2772 4110 3284 3352 3570 3471 3403 3244 1949 349
2731 2795 2941 3109 3215 3222 2038 901 949 2127 2382 2856 3081 3004 3043 2476 2378 2986 2003 1007 1045 1271 1199 2278 2554 2610 2568 2499 2731 3242 3165 3221 3251 3070 3135 3504 3468 3632 3526 3582 1480 1595 1456
2717 2958 3006 3074 3204 3247 2775 953 80 1514 2166 2551 2654 2885 3159 2883 2698 3179 3128 3134 2705 2538 2170 1387 1542 2182 2517 2833 3297 3367 3387 3406 2673 2921 3616 3456 3272 3415 3512 2564 2013 1877 1612
2945 2952 3081 3206 3214 3237 2614 1852 16 921 1625 1980 2080 2596 3255 3106 2706 2409 2161 2592 2907 3229 3102 2785 3027 3058 2533 2303 2358 2358 2400 1714 2333 3313 3671 3271 3333 3175 2478 1935 2166 1521 857
2938 3050 3044 3185 3230 3415 2896 951 98 1767 1631 1847 2207 2449 1984 1777 2052 1942 2026 2899 2806 2755 2867 3028 3109 2750 1136 828 726 19 1453 2646 3558 3387 3792 2985 2813 2248 2217 2294 847 1036 980

GFSMA_con_sbcape_063.txt.gz
CAPE
45 102 493 234 277 566 571 178 568 461 53 191 382 241 126 258 614 979 1233 2044 2223 1837 1476 1563 1257 1410 1069 796 663 581 611 809 747 707 266 216 605 788 759 741 761 933 880
247 382 274 365 193 66 264 111 585 852 501 387 108 271 37 21 203 579 864 1426 2215 2106 1585 965 1086 906 633 486 829 907 297 244 183 145 172 592 865 692 628 782 703 638 614
25 703 732 420 253 505 1068 247 686 232 243 296 179 351 494 153 50 207 337 491 1047 1900 1552 928 1014 892 497 533 375 311 383 559 604 626 773 897 733 739 681 536 498 427 485
401 457 59 309 352 756 215 57 399 135 523 303 440 411 504 670 547 277 295 379 410 397 1264 1396 1295 1181 639 700 961 1001 903 1279 911 896 892 728 608 714 578 383 363 419 153
405 35 0 168 943 49 131 272 150 280 71 77 86 112 128 600 680 479 711 771 478 505 474 1344 1476 1391 773 876 914 906 878 1050 1055 1200 1171 927 704 465 353 340 351 150 0
637 522 232 0 270 191 193 1078 83 99 126 61 174 175 143 205 317 384 727 1104 821 500 471 616 1145 1266 1755 1258 1380 1444 1224 1336 1170 937 724 511 377 344 350 331 119 0 0
1436 580 1029 1016 305 6 72 1077 349 501 63 66 51 172 137 106 160 177 164 471 755 770 700 364 701 572 708 1644 1615 1538 1081 868 860 752 547 350 340 377 378 200 26 0 0
1449 1048 598 1178 757 93 363 284 58 51 591 30 141 180 104 3 84 10 149 104 72 691 912 758 609 441 292 439 914 1459 1466 1092 602 637 531 346 292 275 226 91 0 0 0
1317 1594 1019 1055 284 1031 910 629 411 996 580 279 43 155 126 73 283 151 17 31 4 395 317 324 908 615 632 343 776 1164 1239 591 908 634 455 277 334 270 102 31 0 0 0
1332 1390 1580 1252 927 363 1074 792 1067 819 109 132 314 33 173 110 105 80 166 275 37 264 160 233 265 136 278 546 1238 848 876 517 652 1151 670 420 347 155 22 3 0 0 0
1633 1396 1410 1676 1244 634 907 1094 904 1116 1085 1210 619 197 102 30 160 125 110 424 213 105 208 426 255 264 242 505 197 401 691 488 389 1105 1146 953 571 62 0 0 0 0 0
1626 2011 1304 1528 1166 1244 1082 1201 1576 1164 1019 1546 1390 991 58 55 169 159 291 185 104 161 381 377 215 412 367 349 661 803 1030 392 286 606 696 795 764 471 36 0 0 0 0
1729 1881 1453 1721 1727 1201 1411 1383 1398 1847 1463 1617 1741 1196 892 668 14 576 290 383 249 196 136 260 438 147 425 530 583 951 1011 285 161 148 172 247 392 419 404 320 265 240 165
1220 1348 1537 1512 1580 1887 1369 1531 1292 1700 1336 1903 1241 1728 1236 743 767 45 84 193 193 366 730 262 528 350 234 479 658 1013 486 214 0 0 3 17 18 75 111 127 146 171 234
1016 1363 2014 1534 1567 1757 1647 1527 1372 1849 1683 1747 1588 1512 1765 1055 718 667 82 218 290 301 300 827 1084 796 451 461 597 919 379 285 4 0 0 0 0 0 0 0 0 0 3
1227 1347 2097 1585 1937 1751 1445 1597 1104 1513 1493 1144 1065 1765 1349 1204 831 1590 808 555 640 284 346 390 450 813 1252 958 953 971 482 492 559 88 0 0 0 0 0 0 0 0 0
1360 1984 1883 2132 2062 1850 2015 1900 1290 1715 1444 1270 1374 1650 1597 1498 1076 1495 2362 1815 952 729 639 417 928 930 961 965 776 999 812 970 841 793 333 18 0 0 0 0 0 0 0
870 1844 2041 2031 1881 1804 2101 2046 1802 1563 1729 1768 1670 1795 2028 1974 1731 1611 1991 1857 1811 1845 1506 983 726 720 937 1158 1105 1113 1489 1979 1591 1405 1263 685 38 0 0 0 0 0 0
556 1900 1784 1869 1824 1760 1702 1991 2079 1829 1607 1839 1883 2169 1834 1911 2161 2514 2336 1979 1772 1544 1918 1547 1531 1556 2022 1850 1694 1394 1687 2007 2149 2090 1820 1600 1007 210 0 0 0 0 0
1862 1080 2035 1662 1976 1509 1638 1801 1898 2068 1975 1768 2230 2032 2094 2108 1974 2093 2345 2400 2244 2267 2086 2036 1998 1802 1704 1949 1898 2051 1846 1486 1978 2197 1919 1936 2013 2812 2754 1823 472 0 0
751 1744 1380 2134 1812 1983 1708 1529 1788 2138 2125 1999 1769 1984 2072 2099 2472 2546 2639 2632 2683 2588 2551 2542 2436 2354 2223 1918 2038 2131 1986 1590 1664 1878 1872 1920 2857 2692 2950 2934 2625 1202 564
1303 829 1384 1613 2111 2096 2026 1653 1415 1922 2237 2166 2127 2035 2174 2211 2128 2191 2012 2445 2816 2750 2846 2798 2482 2424 2114 1915 1904 1853 1706 2030 2294 2015 2842 2639 2383 3051 3093 2975 2177 1162 122
718 1523 1344 1510 1741 2082 2027 1460 1023 1325 1416 2205 2181 2112 2118 2214 2141 2051 1876 1218 687 504 973 1804 1797 1762 1825 1875 1851 1861 1965 2313 2478 2468 2490 2414 2826 2825 2671 2989 2179 1084 328
633 733 1365 1732 1883 1951 2175 891 580 951 1300 1435 2153 2145 2109 2058 1892 1726 1833 2006 1769 1151 814 482 614 1401 1643 1863 1952 2067 2156 2452 2662 2415 1656 2806 3029 2654 2718 2081 1338 376 0
1414 1152 1499 1719 1978 2072 1982 1347 1 299 999 1357 1533 1665 2040 2180 2116 2161 1564 2010 2418 2637 2750 1984 1811 1538 1414 1365 1400 1601 2140 2337 2276 1709 2694 3100 2624 2524 2028 1477 512 193 0
1398 1742 1515 1856 1993 2071 2019 1098 23 852 475 880 1191 1345 1788 1990 1932 1872 1407 1615 1441 1362 1471 1723 1604 1034 557 626 789 204 1630 1673 1452 2878 2851 2783 2382 1831 1866 1191 487 3 0

GFSMA_con_sbcape_066.txt.gz
CAPE
0 205 299 202 226 412 154 4 47 319 336 115 290 421 627 652 835 1131 1257 1616 1936 1876 1457 1412 1317 1318 1155 977 728 515 562 760 617 537 161 337 820 675 613 718 629 857 680
0 231 79 129 90 78 251 56 82 492 341 224 49 49 145 447 789 929 896 1349 2190 2049 1455 1287 1073 1116 821 567 1066 823 375 259 137 126 174 595 833 730 713 712 614 519 528
100 380 4 85 40 5 191 25 123 462 226 63 195 0 0 4 271 613 716 836 1634 1777 1581 985 971 835 612 559 426 240 231 490 701 817 845 833 797 718 758 512 425 375 337
19 257 88 178 233 475 121 31 205 111 103 108 157 180 50 4 0 182 247 351 528 1041 1731 1568 1373 933 632 594 690 953 1061 962 1010 619 763 807 653 748 627 405 332 340 5
339 0 1 0 376 119 9 9 126 97 82 87 63 138 173 394 86 109 117 144 129 239 233 1090 1545 1481 728 731 935 983 926 962 1164 1028 982 868 731 437 347 286 281 106 0
28 40 0 14 10 19 99 359 19 27 29 35 66 63 21 173 313 222 338 404 303 389 176 221 822 887 1448 1108 1281 1132 1199 1302 1325 1059 849 639 414 310 326 298 129 2 0
580 427 391 366 79 24 120 91 38 160 36 22 5 38 33 39 113 157 311 478 687 615 334 315 427 632 692 1822 1800 1707 1198 1036 1009 860 833 613 293 326 334 300 98 0 0
780 421 559 543 99 2 375 51 22 70 158 14 17 12 3 0 0 25 41 181 300 726 588 490 366 347 257 300 707 1585 1686 1231 824 718 690 639 282 257 266 238 75 0 0
1072 596 675 598 113 42 204 90 128 242 68 39 4 92 34 0 17 0 0 0 41 159 579 636 661 456 282 200 333 1028 1500 1095 1016 626 627 841 587 299 170 164 54 0 0
968 1141 803 441 219 168 466 360 833 111 17 35 42 5 14 0 0 0 0 31 0 126 168 58 453 685 433 518 445 746 965 947 762 880 897 931 818 268 85 100 36 0 0
823 968 1122 776 325 126 366 488 475 739 469 580 224 249 7 1 21 10 43 128 33 0 0 0 0 73 6 401 412 708 1042 706 586 577 905 1349 1156 455 70 35 69 30 0
958 930 919 966 551 286 529 709 701 605 588 848 637 495 28 18 14 107 12 17 50 3 11 1 34 27 29 13 406 815 820 684 461 293 280 770 1040 1051 350 80 37 2 0
1109 1230 833 1007 624 629 656 715 995 1159 547 929 1005 527 332 244 0 105 4 110 55 35 19 50 104 7 104 63 105 1008 1086 710 493 164 43 175 331 542 723 720 382 319 293
1150 1187 960 977 1113 730 944 789 745 955 908 1114 1058 985 786 253 281 0 0 0 20 27 124 374 119 68 0 125 209 603 685 504 421 211 3 0 12 53 102 171 244 342 254
791 1004 1070 968 1047 1226 727 926 920 962 1259 940 1282 705 1074 834 183 168 92 0 0 49 38 103 489 399 343 37 162 333 622 496 298 167 2 0 0 0 0 0 13 1 0
765 819 1505 1094 959 1112 1038 816 743 882 1193 846 884 984 812 727 349 541 1148 120 61 0 159 19 78 211 942 593 589 700 509 299 227 123 12 0 0 0 0 0 0 0 0
561 783 1411 1220 1084 1156 888 1107 683 614 1075 977 628 630 1096 893 839 586 1096 1366 1027 191 239 110 64 636 695 430 604 419 618 688 627 662 404 149 0 0 0 0 0 0 0
522 1071 1314 1484 1294 1281 1220 1175 1042 997 1134 1071 889 907 1321 1556 1450 1029 1078 1363 1182 875 767 1013 207 560 812 1265 1295 1306 1471 1661 1632 1714 1641 1028 487 70 0 0 0 0 0
330 1414 1398 1613 1567 1467 1379 1388 1364 1068 967 1201 1243 1079 1166 1283 1599 1399 1335 1655 1376 1381 1101 1049 1529 920 1425 1292 1312 1106 1285 1507 1592 1667 1604 1534 1485 1009 1191 1252 896 56 0
64 822 1463 1443 1361 1473 1438 1510 1466 1356 1158 1042 1220 1250 1420 1386 1238 1487 1626 1692 1722 1746 1544 1393 1280 1301 1333 1547 1300 1701 1676 1032 1329 1191 1411 1493 1627 2451 2204 2485 2582 1990 255
276 243 988 1409 1455 1360 1275 1154 1310 1362 1369 1287 1257 1370 1555 1551 1544 1328 1428 1579 1752 1775 1800 1921 1890 1779 1977 2219 2065 1636 1499 1295 1108 1250 1523 1693 2283 2029 2268 2705 2343 28 0
178 477 856 1123 1240 1520 1330 1131 1203 1368 1396 1348 1302 1256 1267 1517 1517 1591 1646 2099 2018 2057 2082 2071 2141 2309 2181 1579 1323 1274 1264 1275 1733 1455 2038 2180 2223 2032 2559 2308 260 0 0
0 280 553 1095 1329 1386 1360 830 697 1047 1405 1484 1463 1460 1440 1718 1648 1578 1339 607 495 1448 2164 2123 2076 1848 1567 1486 1363 1393 1447 1288 1601 1866 2108 2541 1642 2246 2252 2014 0 0 0
82 0 549 493 1009 1313 1646 656 329 857 872 1150 1578 1723 1655 1656 1499 1457 1514 1579 1453 1069 346 44 430 1035 1160 1287 1344 1597 1636 1552 1823 2223 2241 1731 2331 2540 2165 642 0 0 0
682 154 353 1035 817 766 850 813 47 813 1048 916 911 1101 1526 1564 1593 1315 1306 1333 1369 1477 1733 1344 703 576 675 748 673 952 1536 1689 1911 1842 1354 2303 2377 2060 1464 826 0 0 0
1066 867 506 447 1134 1343 1213 315 1 1109 1182 1052 864 949 924 1433 1581 1289 897 1359 1347 1407 1056 954 1045 431 52 295 342 103 1368 1693 1621 1620 2244 2743 2066 1592 1836 651 0 0 0

GFSMA_con_sbcape_069.txt.gz
CAPE
36 118 334 444 215 367 224 36 56 252 161 217 269 213 442 516 718 954 1165 1443 2086 1492 1221 1269 1170 1165 1092 939 751 403 468 605 411 306 134 254 800 760 730 733 746 634 590
11 209 187 125 128 62 350 78 56 233 434 282 144 259 458 495 729 897 881 1013 1521 1650 1442 1432 1148 1309 868 516 896 765 437 263 99 176 297 686 914 729 772 715 552 420 345
6 133 19 23 26 19 244 88 25 351 505 117 95 70 142 343 607 740 743 790 1217 1612 1423 1062 991 940 713 503 465 356 272 457 791 994 903 785 759 644 741 548 317 329 13
115 322 0 39 89 141 156 143 25 214 111 46 49 2 0 38 181 368 367 439 638 1121 1547 1663 1385 892 592 560 611 751 993 1038 944 828 721 858 828 706 498 373 269 219 0
119 257 39 67 110 215 214 23 109 28 56 75 104 99 29 13 0 11 111 98 117 266 142 668 1790 1495 716 726 782 977 1034 1082 1148 948 1019 846 680 373 253 226 210 60 0
261 2 0 52 54 29 40 45 20 18 10 29 82 90 44 125 210 28 41 50 37 34 32 26 98 762 1195 949 1227 1217 1023 1172 1500 1250 1048 753 501 240 250 234 129 11 0
56 0 0 39 0 5 101 54 17 41 4 0 5 0 0 0 60 172 102 218 354 355 297 212 73 232 397 1022 1795 1589 1266 1035 955 1143 1253 1022 456 195 239 246 142 10 0
523 270 289 468 0 12 35 28 15 75 16 0 4 0 0 0 0 4 3 76 276 420 537 427 321 324 269 197 317 1009 1704 1402 781 816 1155 1209 729 399 383 379 224 31 0
650 564 417 480 145 2 26 0 31 40 16 8 0 16 17 0 0 0 0 0 6 15 292 477 477 392 220 107 288 489 1405 1418 1032 647 1027 1272 1145 721 361 389 231 42 0
953 568 553 289 113 38 160 254 348 45 4 19 6 0 0 0 0 0 0 0 0 0 0 74 341 504 551 360 429 682 715 894 1183 930 811 1259 1354 1129 423 337 326 64 0
804 1022 667 375 205 48 105 234 362 285 162 101 56 83 0 0 0 0 0 0 0 0 0 14 26 41 198 247 299 293 803 985 970 1022 930 958 1279 1375 573 349 424 370 127
833 626 848 641 338 69 203 247 235 457 510 570 203 180 28 0 0 16 0 0 0 0 0 0 1 3 3 8 101 712 958 948 896 777 624 588 628 1097 750 757 430 514 598
896 856 686 786 455 262 209 383 618 491 298 685 620 142 84 39 0 0 0 6 2 0 0 0 2 0 3 19 20 369 732 716 602 442 306 242 284 402 630 937 1166 851 919
990 885 750 627 697 386 481 416 566 808 763 597 717 787 446 75 78 0 0 0 0 0 0 292 68 17 0 0 39 338 249 265 289 260 181 87 18 17 98 309 464 461 609
889 793 944 721 800 730 598 612 635 599 776 615 847 628 529 502 53 1 5 0 0 0 0 0 177 87 339 70 11 49 77 217 315 270 75 3 0 0 0 0 0 9 30
493 701 1030 785 816 879 777 540 688 664 793 778 795 935 557 361 192 31 559 0 0 0 58 0 0 0 344 580 343 496 621 571 627 505 345 181 29 0 0 0 0 0 0
393 537 977 1051 914 860 904 778 538 537 789 876 478 488 552 514 602 283 473 848 469 9 202 154 0 325 412 405 926 765 873 1029 979 1369 1437 1036 650 211 18 0 0 0 0
159 487 570 1145 1018 908 826 819 866 869 557 731 862 476 573 770 963 734 572 872 844 424 424 736 140 500 729 1018 1063 1315 1351 1213 1223 1396 1232 966 1020 970 815 674 49 0 0
11 229 609 972 1015 970 950 818 840 848 779 825 978 845 712 755 1066 1055 818 901 1128 1074 681 726 1436 741 984 905 1270 1286 1304 1388 1042 1164 1155 1242 1346 1390 1522 421 0 0 0
0 65 810 957 1144 1072 1045 1066 1075 1035 932 872 881 978 1088 1065 1004 1029 1073 1282 1337 1360 1277 1171 1025 951 935 1222 1063 1488 1824 1115 1056 1075 1150 1287 1387 1971 1947 324 0 0 0
7 0 237 1016 1000 1142 1194 1117 1181 1189 1172 1075 919 926 1044 1147 1281 1270 1188 1062 1079 1169 1235 1325 1368 1306 1448 1623 1890 1270 1210 1048 1092 939 1248 1607 1778 1992 1694 59 0 0 0
0 0 0 205 838 1158 1160 1154 1216 1294 1234 1122 1082 923 994 1293 1137 1135 957 983 1504 1541 1537 1471 1647 1746 1716 1585 1226 1095 867 989 1546 826 1535 1904 2034 1928 1730 0 0 0 0
0 0 6 84 275 683 1127 832 371 1028 997 1006 983 975 911 1201 1097 1153 1062 463 262 424 1085 1687 1763 1680 1723 1478 1043 897 861 930 1078 1339 1740 2219 1351 1689 1004 0 0 0 0
0 0 0 0 161 351 626 516 133 630 957 969 995 1021 993 1057 1110 1193 1242 1245 1042 839 430 203 662 1532 1442 1307 850 1087 1045 1053 1122 1469 1793 2304 1388 2275 120 0 0 0 0
6 0 0 0 0 63 337 129 0 470 782 825 832 924 1114 1238 1300 1176 1158 1211 1160 1160 1125 851 448 506 415 495 75 570 860 1040 1354 1605 1056 1478 1934 2035 935 6 0 0 0
499 295 128 0 0 103 94 0 0 730 858 973 1017 836 675 896 1167 995 555 1157 1126 1299 1242 1081 787 310 47 17 7 9 763 1257 1354 1294 1391 2015 1972 1386 1524 160 0 0 0

GFSMA_con_sbcape_072.txt.gz
CAPE
179 182 325 482 337 539 385 162 419 508 469 556 506 590 658 725 874 1179 1503 1516 1646 1204 1241 1240 984 1070 989 881 732 385 400 412 327 146 135 306 812 793 856 845 634 417 190
46 217 375 369 361 201 448 261 322 406 736 454 587 504 646 717 940 1098 1254 1314 1521 1720 1401 1358 1138 1198 961 583 587 928 612 240 164 419 722 894 802 755 687 607 371 298 6
57 226 200 171 156 145 407 388 238 541 579 329 414 451 598 649 829 1008 1046 1155 1298 1511 1521 1318 1005 994 827 601 498 518 411 531 952 1026 790 682 786 671 656 478 257 226 0
81 219 163 126 154 248 367 493 205 557 361 280 276 151 202 309 603 773 742 735 858 1237 1458 1772 1447 990 745 590 650 736 973 1086 1011 890 788 958 851 657 334 279 218 105 0
220 162 59 170 324 518 380 144 272 260 297 326 342 273 178 146 133 129 318 397 402 677 497 487 1116 1521 878 824 883 904 1026 1380 1583 1326 1087 959 672 377 195 199 174 35 0
153 119 77 213 435 222 112 74 156 59 189 252 292 451 319 361 375 197 96 114 112 183 194 191 230 304 954 1044 1066 1247 1322 1161 1516 1482 1560 1188 697 347 144 207 152 23 0
305 0 23 157 83 108 136 175 47 180 132 21 205 237 173 116 169 403 381 312 399 515 517 542 523 457 474 692 1043 1280 1269 1315 1188 1284 1451 1402 935 491 273 231 186 30 0
76 35 20 443 29 91 138 85 57 217 92 7 127 24 166 20 0 0 112 258 363 514 789 877 829 799 731 695 568 812 1221 1301 1274 935 1217 1407 1403 958 520 327 301 96 11
584 216 365 461 5 37 56 24 47 119 84 28 20 188 189 78 0 0 0 0 67 136 289 590 869 904 866 727 594 587 976 1065 1322 1349 1109 1297 1416 1359 990 554 387 299 113
783 765 240 298 180 32 150 101 308 117 22 75 99 11 11 7 84 177 0 1 9 24 79 159 398 686 926 899 806 1014 910 863 985 1175 1395 1404 1216 1498 1648 1211 668 443 258
765 699 507 338 289 150 274 545 582 320 262 74 172 329 30 7 0 7 159 106 119 131 115 166 362 441 476 564 583 569 593 741 869 1187 1356 1606 1493 1293 1355 1622 1409 979 821
762 722 830 717 375 286 349 348 446 593 783 743 362 425 268 81 77 153 77 85 69 339 72 133 190 250 270 269 290 535 732 818 772 769 853 1025 1211 1197 1037 1293 1694 1491 1340
660 799 724 843 326 353 372 479 554 622 529 849 1008 566 260 238 0 46 46 187 242 269 381 354 241 273 233 343 314 336 571 351 228 162 135 200 387 615 794 1028 1096 1245 1515
651 814 793 691 795 318 406 551 582 869 886 637 938 1098 835 411 297 44 20 111 391 119 129 626 692 578 648 591 368 477 667 139 52 53 37 9 5 10 86 229 342 476 625
705 950 915 749 772 614 593 616 670 827 929 859 1049 1023 813 990 347 162 359 0 232 531 477 493 793 512 868 1101 849 1036 1057 758 428 537 736 629 212 0 0 0 0 0 12
457 912 980 943 865 796 869 797 823 761 828 968 943 1060 981 730 670 255 788 219 55 178 688 128 485 286 836 1103 1193 1705 1486 765 1042 1253 1075 564 182 244 291 8 0 0 0
403 617 988 1126 930 752 931 561 698 829 930 1046 882 902 986 743 821 644 608 1094 828 234 962 1150 152 823 1168 1687 2185 1879 1994 2126 2137 1438 976 612 522 801 178 217 37 0 0
327 538 668 1095 1156 1058 929 1162 1076 1065 842 883 1048 967 945 797 1051 1073 926 1135 1213 941 1048 1392 1110 1259 1655 1784 1847 2247 2262 2183 2029 1481 979 926 1029 1031 300 7 0 0 0
178 327 612 817 1152 1193 1111 1095 1164 1144 1071 986 1023 1063 1176 998 1222 1322 1382 1328 1280 1449 1231 1297 1774 1501 1601 1559 2115 2290 2381 2498 1663 1316 1413 1222 1356 1193 125 0 0 0 0
99 94 371 651 978 1151 1168 1191 1119 1142 1109 1090 1130 1214 1335 1258 1379 1472 1341 1549 1597 1748 1784 1694 1660 1642 1630 1910 1789 1957 2511 2394 1775 1742 1624 1389 1454 1419 0 0 0 0 0
21 85 206 597 907 1195 1149 1224 1236 1252 1237 1225 1263 1210 1201 1179 975 1250 1558 1844 1613 1572 1605 1756 2048 1854 2161 2218 2440 2211 1882 1690 1911 1640 2037 2424 2442 2627 1123 0 0 0 0
36 0 36 323 781 950 1114 993 1031 1321 1359 1413 1422 1368 1415 961 903 683 567 699 1354 1982 2102 2049 2347 2086 2387 2025 2138 1896 1657 1822 1965 1663 2017 2497 2569 2499 1022 0 0 0 0
0 4 0 28 255 657 685 718 477 1337 1383 1386 1448 1500 1281 1218 959 1414 978 400 29 32 679 2175 2223 2308 2306 2416 2101 2069 1688 1311 1624 1813 1927 2269 2450 2268 84 0 0 0 0
0 0 0 10 54 140 192 39 113 831 1247 1273 1250 1220 1273 1345 1232 1273 1391 1488 1528 1416 918 507 929 1750 2206 2241 2054 1977 1644 1346 1507 1770 1827 2359 2420 2286 18 0 0 0 0
0 0 0 0 1 34 0 0 0 538 794 1095 1156 1216 1213 1211 970 500 1336 1545 1677 1699 1295 795 656 773 610 529 395 892 1215 1310 1805 1847 1979 2193 2200 2648 912 68 0 0 0
381 116 28 8 0 0 0 0 0 276 330 497 877 1009 516 931 909 392 790 1473 1531 1606 1628 1656 1166 144 48 71 0 111 1030 1453 1974 1890 2124 2141 3017 2240 2530 909 3 0 0

GFSMA_con_sbcape_075.txt.gz
CAPE
1171 1185 1222 1140 1248 1386 1191 1105 1333 1413 1633 1461 1449 1581 1464 1007 736 817 1099 1609 1575 1338 1280 1263 1034 1125 954 940 700 576 447 348 231 208 427 690 920 863 676 589 413 338 2
1052 961 1137 1237 1321 1273 1209 1161 1437 1470 1725 1361 1540 1525 1272 832 817 909 810 1110 1438 1833 1570 1494 1303 1082 1172 730 495 568 695 438 496 871 1161 748 815 771 673 559 309 244 0
891 1295 1325 1368 1244 1335 1585 1586 1339 1573 1246 1394 1481 1338 1220 1062 634 796 749 893 1052 1446 1587 1519 1185 1023 965 760 653 694 729 872 1187 1015 879 775 877 775 633 460 250 184 0
908 1266 1148 1101 1109 1296 1428 1480 1330 1454 1198 1202 1334 1162 1134 831 754 790 772 815 703 904 1228 1742 1869 1440 985 796 793 870 931 1117 1198 1170 1094 984 859 640 376 290 222 125 0
1107 1192 1240 1005 1418 1464 1404 1043 1456 1470 1218 1203 1017 1106 999 919 917 543 798 833 874 925 860 554 793 1029 1227 1032 1051 1124 1183 1386 1435 1265 1395 1251 961 581 278 232 235 68 0
1189 1250 995 1295 1505 1346 1313 862 1495 1230 1158 1160 894 1106 1360 1323 1367 1318 1223 962 984 1050 1060 1234 1225 932 629 960 1170 1223 1249 1386 1725 1676 1682 1546 1111 713 292 201 243 129 0
1119 1215 1155 1353 1438 1424 1323 1265 1210 1457 1118 1162 1152 936 1117 1287 1221 1222 1314 1362 1286 1248 1317 1526 1745 1478 1275 964 1003 1148 1182 1330 1360 1674 1623 1672 1627 1122 667 380 313 248 49
1510 1093 924 1325 1228 1198 1528 1554 1238 994 962 856 895 929 658 522 463 501 742 1020 1317 1261 1192 1368 1646 1843 1891 1593 1367 1052 1189 1368 1535 1479 1948 1590 1712 1668 1257 697 508 451 387
1591 1565 1185 1570 1331 1266 1191 1353 1121 1496 958 852 884 860 733 541 805 593 870 715 986 994 1102 1201 1316 1595 1837 1750 1667 1470 1275 976 1018 1416 1814 2213 1748 1615 1646 1352 772 503 434
1766 1726 1695 1727 1518 1006 1201 895 1176 1218 1032 931 848 639 953 926 638 583 785 606 832 836 1055 1137 1021 1243 1560 1557 1469 1589 1219 1028 1171 1288 1524 2088 2324 2010 1699 1726 1555 1001 568
1835 1872 1852 1861 1850 1528 1644 1847 1810 1566 1069 698 620 1250 1195 747 735 875 856 965 1014 1038 1124 1131 1118 1229 1377 1494 1421 1267 1021 840 837 1100 1237 1461 1740 1772 2166 2216 1988 1930 1759
2027 2092 2014 2062 1712 1613 1518 1664 2083 1955 2037 1855 1425 1661 1473 925 780 1048 1044 1299 1277 1218 1172 1164 1393 1305 1322 1388 1270 890 961 792 667 660 611 677 706 947 1224 1466 1680 1980 2219
1582 2046 2237 2452 2421 1933 1800 1785 1949 2032 2004 1716 2324 1598 1562 1542 1160 1202 911 1008 1086 1301 1298 1553 1662 1782 1622 1917 1683 622 1059 537 241 110 176 180 358 516 619 788 970 1069 1249
1534 1955 2330 2175 2202 1989 1807 1850 1804 1764 1966 1855 2097 2570 1814 1667 1485 1411 1700 1181 818 904 1129 1648 1647 1461 1862 2133 1772 1413 2295 1885 849 738 521 391 315 174 247 358 384 383 415
1285 1884 2004 2276 2182 2197 2126 2041 1652 2325 2459 2237 2176 2189 2086 1866 1717 1404 1515 1539 1297 1016 972 1173 1133 1660 2004 2193 2220 2683 2687 2010 1378 1165 927 607 186 127 157 109 65 40 44
1746 1635 2067 2193 2310 2321 2252 2245 1879 1942 2190 2085 1897 2322 2322 1764 1806 1585 1337 1449 1532 1677 1255 1494 1617 1983 2413 2551 2154 2849 2793 2324 2290 1980 1312 380 139 198 423 332 14 0 0
1980 2034 2121 2128 2261 2334 2412 2477 2355 2104 2237 2338 2202 2305 2313 2471 1711 1643 1555 1699 1904 1731 1503 1192 1975 2193 2789 3099 2953 3144 2520 2447 2284 1852 1300 583 435 296 380 1 0 0 0
1819 2073 2195 2270 2295 2328 2403 2446 2350 1953 2195 2026 2054 2266 2136 1915 2356 2361 2158 2333 2064 2343 2178 2246 2463 2306 2692 2888 3187 3363 2835 2190 2964 1838 1523 1339 1075 419 36 0 0 0 0
1563 1573 1919 2180 2326 2351 2409 2450 2519 2428 2393 2251 1982 2112 2141 2305 2488 2083 2454 2295 2180 2460 2590 2613 2474 2412 2538 2590 2768 2803 2916 3023 2394 1729 1755 1670 1788 682 0 0 0 0 0
1329 1410 1658 1878 2099 2397 2464 2435 2422 2517 2539 2387 2291 2167 2152 2227 2365 2644 2668 2733 2581 2644 2501 2713 2225 2155 2349 2467 2657 2120 2088 2128 2549 2423 2221 1988 1783 247 0 0 0 0 0
1070 1172 1341 1473 1708 1750 1751 2190 2360 2491 2538 2444 2348 2334 2225 2010 1748 1887 2005 2356 2541 2544 2305 2349 2206 2048 1953 1850 2052 1951 1914 2188 2643 2618 2612 1881 2131 3024 1250 0 0 0 0
1079 1124 1026 1372 1408 1161 674 744 1568 2187 2383 2422 2498 2496 2426 1483 1191 821 646 917 1451 2533 2438 2058 1583 1819 2778 2447 1766 1973 1945 2114 1883 1768 2634 2044 2251 3121 3252 1313 0 0 0
1146 1169 1027 1024 1482 1708 819 213 402 1499 2041 2381 2521 2544 2393 1860 1805 2327 794 65 86 62 528 2399 2454 2350 2727 2372 2588 2790 2452 2415 2359 1947 2572 2180 2262 3043 3012 112 0 0 0
1086 1043 984 1178 1311 1256 578 56 2 1304 2112 2315 2414 2356 2566 2639 2397 2229 2352 2256 2275 2255 1802 1199 1655 2149 2439 2567 2882 2956 2788 2715 2388 2128 2716 2418 2186 2995 2990 1008 0 0 0
845 799 841 984 1226 1383 234 1 0 936 1132 2172 2382 2290 2570 2505 2230 1383 1972 2161 2283 2265 1497 1326 1166 1276 1413 1051 1130 1901 2012 1886 1555 1327 1719 2313 2363 3038 3368 2847 192 0 0
1118 960 839 860 552 1087 551 0 0 378 994 861 1582 2053 1231 1494 1595 751 1424 1893 2236 2098 1707 1459 1650 790 141 772 0 710 1896 1933 1602 1434 1573 2229 1908 2599 2731 2790 1616 111 10

GFSMA_con_sbcape_078.txt.gz
CAPE
1075 1084 1369 1274 1409 1435 1389 1528 1732 1998 1975 1714 1625 1491 935 411 479 653 1044 1213 1478 1272 1187 1139 963 1086 842 893 598 810 776 739 440 660 1115 1118 842 872 680 785 380 311 0
1005 1193 1362 1349 1476 1374 1432 1573 1897 1833 1519 1689 1718 1564 1145 899 979 1075 1192 1315 1389 1713 1518 1425 1373 965 985 880 719 682 754 707 880 1281 1002 918 925 895 745 604 349 221 0
1493 1367 1245 1316 1446 1725 1834 1776 1556 1558 1261 1240 1579 1456 1234 1007 1066 1115 914 996 1332 1089 1450 1494 1250 1019 973 894 837 829 926 1058 1256 1186 1140 1000 986 817 679 409 331 156 1
1679 1588 1248 1137 1399 1442 1496 1391 1413 1105 1065 1019 1056 945 965 922 1109 1102 968 959 801 766 1271 1434 1783 1733 1335 1047 1019 1098 1110 1122 1267 1222 1336 1379 1093 788 508 287 299 188 20
1774 1662 1394 1311 1648 1422 1180 1156 1258 1108 1015 873 811 900 944 980 1085 842 1127 1190 1018 878 758 1269 845 985 1051 1200 1242 1238 1270 1434 1525 1374 1283 1244 1269 997 626 270 262 271 61
1900 1649 1260 1548 1798 1289 1030 1218 1440 1280 1026 950 622 660 638 712 941 894 946 921 1035 1245 1091 1340 1362 1009 1203 932 1056 1261 1343 1523 1667 1760 1926 1912 1646 1234 899 530 261 305 222
1733 1893 1332 1784 1750 1369 1680 1544 1575 1523 640 956 428 369 316 559 575 554 635 671 941 1030 1136 1320 1649 1268 1214 1648 1458 1383 1369 1367 1612 1814 2197 2226 1884 1934 1711 1231 586 288 504
2080 1712 1510 1539 1718 1291 1786 1778 1660 748 404 708 773 664 225 479 346 268 320 436 646 734 794 1006 1269 1544 1711 1367 1413 1507 1588 1538 1583 1701 2242 2402 2350 1896 1845 1637 1117 543 487
1819 1903 1648 1500 1964 1938 1088 1999 1612 1656 481 1082 1518 1198 930 382 635 434 791 366 774 572 754 984 1057 1371 1790 1658 1621 1594 1976 1293 1323 1560 1808 2382 2447 2440 2128 1781 1532 1197 794
1724 1729 1858 1995 2150 1325 1508 1681 1344 1677 1877 567 866 621 1424 1448 749 540 588 447 483 483 763 783 855 1088 1450 1432 1192 1440 1434 1271 1257 1121 1261 1525 1968 2131 2309 2436 2227 1772 1511
1477 1561 1804 2019 2145 1804 2176 1681 1757 1996 1089 831 347 562 1197 859 1451 1146 469 251 341 481 794 962 954 998 1408 1754 1787 1412 1037 879 852 1093 1207 1176 1391 1589 1826 2203 2364 2356 2362
1757 1886 1523 1805 2006 1688 2190 1925 1630 2056 2029 1879 1093 906 576 669 868 1015 785 834 760 973 1108 1188 1204 1465 1712 1868 1655 1182 1099 991 794 585 470 701 1016 1233 1503 1802 1906 1938 2026
1458 2401 2203 1703 1682 2115 2161 2025 2443 1855 1734 1104 1748 1114 850 969 1296 1453 1219 965 1003 1029 1273 1343 1496 1638 1669 1943 2167 1765 1745 1349 1105 675 556 508 545 651 945 1297 1455 1482 1511
1402 1759 2554 1722 1779 1841 2069 2458 1528 1243 1688 1083 1461 1968 1291 1143 1494 1501 1565 1416 920 954 1368 1716 1711 1579 1795 2118 1880 2169 2162 1919 1791 1260 941 484 161 341 452 650 674 589 507
1195 1830 2240 2174 1800 1797 1882 2253 1692 1840 1829 1888 1763 1622 1634 1205 1534 1554 1561 1454 1432 1099 1015 1883 1214 1721 1912 1966 2083 2554 2648 2026 2350 1934 1219 441 364 349 382 293 184 60 35
1755 1469 2358 2363 2088 2264 2386 2516 1789 1881 2074 1842 1652 1793 2199 1270 1543 1610 1476 1446 1491 1445 1241 1081 1481 1858 2746 2712 2181 2796 2648 1963 2235 1830 1235 677 627 336 289 23 0 0 0
1694 2188 2522 2414 2312 2223 2325 2855 2488 1912 2312 2042 2129 2180 2439 2270 1784 1230 1389 1371 1474 1587 1529 1071 1360 1590 2753 3094 3035 3228 2689 2374 1444 1550 1536 1140 1038 560 124 0 0 0 0
1760 2231 2562 2653 1884 2067 2343 2809 2522 1827 2084 2018 2106 2298 2277 1799 2397 2246 1714 2038 2256 1851 1824 2123 2353 1695 2294 2674 2854 3275 2451 2064 2338 1347 1409 1461 1231 1058 0 0 0 0 0
1714 1594 2152 2679 2509 1997 2479 2704 2806 2611 2252 2158 2030 2336 2164 2168 2358 1707 2038 1706 1784 2010 2003 1794 1721 1476 1841 2318 2645 3142 2566 2548 1621 1216 996 1491 949 928 0 0 0 0 0
1751 1607 1741 2129 2439 2242 2221 2629 2851 2927 2509 2219 2556 2584 2461 2028 2217 2657 2690 2752 2670 2512 2451 1920 1707 1654 1711 2015 2366 1785 1298 1197 1468 1626 1502 1322 812 0 0 0 0 0 0
1783 1792 1622 1735 2020 2099 2058 2685 2802 2754 2773 2827 2645 2881 2699 2276 1562 1750 1908 3297 3140 2591 1960 1619 1594 1625 1504 1441 2242 1277 1240 1176 1682 1371 1720 1625 1162 1329 27 0 0 0 0
1871 1904 1837 1567 1464 1071 711 949 1445 2482 2715 2907 2846 2710 2816 1939 1758 1525 1381 1255 1139 2485 2457 1458 905 1103 2587 2097 1365 1172 1208 1170 1152 928 1605 1100 1168 1210 2570 3178 0 0 0
1827 2012 1881 1821 2002 1833 472 215 378 1364 1664 2304 2591 2520 2251 1765 2227 2503 951 638 263 114 311 2535 2549 2507 2785 2380 2927 2513 3255 2171 2058 1452 1704 1432 1430 1413 2306 0 0 0 0
1743 1767 1803 2166 2026 2089 942 265 7 1189 1661 2223 2546 2458 2841 2943 2154 1970 2364 2340 2574 2493 2101 1630 1786 2127 2629 2476 2898 3027 3078 3046 2594 1928 2483 1316 1346 1213 2238 1133 0 0 0
1948 1756 1710 1868 2180 2253 989 184 0 1089 995 1962 2210 2732 2994 3265 2457 1758 2326 2825 2685 2561 1161 1820 1676 1520 1191 1078 1107 1730 1475 1260 812 578 716 671 854 1163 1727 2211 0 0 0
1708 1780 1731 1766 1478 1930 1439 239 0 917 1007 1029 1922 2599 1567 1794 1911 1431 2445 2882 2986 2624 1323 1241 1589 966 319 1202 114 1174 1830 1580 968 648 762 986 745 767 1317 1922 2828 0 0

GFSMA_con_sbcape_081.txt.gz
CAPE
1831 1818 1808 1449 1592 1673 1298 1810 2347 2000 1804 1307 1106 815 294 441 547 790 361 1409 1323 1024 1049 983 793 1000 1003 689 624 665 809 827 796 1115 1091 939 850 859 757 676 470 184 0
2144 1692 1999 2264 2095 2681 2113 2520 1743 3057 2165 1292 1553 1011 817 894 1107 1349 1395 1151 1948 1476 1172 1262 1220 888 750 797 810 818 885 963 1128 1082 1037 985 930 854 725 569 471 157 2
1847 2618 1607 1459 1965 1744 2024 1698 1831 2119 1530 1072 1486 1033 933 1006 911 912 1074 1429 1398 1450 1144 1111 1078 951 899 897 883 887 990 1054 1071 1119 1161 1252 1082 867 639 454 366 263 37
1484 2123 1752 1652 1288 2502 1948 2252 2782 2276 1085 1570 1021 1345 701 830 858 760 722 984 693 1355 1513 1440 1390 1447 1374 1194 1108 1153 1202 1266 1356 1283 1127 1147 1125 1016 753 457 279 301 188
1699 2373 1705 1565 1878 1658 1327 1273 1713 1359 1271 1237 878 687 573 676 1083 584 859 773 593 782 933 1968 1614 1400 1228 1250 1297 1301 1285 1321 1464 1549 1446 1339 1230 1179 1104 902 416 303 353
1909 2201 1382 1375 1858 1516 1395 1543 2858 1729 1054 1151 433 389 486 400 387 559 828 840 793 1088 974 1068 1581 1505 1677 1412 1203 1204 1333 1456 1725 1970 2309 2442 2280 2033 1919 1653 950 581 421
1833 1887 1951 1598 1636 1838 1754 1403 1526 1334 1474 377 1659 543 231 387 541 299 490 529 706 868 670 1106 1491 1256 1528 2275 2101 1622 1608 1624 1670 2120 2568 2561 2497 2354 1948 1889 1595 1135 749
1984 1737 1887 2123 1925 1525 1725 1575 2210 2151 108 1282 1040 1249 892 404 242 314 297 287 544 538 619 981 826 1262 1630 1369 2191 2574 2471 2001 1938 2041 2430 2450 2505 2500 2409 1987 1763 1566 1091
1719 1894 1783 2336 1838 2181 1574 1760 1487 1479 1750 478 1777 1037 1233 1021 908 534 588 393 483 524 622 789 841 1306 1574 1594 1879 2382 2370 1913 1753 1657 1791 2137 2148 2181 2233 2285 2228 1872 1475
1611 1667 1776 1833 2061 1721 1883 1709 874 2401 2451 1480 634 1224 1317 1579 1857 1090 299 264 357 605 675 849 986 1008 1276 1825 1418 1372 1365 1106 1088 1281 1420 1691 2146 2249 2388 2407 2362 2216 1907
1627 1350 1914 1938 2022 2105 2417 1675 1703 1796 1795 1303 1049 657 790 372 676 1261 383 227 309 493 804 1106 848 966 1403 1779 1709 1344 1177 856 926 990 1174 1425 1626 1887 2086 2528 2641 2552 2474
1541 1735 1596 1976 1954 1884 2141 1990 1872 1934 2019 2911 2106 1128 1120 700 1312 1688 771 995 683 904 992 1057 1098 1216 1380 1790 2029 1582 1408 1014 811 751 724 930 1201 1435 1771 2254 2390 2383 2223
1626 2632 2123 2181 1830 2008 1957 2167 2289 2017 1970 1405 1772 1727 1687 1028 633 1628 1654 635 1380 992 1334 1214 1207 1307 1509 1835 2319 1775 2551 1354 1211 1192 1094 995 610 762 1048 1514 1650 1580 1419
1742 2919 2168 1867 1844 1838 1949 2127 1889 1853 2674 1602 1550 2920 2040 1027 774 969 2203 1388 1656 865 1300 1910 1508 1424 1648 1899 1912 2071 2142 1807 1923 1632 1222 1127 609 271 533 773 593 468 388
1511 2082 1670 1821 1837 1855 1927 2274 1984 2596 2144 2167 1899 1958 1939 1412 633 864 859 1115 1623 2125 1888 2072 1036 2213 2020 2040 2022 2709 3082 2162 1644 2031 1172 1054 716 377 339 322 40 2 0
1589 1103 1745 2546 2161 1806 2000 2355 2732 2529 2007 1841 1212 3239 2852 1274 1180 871 1022 1063 1163 1294 1371 1316 1199 1955 2459 2752 2269 2928 2846 2327 1998 1798 948 1177 933 543 271 0 0 0 0
1796 1742 2147 2618 2254 2650 2240 3207 3078 2483 2330 2047 2319 2243 2285 3447 1858 1117 872 885 1026 1213 1305 1303 1575 1924 3296 3965 3715 3768 3051 3542 1907 1561 694 1413 1101 601 7 0 0 0 0
1946 1998 2352 2327 2396 2046 2608 2670 2377 1788 1873 2204 1939 2273 1936 1633 3476 3430 1980 3569 2305 3061 1919 3436 2515 1790 3269 3685 4292 4798 3116 2224 2444 1153 1119 1129 1210 581 0 0 0 0 0
2404 1529 2258 2867 2510 1963 2856 2882 2663 2767 2341 2316 2324 2301 2098 2535 3382 2304 2981 1879 1563 2142 2372 2227 2026 1618 1831 1813 2607 3940 4357 3229 2009 797 736 535 1136 516 0 0 0 0 0
2629 2335 2432 2895 2575 2064 1984 2318 2848 2843 2781 2564 2492 2804 2620 2547 3199 3392 2901 3558 2855 2546 2044 1506 1406 1692 1957 2707 2106 2318 1936 1394 1441 959 951 1261 825 92 0 0 0 0 0
2848 2890 2917 2651 2752 2091 1864 2635 2661 2846 2905 3282 2849 2900 3232 2556 1603 2285 1855 3142 3723 2870 1666 1296 1383 1449 1420 1696 2520 1788 1679 1457 1865 1012 815 991 729 837 16 0 0 0 0
3283 3553 3048 2995 2673 1409 676 898 1782 2980 3398 3857 3229 3231 3296 2179 1966 1653 1141 1114 1322 3087 4138 1925 1281 1155 3237 2005 1087 1059 1473 1168 1268 1312 1319 1204 1089 961 1143 590 26 0 0
2571 3442 3320 3139 3267 3167 1240 90 631 1627 2505 3342 3593 3625 2948 1503 2338 3261 1477 1163 913 456 281 2633 3580 3339 3201 3635 3918 4405 3175 3070 2299 1751 1906 1347 1360 1134 968 69 0 0 0
2657 2824 3144 3482 3594 3176 1765 784 0 1761 2092 2556 2849 3509 3805 3356 3270 3066 3409 3154 2897 2942 2506 1370 1824 2583 3189 3531 3753 3334 4265 4348 3375 3039 3352 1906 1214 1136 1050 951 0 0 0
2272 2185 2262 2947 3007 3496 2013 766 42 1419 1303 1971 2422 2671 2706 3388 3098 2181 2869 3341 3585 3352 1386 1865 1848 1949 1697 1228 1080 1439 1206 1169 993 688 801 610 787 989 950 1015 0 0 0
2017 2735 2017 2555 2035 2923 2400 1693 15 1476 1850 1597 2353 2528 1488 1411 1894 1829 2707 3128 3269 3172 3371 2169 1585 928 293 997 264 805 1427 1101 889 934 833 685 592 828 1080 954 595 0 0

GFSMA_con_sbcape_084.txt.gz
CAPE
2358 1405 306 1419 783 1736 760 1011 1261 1109 1583 1826 1457 701 467 1158 573 319 960 1834 1835 1629 1044 816 674 944 963 703 702 723 808 851 959 1108 917 850 826 856 748 578 425 104 0
2637 630 1155 1279 1500 2632 1360 57 1537 2709 1162 1673 1373 1331 1112 1157 1609 679 670 1469 1894 1586 1409 1325 1137 800 682 707 732 736 784 888 995 1050 1061 1106 1092 914 687 478 315 211 1
1839 1012 446 1126 1639 3259 3010 1070 2408 1793 1841 1431 1723 978 1394 1421 1205 1478 1245 1034 1657 2270 1670 1339 966 905 871 876 901 902 1044 1291 1118 1178 1410 1376 1438 1302 1046 861 349 272 101
2353 2382 1144 1260 1978 1179 1942 652 2435 2092 1827 1931 1482 1435 1643 1139 1369 1344 1348 1514 1302 1012 1747 1878 1615 1382 1300 1293 1212 1224 1323 1576 1765 1903 1936 1844 1765 1690 1678 1465 835 507 410
2018 2882 2229 1429 2781 882 2057 1456 1773 1751 1829 1106 471 1601 1606 1472 1317 947 1394 1535 605 1434 1356 1961 2144 2068 1586 1524 1456 1538 1678 1890 2049 2269 2358 2363 2278 2121 1970 1896 1676 1133 709
2604 2187 2611 2918 377 2523 2107 649 2265 1220 1846 231 452 834 1341 1033 1372 1491 1301 1157 1197 1288 1528 1955 1753 1585 1985 2231 2111 2025 1987 2119 2289 2514 2612 2629 2584 2550 2355 2012 1880 1614 990
2931 2724 2569 2822 783 2473 545 2825 2661 2772 2274 2408 2841 1785 1337 736 868 1250 1347 845 1288 1367 1326 1651 2317 1728 1358 2257 2503 2362 2441 2504 2582 2658 2691 2667 2665 2672 2569 2381 1984 1856 1666
2679 2574 1886 2343 1170 1388 2909 2626 605 2669 1852 2356 1931 2314 1042 1269 973 656 1013 843 784 1147 1268 1582 1725 1748 1983 1930 1873 2508 2704 2672 2783 2895 2731 2526 2432 2391 2331 2291 2275 2084 1927
2971 1744 2328 2796 2256 2482 1964 2682 3083 1907 1960 2121 2298 1469 1734 1359 2264 1091 917 772 860 1415 1112 1041 1657 2023 2063 2180 2764 2900 2838 2130 2213 2100 2060 2250 2293 2313 2346 2350 2291 2006 2079
2713 2411 2935 2410 1651 993 758 2455 2255 1807 2782 2297 2409 1861 1943 1100 2045 1671 1210 586 1153 856 1103 1811 1356 1841 1901 2391 2421 2376 2252 1468 1044 1345 1579 2025 2315 2331 2575 2633 2645 2410 2261
2915 2032 3190 3011 2569 1925 1237 2090 2690 3285 2368 1985 1744 2009 2104 2500 1949 1921 1413 961 1305 1272 1150 1590 1318 1437 1966 2319 2605 1344 1101 951 1194 1247 1337 1727 1753 1946 2384 2814 2917 2778 2526
2612 3076 2951 3026 2590 717 403 3316 2830 2838 3020 3728 3254 2737 2253 915 1397 1797 1940 1815 1478 1570 1792 1502 1470 2005 1982 2999 2000 1289 1525 1246 1543 1254 1110 1084 1295 1452 1870 2254 2487 2331 2118
877 2067 2884 3355 2959 3003 2312 2854 3199 3082 3200 2923 3430 2863 2774 1830 525 2455 2198 2417 1209 1842 2344 1861 1755 1888 1836 2308 2487 1868 2857 1490 1639 1264 1639 1155 693 837 1144 1505 1458 1374 1209
1101 2077 2499 2815 3099 2666 2463 2836 3343 2915 3007 2795 2646 3000 2856 2414 2342 2509 1861 2655 1701 2204 2452 2876 2545 2392 2698 2910 2125 1999 2817 1692 1681 1314 1709 1453 635 630 658 736 484 443 158
838 2097 860 2608 2883 2890 2624 2726 2345 2982 2907 2842 3014 2984 3147 2331 1859 2057 1741 1857 2121 2296 2246 2596 2174 2997 3088 2945 2539 2850 3493 2911 1635 1206 1850 1467 745 501 606 145 39 0 0
1086 626 791 872 2971 2962 2755 2927 2486 2308 2705 3022 2479 2892 3095 2200 2208 1747 1020 2242 2584 2338 2132 2134 2041 3528 3535 3044 2811 3303 3638 2998 2834 1768 1669 1334 773 510 481 50 0 0 0
1591 679 0 221 2626 3131 2811 2951 2352 2162 2200 2434 2693 2629 2765 3302 2676 2471 2267 2379 2006 2382 2415 2266 2710 2943 2820 3454 3288 3885 3863 3629 2886 1458 1595 1145 712 545 179 0 0 0 0
3149 2991 2354 2580 2872 2698 2540 2676 2751 2150 2319 2662 2685 2178 2398 2380 3340 3182 2723 2600 2839 2847 2697 2567 2465 2091 2176 2086 4541 4099 4156 2903 2591 1690 1233 706 749 478 90 0 0 0 0
3016 2662 2650 3165 3040 3108 3194 2956 2740 2864 2754 2285 2693 2660 2828 3115 3178 2472 3523 3000 2438 2539 2542 2609 2083 2703 2166 1868 2296 3292 4130 3863 3628 878 756 518 511 174 4 0 0 0 0
3139 3026 3019 3246 2852 3025 2993 2873 3121 3021 3377 2587 3001 2990 3222 3148 3150 3197 2980 2994 2863 2898 2430 2469 1884 1620 1587 1829 2850 3040 2758 1764 1655 1649 985 848 409 85 0 0 0 0 0
3096 3255 3189 2911 3226 2963 2259 2598 2870 2985 2676 2513 2868 2903 3123 3087 2522 2981 2617 2740 2672 2716 2579 2189 1809 1791 1845 2736 2190 2064 1617 2284 1510 1587 1273 1350 853 92 0 0 0 0 0
3259 3275 3035 3130 2817 1993 1298 1013 1670 2215 3059 2986 2534 3019 3229 2577 1852 1184 1171 1149 1090 2826 2962 3256 2588 1718 1813 2229 2496 2682 2360 1647 1455 2071 1781 1321 966 615 836 0 0 0 0
2374 2893 2991 3129 2970 3019 1946 1011 0 1957 2862 3012 2971 2950 2935 1846 1532 2672 1104 964 745 253 316 1099 1487 2001 2391 2387 3004 3240 2972 2814 2565 1861 1924 1517 1683 1766 1641 312 76 0 0
2252 2247 2422 2818 2888 2949 2475 1953 1130 558 1488 2057 2218 2712 2897 2334 2468 2651 3045 2912 1959 1828 1391 463 551 754 910 1236 1965 2036 2020 2104 2652 2849 2637 2295 2167 2041 1927 53 0 0 0
319 1459 2127 2287 2485 2773 2225 1511 469 956 1454 1460 1477 1969 2129 2140 2812 2348 1577 2302 2787 3088 2478 2087 1877 1244 773 599 578 1164 1325 1065 769 507 726 570 366 812 1265 166 0 0 0
166 493 1069 2012 2009 2159 2230 1852 654 1771 1935 1871 1788 1709 1049 1072 1664 1205 1072 2430 2005 1742 1832 2067 1406 269 58 201 78 204 1068 1330 1078 869 568 607 704 538 680 1573 4 0 0

GFSMA_con_sbcape_087.txt.gz
CAPE
805 315 476 974 850 200 557 45 302 1047 399 983 1 1 109 302 579 912 954 1808 2239 1941 755 715 838 1019 887 668 692 718 797 879 968 1132 1016 997 929 868 692 512 407 118 0
555 630 620 878 417 865 608 68 254 1164 689 678 334 47 233 205 91 371 583 1134 2155 2076 1452 1137 1019 752 667 706 761 787 815 942 1070 1067 1119 1151 1255 1218 875 560 359 320 54
259 420 40 273 615 1118 588 688 702 1388 906 755 591 430 338 367 138 167 407 788 1337 1875 1467 1499 1693 1291 889 880 918 978 1265 1707 1383 1411 1901 1776 1666 1611 1322 1034 626 411 367
428 435 333 560 838 264 1009 399 623 553 475 787 435 376 693 366 250 438 599 653 1001 1029 1923 2112 1982 1812 1201 1248 1335 1366 1949 2064 2055 2165 2255 2319 2270 2175 2021 1883 1365 834 604
918 1227 671 566 1260 635 895 963 671 813 868 375 603 817 608 275 343 788 641 768 677 791 708 1426 2189 2029 1671 1762 1733 2194 2466 2394 2247 2296 2479 2587 2601 2590 2485 2245 2063 1867 1302
1279 876 1649 798 733 949 943 508 789 440 682 150 135 296 412 475 481 462 436 356 634 857 797 862 1413 1557 2112 2319 2738 2681 2625 2527 2423 2398 2465 2487 2561 2629 2619 2537 2385 2126 1862
1589 1428 1336 423 738 945 332 1501 1308 1466 1518 1247 1125 576 510 0 47 518 468 593 427 829 1099 1073 1046 1019 1102 2183 2342 2616 2711 2853 2932 2892 2805 2674 2559 2452 2332 2270 2222 2389 2260
1265 1427 1216 1119 716 815 1431 939 336 1229 854 539 798 403 321 289 328 98 315 538 487 691 889 842 1266 1299 975 885 1158 2299 2606 2787 3154 3116 2782 2324 2182 2245 2223 2134 2091 2156 2213
1520 1088 1111 1089 343 675 682 754 1556 658 714 951 908 453 756 546 1008 294 92 149 4 601 647 738 948 825 946 1368 1975 2214 2672 2329 2409 2334 2345 2351 2281 2227 2355 2414 2413 2367 2148
1734 1548 1315 1203 1340 434 186 690 1627 1233 247 636 393 660 765 244 865 620 294 55 163 510 386 367 779 921 1021 1072 2148 2302 2706 2109 1430 1559 2045 2390 2304 2342 2543 2721 2713 2600 2341
1747 1428 1293 990 881 673 420 1058 1412 1392 1385 1867 1875 1324 1089 1028 1308 742 666 43 220 250 291 466 747 826 922 1575 993 741 1678 1069 1003 1401 1590 1760 1871 1981 2324 2770 2960 2676 2479
1209 1028 1696 1148 1162 647 160 105 1347 1544 1804 1515 2038 1367 1347 563 217 1074 1011 849 163 496 295 710 184 871 932 1456 1620 1549 1807 1310 1366 1512 1260 1165 1259 1467 1958 2380 2226 1918 1659
441 522 1494 1480 1205 717 247 314 1584 1502 1978 1284 1470 1711 1520 1555 1303 1095 799 1258 890 823 1101 659 669 744 1153 1810 1232 1609 2124 1760 1445 1534 1332 1108 899 779 1237 1594 1316 1128 566
276 439 989 1216 1621 1122 1248 1424 1447 1568 1408 1516 1056 1019 1240 1489 1333 938 1214 766 750 1254 1248 1532 1232 868 1592 1699 1780 2173 2627 1794 1410 1456 1432 1295 879 621 827 662 524 255 2
952 1282 731 1319 1380 1481 1084 1566 1361 1586 1545 1352 1256 1413 1269 1407 972 1133 1387 327 797 609 758 995 1465 1852 1756 2134 2136 2075 2602 2815 2207 1502 1442 1185 868 613 742 336 56 0 0
554 595 676 631 1266 1571 1480 1346 1075 1242 1316 1425 1717 1226 1418 1529 1253 1459 1563 1427 1148 833 762 1052 1288 2496 2132 1906 2013 1654 2674 2573 2555 2713 2010 1024 976 521 674 211 0 0 0
462 411 247 46 572 1364 1505 1465 1340 1123 1549 1265 1023 1471 1034 1629 1079 1499 1697 1425 1349 1410 1393 1422 1911 1721 1177 935 1213 1511 2420 2658 2399 1923 1464 1083 999 474 503 126 0 0 0
610 266 0 0 17 870 1658 1431 1374 1500 1289 1167 1178 1553 1250 1449 1540 1762 1581 1388 1405 1043 1280 1067 962 1125 1242 1618 1634 1793 2818 2755 2481 2244 1849 742 835 279 336 78 0 0 0
1060 966 570 513 1121 1378 1424 1562 1391 1461 1622 1110 1215 1401 1569 1356 1631 1569 1046 1788 1653 1467 1941 1717 1655 1545 1599 945 867 949 1393 2414 1746 1360 616 494 454 165 107 22 0 0 0
1948 1630 1733 1436 1748 1753 1888 2015 1712 1293 1339 1827 1473 1885 1605 1032 1277 1533 1424 1254 1457 1582 1542 1414 1318 1120 886 992 1375 1893 814 706 1090 729 471 522 231 33 13 0 0 0 0
2106 2033 1908 1945 2230 1833 1756 1880 1977 1842 1797 1721 1747 1685 2030 2204 2197 1961 1685 1410 1461 1453 1480 1675 1583 1420 1415 1414 1100 1460 1360 1248 782 412 1015 839 463 112 1 0 0 0 0
1411 1855 2103 2083 1929 1929 2063 1871 1621 1398 1995 1565 1404 1630 1945 2113 2058 1801 1240 1630 1667 1743 1682 1729 1791 1982 1558 1105 1722 1778 1945 1528 1262 1100 1335 1130 928 903 363 0 0 0 0
1256 1320 1329 1481 1782 2000 1759 1318 107 370 1219 1682 1908 1818 1640 1631 1885 1705 1734 802 128 123 460 591 610 513 775 797 1119 1295 1071 1350 1305 1177 1397 1754 1477 1343 1455 369 0 0 0
157 756 1178 1360 1476 1596 1759 1621 694 1 281 612 1170 1811 1886 1806 1640 1521 1764 1914 1386 813 561 81 134 454 256 264 263 467 703 1101 1076 1424 1827 1704 850 1323 830 465 0 0 0
40 110 278 711 1051 1371 1494 1322 331 194 484 665 742 937 1275 1481 1879 2039 1195 1137 1217 2000 2077 1226 811 424 352 189 106 478 960 1075 855 590 107 240 237 37 24 415 0 0 0
8 193 197 289 761 1076 1249 1010 320 280 996 1184 1216 962 829 684 638 1058 619 827 904 1056 1230 1025 721 188 23 73 3 0 410 383 485 687 434 288 252 66 272 191 0 0 0

GFSMA_con_sbcape_090.txt.gz
CAPE
611 574 529 627 298 0 365 31 149 618 329 395 86 442 201 349 434 631 941 1479 2116 1180 699 724 782 796 808 684 759 790 807 841 878 1020 1112 1116 1137 1041 935 742 601 318 0
416 12 423 575 493 487 301 135 107 588 794 82 0 105 96 230 468 514 583 1040 1899 2005 1204 904 846 873 834 800 784 838 855 914 1067 1170 1191 1276 1292 1446 1344 956 660 588 154
206 252 272 362 623 1050 587 295 511 966 796 321 201 60 29 14 35 154 288 537 1249 1740 1355 1316 1595 1371 976 955 930 996 1187 1540 1459 1486 1956 1900 1917 1664 1517 1422 1067 640 590
154 177 0 212 571 663 668 276 587 541 281 396 180 136 142 96 15 57 153 424 719 928 1368 1889 2313 1979 1295 1310 1382 1495 2077 2418 2437 2385 2443 2535 2590 2695 2573 2263 1889 1375 791
541 687 264 470 331 317 506 652 468 464 680 236 188 574 450 165 53 332 406 399 463 797 613 1087 2303 2313 1643 1743 2072 2496 2783 2770 2565 2442 2508 2601 2710 2766 2832 2676 2657 2256 1745
1115 961 634 716 654 753 697 392 475 238 356 5 35 155 69 348 132 401 626 649 618 573 505 459 760 1470 2255 2330 2927 3200 3098 2942 2754 2661 2731 2734 2778 2728 2591 2476 2524 2659 2322
1056 1140 1120 172 363 133 231 866 825 798 1138 593 255 348 80 0 149 281 281 314 437 809 788 679 662 865 890 2247 2463 2630 2856 3081 3153 3298 3134 2710 2386 2373 2313 2200 2143 2222 2450
1157 991 954 325 516 660 1151 820 315 614 414 302 507 1 179 11 72 26 326 378 270 490 804 862 897 947 841 813 905 1879 2542 2859 2904 3376 2863 2449 2367 2322 2258 2329 2361 2366 2212
1121 1293 942 717 156 261 330 505 986 385 603 456 546 170 391 282 371 69 1 238 207 134 429 687 695 821 931 765 1365 1797 2528 2228 2648 2880 2634 2517 2359 2296 2474 2573 2596 2497 2237
1097 957 1065 921 943 221 192 199 1179 662 146 1060 420 749 295 30 694 359 56 69 0 53 297 297 314 589 494 555 982 2139 1894 2308 2359 2023 2278 2429 2391 2343 2735 2883 2786 2443 2323
1319 1300 966 568 618 266 19 558 1184 971 1197 1375 1420 1092 765 149 201 386 543 37 11 35 16 45 82 164 475 655 921 1032 1652 1824 1281 1450 1754 1792 1958 2038 2452 2934 2613 2302 2152
617 936 993 780 497 509 267 216 1126 1225 1199 1080 1264 1040 923 823 1020 745 602 522 67 24 88 44 103 222 265 539 1283 1042 1537 1463 1121 1171 1391 1238 1443 1465 2043 2497 1978 1667 1090
593 762 1158 884 811 317 23 0 1066 1186 1064 956 874 1037 892 1107 1135 836 429 522 770 591 785 563 161 207 664 1147 1261 1386 1536 2170 1688 1260 1272 1114 1029 779 1208 1608 1250 894 256
230 413 1068 1080 905 846 699 1033 912 1022 920 1042 841 800 414 880 770 617 1051 317 399 424 508 963 667 680 1240 1540 1288 1652 1719 2373 1958 1593 1327 1112 876 658 899 872 488 148 2
52 365 488 981 1162 1085 613 1028 952 1179 1177 976 820 717 801 939 676 809 703 700 481 471 275 712 1434 1684 1547 1598 1338 1650 1354 1913 2307 1857 1665 1615 1100 675 767 777 140 0 0
375 858 723 920 993 1098 924 878 999 716 1059 965 1128 1256 840 1071 1088 1069 1138 987 778 385 609 513 1229 1926 1450 837 1043 1239 1200 1666 2120 2153 1948 1514 1165 562 543 741 74 0 0
397 425 390 623 613 1045 1203 985 774 788 966 1018 842 985 974 772 883 763 1259 874 882 1012 795 742 1462 1214 993 947 1207 821 808 1486 2402 2247 1999 909 730 378 373 635 128 0 0
282 167 174 79 67 473 947 1087 1004 1252 916 875 979 762 1124 908 795 1148 1381 760 1265 811 1211 1272 808 987 1087 1018 539 737 1056 1538 1827 1563 572 598 386 343 201 434 196 0 0
369 336 118 0 0 16 552 1232 1060 900 1034 1108 853 721 1021 960 891 811 1040 845 1015 1006 1237 1311 1086 954 918 413 928 821 1042 853 783 900 571 726 297 143 116 80 93 0 0
704 556 507 331 406 720 904 965 1243 849 867 1008 1198 1116 1191 1160 932 674 808 924 765 883 863 867 765 795 691 790 726 910 1216 702 999 690 412 655 529 257 64 1 0 0 0
1128 1154 1115 1235 1170 1204 1212 1209 1424 1515 1199 991 1223 1401 1350 1501 1568 1383 1319 1270 928 871 817 858 1076 991 1125 1114 1068 966 1156 887 630 189 669 607 422 516 253 27 0 0 0
903 1087 1302 1175 1105 1479 1870 1420 1167 1270 1457 1395 1257 1096 1062 1312 1334 1437 1441 1084 1146 1177 1050 1048 1030 1087 936 825 707 1118 840 720 431 298 783 622 886 1060 721 418 89 0 0
165 478 649 903 1176 1225 1310 1092 590 148 488 777 1154 1200 1135 1446 1483 1471 1522 1315 230 207 943 900 794 457 401 274 363 262 183 334 371 352 689 740 894 1072 711 416 429 9 0
42 90 221 305 487 944 1182 909 643 83 113 179 525 1045 1299 1401 1263 1216 1156 1128 1180 1026 354 18 127 438 255 361 77 277 147 206 354 510 783 1047 336 165 76 29 43 0 0
0 17 117 114 226 439 468 76 1 201 283 450 403 429 566 785 1102 1372 710 986 948 934 1419 1222 410 349 307 259 115 160 347 433 749 691 269 357 325 47 0 0 0 0 0
0 1 0 53 52 458 1 1 1 26 308 530 782 796 583 271 293 0 42 675 857 769 615 671 801 223 12 2 0 0 365 492 486 514 291 173 164 47 87 0 3 0 0

GFSMA_con_sbcape_093.txt.gz
CAPE
571 684 625 477 271 24 315 108 154 382 636 118 622 1065 480 324 373 433 419 1461 1781 1136 814 799 823 880 961 977 940 993 993 998 1008 1077 1191 1236 1227 1283 1195 1054 875 722 9
412 182 451 578 491 405 371 185 38 662 672 1 115 152 153 268 284 306 546 756 1674 1782 1494 1012 1023 995 1020 920 897 944 977 1066 1185 1324 1425 1477 1484 1353 1484 1466 1079 876 730
147 97 400 417 425 906 647 330 429 552 218 126 40 27 15 84 72 185 241 287 738 1753 1732 1544 1466 1635 1491 1254 1254 1228 1740 2039 1756 1916 2374 2300 2215 2030 1723 1567 1490 1140 883
214 57 3 84 488 597 623 177 302 488 235 262 143 61 54 22 6 30 34 175 324 589 891 1816 2132 2085 1704 1549 1713 1873 2568 2788 2856 2843 2769 2765 2847 2660 2457 2575 2364 2024 1442
225 244 18 372 261 453 307 525 413 226 474 217 89 288 202 182 40 109 48 125 181 582 535 698 1749 2399 1941 1985 2304 3121 3371 3305 3132 2922 2843 2935 3019 3002 2956 2416 2458 2652 2106
678 876 455 339 413 592 467 631 560 287 176 44 25 276 40 101 73 86 356 464 469 400 403 405 280 497 1556 2079 2792 3167 3276 3424 3306 3274 3306 3175 2777 2603 2560 2466 2333 2318 2523
1005 895 940 332 209 56 300 771 552 420 679 288 178 159 0 0 117 168 178 307 422 654 626 625 466 513 606 1367 2128 2756 2721 3259 3521 3550 3489 2847 2524 2523 2319 2343 2275 2015 2381
1012 969 694 106 354 599 855 813 675 180 172 178 469 0 103 0 74 28 71 283 286 95 458 726 696 732 715 730 931 2114 2564 2798 2847 3500 3439 2742 2533 2349 2373 2471 2567 2455 2329
919 1079 811 477 263 276 263 400 933 629 302 258 311 166 245 190 91 9 0 77 348 156 73 145 420 531 633 721 879 1020 1875 1950 2741 3270 3151 2819 2483 2327 2636 2786 2660 2388 2274
962 783 711 594 352 35 133 161 1059 362 261 852 489 476 112 19 781 358 10 64 4 1 0 41 236 270 356 312 566 1243 1522 1693 2130 2634 2514 2732 2491 2430 2868 3113 2519 2212 2205
1053 697 827 621 495 132 0 299 982 870 1073 1077 934 727 446 22 126 293 457 72 3 0 0 0 0 16 32 107 278 733 1253 1189 1411 1616 1876 2126 2292 2210 2616 3040 2459 2087 1838
578 842 815 484 346 341 155 281 836 966 940 894 845 772 694 814 964 676 528 374 285 70 47 2 38 46 196 94 809 1685 1568 1463 1548 1684 1319 1326 1547 1702 1944 2487 1843 1376 634
587 624 886 699 506 386 86 2 664 841 898 866 648 665 621 920 804 548 273 224 521 449 683 314 278 199 528 855 913 1450 1442 1441 1789 1992 1578 1047 819 1125 1070 1678 1242 821 259
443 446 740 908 585 541 339 0 659 804 721 883 774 555 284 582 503 580 736 275 392 68 75 629 725 541 1064 1298 1270 1621 1347 1150 1328 1798 1673 1356 770 717 664 1026 634 295 10
249 139 400 855 564 665 566 675 771 831 1034 843 631 513 561 704 513 653 474 526 334 500 205 434 1210 1367 1053 819 836 1074 927 830 1015 1392 1489 1118 521 557 650 722 527 61 0
242 99 401 465 770 961 924 471 811 686 575 696 724 928 633 666 865 783 821 631 464 152 530 170 895 1050 1008 728 869 814 629 654 1400 1681 1044 294 221 428 535 454 708 47 0
240 350 603 539 631 726 809 715 603 659 667 743 593 687 683 473 568 361 895 538 678 489 709 693 659 834 743 721 662 513 777 1127 1119 983 605 284 120 231 243 200 420 198 0
204 297 286 268 331 367 634 927 921 898 807 732 610 598 604 832 559 438 1001 543 820 605 794 730 581 714 789 646 471 509 861 954 663 728 493 361 290 210 149 86 60 38 0
406 188 131 119 49 26 136 623 927 707 727 750 818 784 547 564 661 526 431 559 514 692 695 886 765 464 535 314 648 613 904 665 702 697 382 275 587 288 218 48 0 0 0
697 336 223 97 2 0 11 226 680 813 672 688 736 834 801 889 877 690 504 520 487 451 367 477 377 411 469 552 503 612 828 539 628 369 105 227 513 218 245 268 72 0 0
836 609 354 440 395 494 690 804 806 974 980 771 680 673 869 986 1121 1006 941 1052 923 762 569 498 539 493 549 491 520 451 641 415 190 51 101 327 204 353 469 279 116 103 19
142 346 609 668 714 1125 1519 1309 923 902 1001 1045 1077 964 758 845 869 902 487 376 815 1127 1084 587 658 698 627 421 327 402 386 234 274 5 345 308 277 371 520 407 351 209 66
15 45 152 322 530 490 883 695 456 419 576 601 738 808 845 1014 1020 937 1100 840 423 41 393 865 783 656 541 211 144 161 60 51 91 110 327 611 339 455 233 117 68 43 0
0 8 54 54 97 249 43 36 1 5 199 177 182 356 594 762 899 989 944 876 812 756 474 37 70 491 364 288 89 285 191 22 4 53 203 652 219 200 57 6 0 0 0
0 0 12 30 84 98 1 1 62 133 235 260 230 267 317 374 256 14 52 462 580 635 767 806 318 176 132 50 36 16 129 224 738 768 194 445 337 45 1 17 0 0 0
0 0 0 34 5 0 0 0 0 0 0 0 0 8 1 1 1 1 1 0 0 32 71 26 30 133 11 0 0 0 241 402 543 511 349 306 68 27 88 0 0 1 0

GFSMA_con_sbcape_099.txt.gz
CAPE
1590 1601 1721 1516 1828 1653 1453 1478 1868 2049 1514 629 1414 1910 1815 1475 863 540 414 679 1462 1569 1493 1150 1088 1151 1170 1235 1257 1250 1271 1304 1372 1566 1763 1893 1913 1954 1823 1706 1745 1587 1217
1720 1485 1620 1619 1838 1897 1796 1665 1954 1885 1258 1164 1448 1468 1524 1323 1056 698 536 706 1125 1824 1752 1825 1715 1645 1728 1935 1811 1774 1943 2007 2166 2303 2806 2999 3073 2835 2125 2203 2065 1732 1468
1514 1707 1670 1711 2159 2209 1930 1955 1850 1681 1355 1100 1377 1211 1139 1254 1125 995 929 855 921 918 1377 1667 1785 1870 2032 2210 2306 2599 3209 2990 3112 3335 3538 2959 3051 3187 3120 2924 2622 2351 1840
1497 1444 1303 1670 1619 1828 1898 1984 1667 1712 1501 1447 1504 1424 1241 1213 1293 1238 1210 1133 1157 1231 1122 961 1351 1598 1759 2136 2677 3434 3581 3510 3505 3567 3635 3137 3117 3021 2697 2536 2540 2707 2442
1212 1317 1153 1687 2102 1709 1942 1945 1562 1838 1924 1795 1313 1263 1498 1572 1591 1144 1361 1482 1419 1558 1622 1222 1185 1375 1642 2028 2477 2752 3371 3497 3701 3710 3773 3553 3201 2895 2684 2669 2311 2359 2283
1458 2145 1626 1888 1748 1854 1795 2146 2245 2120 1966 1878 1314 1349 1587 1580 1661 1711 1544 1400 1698 1811 1775 2128 2093 1773 1413 1678 2071 2188 2519 3476 3788 3788 3655 3139 2896 2831 2825 2802 2551 2559 2507
1929 2231 1847 1882 1580 2067 2267 2024 1766 1999 1779 1975 1816 1290 1184 986 1099 1426 1629 1596 1580 1558 1632 1730 2030 1964 1847 1724 1873 2358 2456 2951 3608 3711 3513 2851 2722 2599 2896 2884 2722 2783 2752
1963 2089 2186 1564 1850 2106 2443 2589 2496 1670 1848 1993 1795 1523 1101 1056 1488 1369 1389 1370 1590 1586 1602 1607 1681 1868 2144 2109 2007 2184 2196 1978 2705 3531 3360 2748 2562 2515 3040 2629 2370 2527 2429
1830 2107 1879 1669 1989 1888 1660 2147 2350 2170 1887 1965 2085 1853 1403 1330 1837 1366 1320 1291 1698 1576 1702 1618 1277 1797 2038 1990 1901 1822 1951 1467 2376 3284 3337 2846 2502 2337 3119 2462 2135 2147 2163
1697 1706 2067 1941 1897 1585 1803 1952 2152 2225 2312 1997 2056 1863 1971 2204 1960 1127 1630 1369 1542 1033 1209 1127 1196 1402 2066 2246 1922 1541 1176 1823 2025 2604 2999 2725 2528 2267 3120 2403 1925 1696 1657
2156 1757 2046 2059 2119 1583 1548 1787 2451 2560 2320 1936 1748 2027 2314 2070 2319 2124 1449 1685 1614 1508 1971 1673 1316 1649 2197 2952 2537 2074 1868 1819 1663 1822 1922 2103 2136 2330 2769 2537 1927 1346 881
1839 2054 1988 2076 2068 1995 1681 1638 2466 2570 2376 2014 1673 1650 1528 1753 2138 2218 1823 1829 2108 2113 2411 2754 2336 1989 3054 2794 2132 2107 2248 1582 1077 864 1033 1289 1468 1845 2163 2650 2012 1241 642
1999 1776 2202 2373 1928 1952 1731 1652 2400 2351 2388 2102 2285 1625 1446 1491 1826 2229 2357 1909 1728 1842 2233 2766 2378 2835 2286 2596 2789 1801 2234 1224 591 820 818 360 567 990 1752 2177 1876 1277 665
1382 1804 1879 2040 1937 1899 1618 1532 1591 1963 2119 1929 2264 2260 1698 1746 1681 1899 1930 2247 1745 1880 1924 2707 2724 2677 2457 2784 2210 1758 2398 1331 1044 636 197 121 210 491 848 1123 1467 1140 642
1464 1533 1723 1688 2019 1888 1910 1831 1227 1987 2292 2349 2087 2128 2152 1839 2004 2065 2141 1882 2042 1560 1424 1835 1884 2656 2526 2282 2092 2192 2615 1048 751 364 72 120 187 346 503 541 643 610 303
1492 1583 1503 1563 1851 1971 1986 1986 1880 2122 2172 2043 1693 2311 2418 1901 2060 2128 2139 2091 1807 1728 1353 1567 1616 2307 2405 1742 1182 2023 2300 1146 1559 940 279 97 115 102 167 175 172 237 186
1621 1628 1528 1236 1260 1422 1772 2359 2279 1779 2074 2101 1940 2177 2273 2365 1786 1642 1801 2123 2071 1901 1579 1179 1814 1728 2374 2356 2138 2378 1906 2258 1539 1008 554 208 23 108 144 75 3 0 3
1687 1645 1539 1713 1781 1674 1865 2103 2056 1908 2057 1902 1706 1899 1949 1694 2303 2157 1736 2196 1940 2141 1844 1974 2097 2088 2315 2574 2658 2809 1947 1698 2161 1159 616 159 27 119 166 175 125 2 0
1782 1711 1550 1662 1783 1408 1219 1529 1806 1777 1978 1908 1842 1905 1700 1883 2257 1969 2293 2757 1783 1940 2192 2160 2173 2171 2265 2205 2286 2293 2560 2572 1838 796 559 195 81 295 191 49 76 30 0
1622 1822 1637 1586 1567 1198 1049 1045 1144 1588 1904 1626 1557 1872 1861 2010 2169 2197 1865 2318 1884 2405 2210 1757 1695 1837 1979 2131 2262 2186 1919 1547 1536 1539 792 588 488 867 808 664 403 111 0
1339 1612 1631 1511 1488 1289 859 1000 1135 1133 1247 1970 2058 1839 1851 1766 1277 1199 2211 2953 2203 2209 2468 1264 1471 1581 1599 1564 1864 1770 1587 1435 1821 1632 1578 1368 1148 1578 1486 1024 834 194 0
616 723 796 891 823 969 0 1 211 1783 2083 2224 2195 2229 2105 1427 1216 410 246 83 314 2081 2619 1571 1465 1724 2634 2443 1953 1897 1758 1592 1442 1234 1781 1556 1474 1675 1698 1353 443 76 0
207 256 325 460 250 4 0 1 1 1452 1976 2113 1968 1805 1674 1370 460 915 1356 889 523 28 30 1671 2211 2283 2271 2274 2355 2340 2079 2026 1956 1647 1809 1489 1539 1738 1719 1412 884 157 0
47 117 334 8 0 0 0 0 5 933 1147 797 370 245 178 2 0 0 336 1218 1581 1757 1888 1563 1749 1902 2042 2007 2027 2044 2028 1728 1747 1611 2273 1910 1507 1659 1691 1666 940 160 0
1 218 3 2 0 0 0 0 0 0 3 4 1 0 0 0 1 1 0 0 46 470 308 38 2 0 0 0 31 477 1372 1513 1649 1381 1679 1875 1600 1652 1691 1618 1480 148 0
31 9 2 0 0 0 0 0 0 0 0 1 0 0 0 0 0 0 0 0 0 0 0 0 0 0 0 148 121 330 1049 1379 1481 1315 1642 1712 1555 1494 1458 1237 1390 1469 1532

GFSMA_con_sbcape_102.txt.gz
CAPE
1789 1630 1804 1813 1767 1564 1550 1743 1924 1757 1387 1295 1462 1462 1285 1321 753 431 219 812 1429 1483 1524 1386 1347 1383 1491 1673 1869 1882 1953 2068 2116 2219 2390 2447 2654 2744 2676 2325 1999 1725 1442
1828 1632 1748 1670 1757 1643 1726 1880 2234 1398 1158 1075 1347 1276 1245 1153 1237 812 692 1019 1127 1689 1694 1769 1775 1697 1769 2060 2332 2381 2582 3054 3264 3197 3352 3270 3244 3137 3070 2857 2290 1981 1607
2082 1885 1787 1622 1898 2301 2387 2175 1758 1501 1071 1055 1566 1478 1260 1208 985 1200 957 1011 1237 974 1263 1475 1570 1639 1931 2320 2732 3145 3890 3891 3904 3861 3481 3440 3528 3392 2882 2679 2726 2686 2324
2028 1809 1505 1549 1966 1905 1793 1561 1392 1114 1310 1226 1451 1379 1285 1087 1390 1388 1247 1380 1526 1451 1416 1496 1406 1737 2028 2317 2674 3220 3740 3894 3926 4046 3978 3843 3413 3032 2895 2865 2776 2481 2368
1706 1616 1626 2066 2118 1710 1687 1327 1352 1360 1239 1210 1040 1124 1166 1317 1368 1044 1497 1588 1553 1662 1668 1790 1681 1836 2053 2279 2566 2749 2941 3598 3884 4019 3819 3546 3226 2786 2977 3065 2793 2703 2432
1741 1592 1760 2068 1928 1668 1647 1816 2479 1742 1139 1128 917 947 960 1224 1376 1446 1384 1317 1573 1655 1480 2064 2352 2418 2496 2080 2501 2457 2911 3488 3597 3948 3601 3119 2989 2909 3086 3040 2940 2932 2821
1682 1748 1676 1969 1809 1808 2376 2120 1635 1699 1057 1391 1160 892 939 1116 1193 1281 1262 1243 1362 1273 1564 1992 2277 2314 2212 2663 2549 2255 2529 2448 3369 3897 3707 2942 2821 2796 3170 2645 2733 2692 2652
1540 1711 2015 1667 1956 1863 2434 2658 2524 1315 1362 2133 1041 1097 857 927 1007 951 1098 1015 1197 1374 1654 1855 1946 2257 2548 2480 2405 2097 1934 1960 2806 3762 3827 3190 2675 2555 3190 2380 2393 2429 2225
1571 1602 1914 1863 2132 1777 1667 2129 2086 2669 1305 1997 2515 1910 1023 1180 946 856 1090 951 1216 1466 1585 1551 1622 2001 2632 2659 2538 2459 1971 1952 2659 3081 3620 3288 2764 2314 3083 2258 1963 1988 1800
1378 1396 1875 1931 2174 1630 1994 1945 2024 2389 2662 1535 1861 2294 2937 3266 1381 1020 897 1089 966 961 1489 1463 1483 1947 2603 2544 2289 1688 2059 2260 2311 2329 2630 2990 2832 2573 3022 2319 1667 1247 1313
1462 1583 1644 2262 2289 1799 1933 1987 2167 2144 2010 1721 1713 1903 2605 2433 2676 1455 1076 1115 837 1093 1723 1794 1762 1949 2556 2885 2528 2108 2485 2061 1609 1594 1857 2081 2430 2645 2759 2717 1912 1026 616
1065 1096 1223 1558 2072 1960 2205 1634 1836 1719 2750 2219 1736 1624 1615 1792 1966 1748 1439 1608 1542 1820 2065 2479 2518 2191 2619 2543 2497 2253 2522 1571 989 1006 1128 957 1335 2178 2673 2971 2410 1527 667
1147 1253 1463 1517 1523 1802 2018 1669 2390 1779 2027 2205 2285 1650 1375 1442 1773 2117 2050 1810 1650 1802 2113 2506 2544 2579 2395 2591 2317 1806 1908 1098 823 369 310 327 609 1118 2122 2601 2534 2024 1160
1128 1790 1366 1510 1641 1470 1939 2140 1971 1608 1686 1466 1916 2334 1513 1493 1415 1495 1808 1890 1638 1651 1827 2479 2326 2316 2120 2232 1633 1741 1560 842 720 338 152 37 168 713 1076 1644 2037 2051 1635
1682 1772 1786 1545 1707 1641 1933 2027 1508 2010 2211 2226 1644 1842 1817 1290 1440 1499 1557 1477 1612 1353 1248 2229 1545 1740 1852 1484 1433 1562 1591 1095 1188 1013 662 126 36 80 426 714 749 911 880
1843 2003 2047 1893 1519 1548 1465 1792 1484 1661 2143 1652 1521 1789 2040 1288 1519 1346 1399 1319 1347 1309 1199 1017 1092 1682 2165 2091 1370 1611 1441 1261 1695 1472 799 204 114 37 25 68 172 194 239
1592 1799 2228 2115 1847 1679 1782 2204 2024 1577 1884 1538 1693 1866 2089 2539 1596 1127 1038 1130 1213 1205 1123 678 901 935 2208 2314 2338 2503 1660 1136 743 702 846 603 57 5 88 28 0 0 0
1472 1404 1674 2286 1790 1291 1585 2038 1725 1211 1652 1328 1278 1415 1678 1368 2197 2112 1543 1676 1836 1826 1477 1915 2177 1453 1590 2012 2172 2720 1973 1232 1419 623 528 637 85 7 132 235 68 0 0
1158 1264 1601 1555 1179 1666 1612 1611 1577 1639 1485 1354 1163 1261 1282 1376 1667 1422 1907 1665 1131 1530 1954 1688 1386 1060 1313 1497 1815 2342 1934 1807 982 253 200 250 180 253 625 636 537 149 0
1013 1035 1248 1691 1414 1231 1506 1725 1595 1619 1525 1291 1506 1300 1401 1419 1607 1832 1621 1901 1806 1947 1696 1512 1158 970 974 1328 1538 1062 776 727 794 687 607 587 666 651 936 761 536 456 113
1228 1940 1413 1768 1819 1557 1084 1879 1916 1804 1870 1669 1687 1594 1495 1317 995 1120 1978 2148 1925 1919 1317 1214 1030 947 824 1904 1761 1095 834 782 1318 922 738 1167 915 929 1016 414 585 372 0
1762 1808 1834 1794 1588 1243 0 1 140 1837 2015 1718 1666 1811 1552 1089 1195 766 608 378 543 2122 2140 2080 1483 1454 2152 2194 1427 1169 1470 1381 1508 1229 1980 1434 1198 1148 1224 1160 575 414 12
1134 1144 1185 1135 273 59 0 0 0 1544 1950 1535 1674 1840 1591 624 483 782 791 763 751 387 138 2102 2182 2183 2337 2799 2611 2594 3008 2316 2242 1899 2120 1579 1334 1310 1149 1040 896 589 25
510 725 392 144 0 0 0 0 135 1448 814 423 427 169 73 0 0 0 335 962 1413 1647 1690 1602 2013 2040 2163 1603 1434 2134 2093 2265 2285 2058 2664 1566 1319 1384 1265 1281 1045 739 41
322 426 103 3 0 0 0 0 170 291 194 27 0 0 0 0 0 0 0 7 46 202 9 0 0 0 0 0 8 537 1096 2413 1796 1826 1864 2052 2149 1952 1605 1167 1185 605 237
26 0 0 0 0 0 0 0 0 54 2 0 0 0 0 0 0 0 0 0 0 0 0 0 0 0 0 0 0 413 1257 1496 1854 1567 2049 1884 2767 2067 1652 1507 1435 1525 1549

GFSMA_con_sbcape_105.txt.gz
CAPE
1638 1997 2336 1993 1773 2291 1145 1345 1236 1196 1340 1128 882 957 694 614 380 13 19 944 1112 1206 1368 1376 1492 1587 1704 1923 2357 2523 2599 2759 3283 3151 3189 3307 3348 2990 2653 2535 2236 1941 1381
2489 1543 2285 1413 1732 2137 1443 1677 1803 970 942 750 992 970 879 687 872 541 449 881 1221 1332 1514 1695 1802 1771 1910 2246 2711 3062 3679 4116 4186 3915 3823 3686 3666 3331 2822 2702 2497 2148 1978
2037 1838 1323 1813 2053 1745 2217 1720 1382 1298 784 761 1234 1086 859 868 982 1200 1125 1201 1211 1556 1668 1735 1669 1598 1814 2267 2822 3554 4109 4124 4099 4031 4184 4031 3693 3279 2939 3084 2787 2391 2383
1860 2337 1919 1311 1336 1816 1496 1012 1175 715 872 1033 1153 1242 904 886 1214 1397 1443 1589 1658 1492 1894 2088 1794 1982 2253 2626 2926 3348 3762 3784 3888 4191 4038 3870 3475 3071 3168 3246 2985 2614 2360
1919 3264 2589 1889 2718 1616 1219 2029 545 2018 863 985 1069 1113 1105 1070 1447 1215 1680 1621 1461 1729 1782 2413 2937 2732 2578 2743 2679 2872 3325 3765 3783 4015 3995 3595 3217 3060 3263 2999 3169 3011 2507
1782 2224 2010 1738 2882 2065 1472 1535 2880 1271 1284 1110 1064 931 1143 1146 1265 1438 1443 1346 1569 1841 1583 2417 2951 2603 3350 3210 2641 2529 3052 3472 3711 4131 4076 3376 3035 3025 3219 2681 2893 2940 2798
1844 2077 2419 1924 2468 2975 2416 2008 2032 1742 912 869 1598 887 910 1142 1376 1294 1168 1138 1218 1266 1570 2200 2274 2510 2643 3807 2714 1842 2528 2851 3676 4184 4377 3592 3035 2786 3151 2408 2631 2529 2621
1837 1672 2589 2198 2203 1881 2159 2554 2608 2148 910 839 1619 1261 981 1090 1137 1077 1062 915 1115 1216 1606 2007 1984 2606 2811 2570 2855 1980 2056 2577 3197 3805 4288 3977 2959 2494 3118 2146 2185 2014 2110
1641 1989 2015 2534 1871 2621 2215 2610 1947 2435 1155 1009 2483 2940 1552 2099 1033 914 1004 1046 1247 1492 1551 1611 1745 2219 2708 2981 3022 2782 2619 2519 2762 2819 3245 3755 3353 2795 2811 2087 1606 1562 1580
1481 1618 1811 1961 2309 2950 3148 2391 2178 3518 3284 975 965 1457 2790 2865 3004 1160 717 1085 949 1108 1385 1532 1377 2246 2365 2415 3146 2423 2562 2354 2102 2342 2587 2521 2904 3100 2720 2648 1539 864 916
1402 1438 1754 1980 2085 2120 1987 2521 2075 2898 2336 2545 1639 1211 2130 1649 1556 1734 1843 1317 737 872 1639 1674 1602 1736 2575 2703 2513 2039 2748 1970 1570 1834 1866 1847 1977 2623 2934 2957 2239 1046 461
1483 1405 1516 1798 1872 2476 1928 1726 2087 2099 2850 3643 2555 2209 1258 1795 2442 2497 1617 1592 1831 1719 1503 2116 2035 1903 2147 2164 2268 2377 2314 1495 1070 898 952 1144 1483 1931 2398 2850 2904 2251 955
840 1456 1622 1658 1595 1973 2244 1899 2137 2510 1917 2307 3513 2332 832 1081 1237 1543 1601 2061 1242 1529 2103 1861 1265 1752 1808 1724 2258 1791 1751 863 607 293 296 445 782 1323 1750 2382 2723 2672 2214
1225 2077 1673 1498 1493 1883 1857 2183 1919 1397 2713 1726 1976 3551 2236 1065 968 1112 1378 1310 1264 2311 1352 2365 1244 3211 2670 2405 1707 1421 1112 927 935 552 680 296 280 531 1087 1416 1772 2131 2341
2120 1981 1380 1495 1533 1532 1784 2062 1784 2094 2298 2166 2427 1905 2026 1327 806 1034 1059 1078 1149 971 939 3048 1625 2730 1865 1768 1649 1704 2255 1020 782 912 1055 401 366 278 369 529 666 742 861
1233 2076 1596 1716 1811 1824 1914 2029 2296 2317 1920 1846 1050 2054 2057 1325 1920 1088 917 875 874 942 937 793 784 1415 2514 2038 1449 2265 1928 1226 989 1330 1252 252 379 152 292 233 138 129 162
1148 1403 1665 1708 1590 1898 1903 1978 2823 1968 1989 1772 1707 1667 1455 2207 1670 1327 1404 1068 677 705 874 1017 847 1239 3369 3012 2019 2408 1524 2606 966 1075 677 444 350 39 10 57 86 15 0
1390 1430 1794 1654 1367 1691 1785 1978 2284 1278 1416 1507 1465 1545 1533 1086 1933 2859 1715 3361 1789 2270 951 2851 1810 1483 2690 1739 1593 3441 1532 1071 1277 557 544 274 292 46 0 26 174 65 1
1312 1439 1415 1415 1559 1680 1399 1769 2020 1516 1578 1217 1134 1372 1453 1530 1865 1782 2083 1833 1188 1839 2114 1670 1052 752 1212 1473 1979 3008 3259 2902 889 434 98 2 233 156 26 49 106 140 120
1375 1219 1663 1884 1652 1554 1629 1432 1588 1760 1738 1437 1475 1862 1849 1520 1705 1946 1878 2437 2359 2177 1656 1593 1334 1387 1596 2259 3063 1167 1152 762 893 638 529 333 495 282 98 0 0 49 67
1141 1210 1217 2236 1377 1338 714 1282 1519 1721 1963 1789 1421 1479 1585 1171 772 1047 1347 2475 2492 2138 1371 1317 1096 893 1113 1759 1422 1031 1365 1203 1810 1716 1150 1189 1111 929 1049 65 374 192 103
1257 1308 1337 1527 1463 1282 0 0 0 1815 1717 2067 2073 1564 1237 1619 1155 1117 924 828 973 2321 2270 1860 1533 1358 3015 2001 1745 1822 2121 1649 1669 1831 2674 2040 1925 895 877 1028 679 591 43
1269 1431 1262 1300 1120 310 0 0 0 1130 1703 1993 1861 1854 2011 794 1054 1211 548 539 528 489 324 1793 2370 2698 2586 2892 2502 2994 2727 2588 2014 1966 2406 2099 2396 2326 2008 1021 704 515 416
927 942 824 277 95 0 0 0 0 1442 1823 1576 1544 1273 1105 510 0 0 33 775 965 1359 1610 1285 1804 1122 1086 404 266 994 1907 2181 2259 2109 2502 1700 2229 1993 2009 2087 313 231 559
433 272 165 88 0 0 0 0 0 1174 582 373 84 27 39 0 0 0 14 65 91 107 0 0 0 0 0 0 0 10 442 1992 2178 1326 1721 1800 1651 1862 2128 1899 1097 520 533
2 16 0 0 0 0 0 0 0 328 427 97 0 0 0 0 0 0 0 0 0 0 0 0 9 0 9 25 0 49 612 508 547 592 1292 644 1086 2610 904 1235 1935 2184 1351

GFSMA_con_sbcape_108.txt.gz
CAPE
1611 1427 0 803 2373 1781 2045 2466 2599 1962 2059 1663 1622 1300 712 1019 0 7 274 1411 1280 983 1097 1239 1560 1733 1808 2100 2633 3273 3755 4067 4238 4242 3888 3536 3451 3063 2847 2497 2264 2198 2012
2110 1866 1536 1872 1031 2904 2701 1506 2086 2070 1928 1158 1735 1536 1230 1071 1466 240 399 1054 1893 1574 1332 1510 1828 1947 2104 2455 3165 3775 4133 4239 4131 4177 4209 4046 3545 3485 3214 3119 2597 2145 2229
3187 1798 1490 2155 2877 2741 2692 3004 2908 1812 1806 1578 1887 2182 1367 1475 1376 1603 912 847 1316 2373 2355 2349 2419 2407 2380 2398 3233 3901 4006 3916 3898 4158 4159 3934 3608 3451 3345 3302 2958 2258 2665
2856 2564 2353 1388 2427 3389 3152 2812 3037 2294 1151 2271 2075 2028 1940 1556 1871 2064 2000 1654 1453 1203 2512 2850 2795 2719 2985 2731 3487 3649 3664 3686 3743 3886 4019 3788 3452 3488 3245 3170 3112 2466 2597
2320 1685 2487 2734 3330 2425 1255 1645 1870 2080 1995 1470 1706 2025 2131 1703 2204 1640 2078 2275 2005 1966 1831 2429 2825 2964 3233 3076 3302 3054 3236 3452 3484 3921 4058 3608 3223 3407 3186 2932 2914 2782 2355
2175 2916 2626 3213 2190 2126 1586 2347 2969 2336 3262 1091 1092 1618 2087 2084 2156 1953 2048 1626 1882 2198 2319 2987 2457 2611 3146 3979 3129 2359 2566 3155 3584 3965 4231 3677 2958 2982 3093 2780 2905 2558 2631
2312 2915 3277 2746 881 864 3582 3521 3561 3255 3094 2662 3394 2118 1545 1831 2074 2063 1654 1381 1637 1917 2307 2580 3523 3350 2448 3646 3295 1823 2312 3246 3726 3944 4098 4033 3136 2631 3009 2343 2491 2461 2488
2594 2799 2927 2055 1655 2779 3445 3727 3977 3816 2609 2119 2539 2427 2215 1973 1497 1288 1770 1332 1305 1458 1976 2319 2955 2757 3349 2820 2805 1872 2538 2861 3385 3663 3807 3854 3666 2753 2995 1923 1950 1864 2295
2588 1247 2860 2028 2710 2965 3122 3808 3929 3532 3149 2256 3106 3717 2774 2465 2008 1453 1269 1618 1162 2076 1964 1857 2465 3037 2973 2284 2974 2862 2623 2496 2690 3253 3224 3052 3264 3317 2627 1991 1275 1380 1703
2368 2402 2515 2727 2965 912 1377 3767 3210 3635 3393 3311 2679 2237 3343 1029 377 1452 1246 1124 1330 1723 1519 1518 1381 2628 2916 2624 2636 2461 2341 2146 2174 2318 2428 2614 2644 3039 3048 2705 1462 624 745
2418 2134 2979 2682 3097 2634 2569 3518 3187 3702 3483 3679 2612 3142 2097 3585 1058 1590 104 171 1355 1525 1878 2035 1239 1931 896 453 2173 2281 2084 1722 1341 1174 1234 1702 2197 2575 2765 2885 2464 1164 436
2285 2917 2076 2873 3161 3045 2090 2647 3688 3367 3345 4128 3525 3417 1640 601 352 567 313 64 409 1232 358 341 147 15 424 750 419 2437 2047 1074 565 513 651 846 1219 1696 2046 2732 2958 2636 1596
1082 2963 3486 2776 2711 2693 2814 2827 3270 3208 3309 3139 4219 3224 3023 274 2 241 296 78 219 917 774 147 3 0 64 915 1821 1531 1486 681 496 210 409 742 684 788 1316 1788 2433 2820 2681
348 1904 2817 2810 2937 2882 3080 2853 3093 2763 2972 3094 3646 3243 3195 2145 1334 1945 2365 1516 1100 1330 2 50 182 5 643 1676 1556 1970 1559 755 869 684 562 818 537 509 511 739 1090 1487 1861
470 977 2140 2764 2758 2330 2942 2711 2885 2468 1806 922 2733 3482 3005 2269 1775 1883 856 2152 1985 1725 1196 764 943 183 2000 1726 1934 2507 2482 1568 845 1249 800 741 683 478 285 300 282 285 496
351 40 271 2536 2645 2199 2202 2931 2159 1748 2141 2372 2362 2520 2966 2462 2104 1838 1304 1623 1698 1363 1449 1484 1225 2529 2765 1760 1837 1913 2287 1082 1333 1022 606 866 678 552 335 252 159 101 48
718 13 1524 2394 2266 2147 2091 2576 2507 2614 2030 2749 2702 2220 2282 2767 2688 2182 1962 1726 1452 1881 1682 1529 1174 1319 1954 3084 2648 2672 2619 1714 1572 418 573 737 485 479 136 69 57 109 82
2868 2261 2490 2630 2679 2523 2580 2703 2296 1986 1517 1932 2451 2630 2519 1749 2265 3254 2553 2586 2154 2603 2408 1261 2559 1051 1414 1969 3381 2784 3021 1011 1539 769 455 566 265 154 150 0 0 21 78
2474 2160 2462 2280 2129 2057 1864 2663 2698 2793 2109 1814 2423 2323 2286 2126 2167 2174 2712 2666 2063 2045 2295 2190 2134 1470 1283 1679 1070 1673 1902 2489 2090 372 403 142 79 41 89 10 0 0 105
2363 2508 2037 1485 2168 2348 2027 2309 2722 1986 2199 1944 1994 1814 867 1767 2186 2293 1864 2342 1890 2237 1810 1842 1567 1523 1328 1463 921 1642 1442 1866 1645 1884 1479 1714 334 229 266 67 0 0 86
1594 1713 1910 2025 1726 494 0 10 1696 1967 1862 1973 2706 2136 2294 1197 518 868 1614 2449 2934 2493 2224 1663 1502 1276 1488 1826 1741 1894 2062 1983 1781 1882 2070 1919 1789 1858 1621 931 154 0 107
1754 1786 1643 1843 1378 0 0 0 0 1738 1780 1934 2025 1959 1357 1479 695 907 907 861 786 1693 2156 1998 1730 1614 1869 1903 1864 2034 1947 1766 1589 2019 1790 1701 1403 1243 1640 1334 689 623 226
1363 1497 1709 1538 82 0 0 0 0 168 1373 2316 2479 2575 1498 44 0 2 172 325 390 333 216 967 1478 1642 1675 1830 1157 1052 1103 1261 1228 1369 1620 1430 1592 1884 1686 1357 1068 220 378
341 478 188 108 16 0 0 0 0 26 1608 1794 886 1042 204 0 0 0 0 808 784 1219 599 266 519 188 26 48 15 113 280 858 1455 1344 1408 1531 1211 984 1008 1424 692 51 163
110 1 0 0 0 0 0 0 0 1634 669 0 0 0 0 0 0 0 28 6 59 1 0 0 0 0 0 0 0 0 319 524 622 344 538 375 724 622 1054 1111 1168 831 46
2 0 0 0 0 0 0 0 0 382 321 0 0 0 0 0 0 0 0 0 0 0 0 0 0 3 61 6 0 2 384 85 52 22 44 125 485 612 599 1334 630 647 1134

GFSMA_con_sbcape_111.txt.gz
CAPE
169 85 0 441 0 621 657 523 758 928 1003 765 374 208 65 0 0 17 428 1293 1597 1387 1103 1150 1434 1732 1866 2153 2581 3093 3543 3943 3962 3671 3686 3657 3353 3119 3079 2686 2338 2111 1724
449 156 0 442 206 679 731 647 939 1330 1177 436 694 224 279 0 0 0 17 628 1902 1870 1848 1556 1797 2165 2102 2402 2906 3662 4053 3768 3649 3900 3884 3661 3464 3194 3195 3155 2802 2358 1958
1168 487 858 738 705 1300 1277 1590 1467 1642 406 621 436 714 310 462 0 0 0 106 1034 2126 2243 2536 2766 2906 2913 2521 2961 3639 3428 3394 3554 3608 3657 3416 3149 3376 3073 3040 2778 2236 2068
1728 1294 1569 1150 1108 1186 1025 1251 1480 1462 658 573 586 463 566 608 605 289 274 272 415 612 1843 2902 2923 2927 3123 3065 3593 3335 2878 3094 3197 3553 3563 3233 2988 3258 2799 2920 2566 2333 2399
1898 796 1021 1532 1422 1490 1078 635 1087 761 694 682 936 831 547 566 734 1003 746 735 538 812 692 1514 2768 2689 3031 3160 4020 2809 2502 2740 3008 3475 3714 3075 2752 3261 2633 2872 2799 2499 2465
1632 1691 1975 195 0 134 1612 2301 1902 1804 1855 1105 826 803 735 632 732 934 1009 1287 877 1009 929 1055 1315 2002 2979 3497 3873 2607 2160 2734 3190 3497 3706 3222 2550 3006 2361 2418 2276 2458 2587
1298 1767 1683 0 0 232 781 2170 2092 2002 2226 1472 1376 1352 469 616 934 824 987 1054 780 1139 1358 1422 1738 1389 1885 3029 3134 1987 2278 2979 3344 3497 3431 3538 2786 2455 2135 1989 1762 2232 2031
1309 1505 1397 460 335 1005 1931 2050 2385 2584 1842 844 869 1661 636 401 574 808 742 972 696 781 1170 1376 1865 1758 2066 1666 1260 1495 2282 2860 3365 3172 2837 2805 3173 2319 2396 1535 1453 1770 2100
1277 1078 1507 949 830 908 849 2020 2451 2283 2495 1938 1534 2066 1590 1648 854 135 230 220 180 506 343 256 249 1106 1018 1239 1664 1917 2183 2207 2785 2509 2330 2356 2510 2871 2520 1502 960 1247 1633
1387 1119 1376 1555 1073 918 1067 1779 1790 2196 2348 2321 1744 1612 340 182 5 433 556 2 267 322 201 175 14 5 243 103 483 560 1601 1828 1669 1654 1700 2084 2182 2541 2697 2296 1091 441 791
1422 1304 1118 1165 1536 1366 1160 1585 2171 1836 2079 2347 2084 2035 677 299 491 10 38 4 6 259 422 80 60 0 12 79 232 162 1533 1245 627 723 1019 1330 1663 2184 2648 2734 2129 1020 320
840 993 1479 1579 1172 1317 1301 1444 1738 1370 2034 1798 2260 1131 403 196 177 53 2 0 0 241 166 0 0 2 0 45 492 825 1654 852 208 181 347 599 855 1218 1990 2693 2924 2629 1828
328 214 636 1141 1219 1141 1232 1496 1441 1168 1763 1500 1566 2086 1620 0 1 34 6 19 69 365 319 207 3 7 119 1 0 223 1153 1007 365 424 347 429 604 462 860 1473 2035 2558 2727
57 231 346 1082 1012 1336 1236 1571 1169 1680 1080 1084 1095 1332 1797 1177 365 393 281 5 0 134 274 16 98 66 62 4 111 810 1157 724 475 519 616 340 676 315 288 450 693 1069 1387
2 225 365 750 1093 1341 1155 1297 1385 1060 1078 456 1057 1188 1497 1323 1049 1197 838 898 781 393 122 7 288 175 0 0 0 423 931 1384 905 639 825 657 507 504 209 150 144 168 337
0 153 372 284 1023 863 647 1158 961 563 1087 930 1222 890 1043 1021 988 1192 1132 1126 747 609 471 535 106 483 93 445 786 923 1060 1643 1209 1222 1110 305 578 594 237 72 55 85 72
11 55 105 180 1033 678 1024 1109 1009 796 1103 987 1161 1121 976 1167 1213 838 1436 1364 1046 1273 733 490 693 681 437 741 962 1361 1595 1640 705 869 273 171 330 492 172 101 0 6 35
40 119 10 888 898 883 1040 657 844 1449 918 823 831 923 977 1146 905 980 1042 1245 1004 1116 857 557 500 787 585 775 339 505 1112 1624 994 1048 447 139 223 313 124 4 1 0 0
630 878 971 826 951 1173 942 1075 1258 954 917 1069 888 983 799 705 850 508 889 1018 626 767 635 759 812 701 657 220 0 309 964 1290 1352 1352 1303 1532 1181 482 86 34 0 0 0
763 645 1027 819 771 692 82 515 1116 1099 915 1020 1311 985 556 498 1026 657 867 865 1165 1076 1049 991 743 638 709 1045 715 1027 1174 1196 1144 1140 1278 1050 1158 1114 966 973 16 0 0
882 747 765 752 0 0 0 0 0 602 764 687 710 639 630 523 264 330 426 537 623 908 895 1057 941 811 681 954 1178 1053 1050 1144 484 1011 940 1007 960 865 934 1184 362 0 0
329 435 511 191 0 0 1 1 0 7 663 797 805 523 0 0 0 0 0 213 208 381 359 739 827 869 808 935 714 124 398 285 510 540 807 944 748 1152 614 1095 462 56 81
199 144 67 0 0 0 0 0 0 0 290 562 382 232 0 0 0 0 0 123 253 36 34 179 333 464 334 26 0 0 0 0 43 285 393 729 579 592 368 730 222 118 153
133 44 1 0 0 0 0 0 0 0 0 0 0 0 0 0 0 0 0 0 0 0 0 0 0 0 0 0 0 0 0 68 106 99 0 130 212 148 214 404 160 126 143
0 0 0 0 0 0 0 0 0 0 0 0 0 0 0 0 0 0 0 0 0 0 0 0 0 0 0 0 0 0 0 0 0 0 0 0 77 0 248 146 4 0 0
0 0 0 0 0 0 0 0 0 9 0 0 0 0 0 0 0 0 0 0 0 0 0 0 0 0 0 0 0 4 0 0 0 0 0 0 6 0 0 0 0 0 0

GFSMA_con_sbcape_114.txt.gz
CAPE
0 0 56 74 238 12 321 67 332 556 845 1286 1150 505 576 0 0 125 526 1284 1677 1297 1197 1180 1376 1774 2165 2428 2815 3218 3569 3843 3780 3654 3371 3148 3035 3031 3134 2772 2498 2100 1682
69 205 0 0 15 146 474 653 747 665 644 280 274 13 0 0 0 0 31 485 1725 1881 1756 1553 1962 2376 2486 2871 3368 3925 4138 3790 3733 3868 3625 3252 3175 3201 2716 2952 2693 2350 1696
477 394 3 0 561 360 1158 1177 1468 988 1064 351 290 222 0 0 0 0 8 62 426 1960 2403 2570 2891 3166 3309 2892 3617 4199 3728 3485 3573 3694 3425 3050 3067 3084 2707 2724 2509 2192 1955
901 469 639 514 652 1132 1227 1016 769 996 520 345 344 414 247 102 0 56 66 88 232 433 813 2449 3222 3283 3419 3482 4272 4428 3568 3279 3158 3592 3546 2939 2964 2826 2625 2573 2547 2265 1945
1358 1084 1278 408 609 565 1178 1013 1163 653 462 522 564 409 393 454 317 444 256 211 193 346 357 777 1973 2963 3090 3260 4347 4383 3414 3125 3128 3363 3599 2749 2763 2748 2418 2504 2426 2520 2143
1747 1695 1635 238 0 657 994 1828 1527 1577 1195 587 749 769 453 377 406 505 533 535 446 382 486 540 717 969 2499 3523 3542 3678 3214 3509 3270 3235 3410 2985 2409 2640 2002 1835 2251 2535 2120
1106 1213 1132 0 364 1317 1476 1510 1911 2304 1110 541 532 984 165 278 365 360 296 294 482 480 222 368 1072 1604 1803 2643 2111 2790 3392 3356 3787 2857 2736 3136 2501 2578 1732 1345 1770 2203 2440
1263 1535 1000 551 723 1127 1046 1708 1769 2033 1842 940 1000 779 353 164 177 119 322 370 265 296 321 47 68 1010 750 1367 1744 1963 2195 2404 2933 3050 2351 2391 2885 2273 1652 1156 1214 1912 2076
1076 1116 1070 958 752 520 700 1370 1590 1925 1751 1453 612 1234 967 1014 213 6 88 249 322 246 270 227 33 35 172 27 405 747 1200 1052 2174 2894 2182 2054 2294 2599 2211 1190 969 1346 1585
933 1029 1159 1119 771 902 950 1480 1658 1647 1677 1607 1016 458 204 195 19 140 43 10 251 379 235 177 66 28 24 7 61 501 715 1082 1944 1905 1611 1774 1849 2280 2551 1737 755 784 888
922 881 744 1159 1176 826 900 1061 1266 1580 1503 1573 973 411 281 98 6 0 0 0 2 157 174 271 59 0 0 0 0 115 880 1315 1569 1207 1020 917 1196 1815 2578 2753 1770 708 558
306 417 761 856 826 929 1008 1055 1090 1243 1340 1362 1179 412 317 138 97 0 0 0 0 52 102 129 3 3 0 0 8 218 533 692 1128 1268 455 484 680 861 1873 2729 2851 2301 1307
232 253 397 752 880 891 972 1128 962 699 1096 1147 1291 781 0 21 42 0 0 0 21 133 229 223 156 42 7 0 1 28 346 734 999 1044 384 111 410 356 624 1556 2432 2883 2854
72 119 418 702 647 899 615 1118 675 1126 626 579 599 921 222 0 0 0 15 2 0 0 179 86 0 0 0 10 34 316 260 222 1005 988 302 422 283 249 188 385 787 1163 1493
0 22 361 451 559 692 788 893 822 892 805 281 939 808 668 181 1 151 147 0 1 22 53 113 0 234 144 3 52 66 15 405 973 736 161 208 338 245 142 86 122 188 292
0 0 185 372 323 725 677 677 734 385 763 615 852 429 583 474 519 649 873 508 212 53 249 14 144 9 237 198 207 704 539 1041 1303 501 480 5 66 146 276 123 36 35 55
0 0 54 42 200 601 538 794 660 485 731 659 675 702 579 732 777 1008 746 823 712 607 329 236 233 391 273 264 85 696 975 1262 720 999 552 843 434 179 45 2 12 5 4
0 0 15 56 104 541 612 508 516 1304 702 501 407 505 564 785 538 558 626 769 531 554 416 331 231 572 322 183 9 545 864 1295 960 997 1280 977 989 670 690 22 0 0 0
0 13 89 5 251 635 364 348 475 464 740 775 689 527 498 364 455 251 506 527 389 410 442 517 558 294 367 340 466 623 848 824 883 944 1035 911 839 695 88 75 0 0 0
0 137 346 334 284 67 1 10 154 679 591 536 708 634 553 431 462 313 485 603 591 577 546 381 403 357 338 737 588 660 129 313 423 756 622 819 760 370 372 465 64 0 0
288 376 343 0 0 0 0 0 0 83 539 348 395 436 138 64 90 248 200 311 335 318 300 414 381 390 401 521 533 226 112 140 79 377 326 661 507 316 331 243 3 0 0
131 71 75 0 0 0 0 0 0 0 185 312 249 0 0 0 0 0 0 48 164 272 211 334 392 372 352 248 22 0 0 20 110 40 35 201 212 124 197 86 0 0 0
49 20 0 0 0 0 0 0 0 0 92 233 174 0 0 0 0 0 0 0 0 0 5 72 61 0 3 0 0 0 0 0 28 0 0 91 0 0 71 0 0 0 0
85 8 0 0 0 0 0 0 0 0 0 0 0 0 0 0 0 0 0 0 0 0 0 0 0 0 0 0 0 0 0 0 0 0 0 0 7 0 0 0 0 0 0
1 1 0 0 0 0 0 0 0 0 0 0 0 0 0 0 0 0 0 0 0 0 0 0 0 0 0 0 0 0 0 0 0 0 0 0 0 0 0 0 0 0 0
0 0 0 0 0 0 0 0 0 0 0 0 0 0 0 0 0 0 0 0 0 0 0 0 0 0 0 0 0 0 0 0 0 0 0 0 0 0 0 0 0 0 0

GFSMA_con_sbcape_117.txt.gz
CAPE
0 0 32 28 119 3 174 407 435 519 550 479 720 961 777 2 0 15 153 1382 1761 1381 1221 1345 1563 1930 2428 2860 3264 3476 3886 3917 3846 3508 3543 3158 2910 2820 2677 2885 2586 2154 1776
0 84 13 0 9 129 314 535 708 545 495 373 224 7 101 10 0 0 15 75 1835 1825 1352 1520 1936 2302 2619 3004 3524 4127 4348 3825 3888 3909 3751 3381 3004 2900 2541 2615 2530 2175 1595
388 403 44 96 432 611 944 769 683 941 618 269 124 36 0 0 0 0 0 2 13 1270 2160 2399 3045 3421 3414 3180 4088 4339 4175 3611 3674 3811 3690 3127 2938 2720 2525 2467 2305 2206 1772
740 426 412 809 748 978 949 796 564 623 364 246 260 264 18 0 0 0 0 0 0 54 274 1033 1735 2263 2810 3488 4536 4382 3777 3352 3418 3593 3620 3015 2722 2551 2247 2266 2085 2176 1757
885 674 906 496 151 565 1161 1470 1065 377 357 219 299 298 142 216 5 31 19 30 69 214 407 878 1579 1765 2176 2722 3951 3860 3695 3714 3602 3526 3555 3186 2493 2531 2131 2051 1900 2233 1762
1203 1228 765 3 28 839 1439 1527 1341 1253 420 277 375 575 309 62 95 217 218 407 502 633 770 1341 1549 1659 2189 2958 2503 3047 3718 3538 3634 3292 3095 3120 2439 2413 1699 1546 1832 1873 1805
1100 1184 20 0 638 1123 1393 1711 1634 1555 1011 310 341 344 47 21 50 212 251 262 278 244 143 295 1251 963 1094 2096 2140 2392 2328 2133 2701 3446 2830 2589 2904 2251 1334 990 1835 1657 1623
1230 1153 781 375 618 627 1179 1429 1451 1420 1130 532 1074 194 76 102 14 120 263 255 191 200 202 111 145 538 93 69 453 1306 1644 1384 1850 2751 2764 2411 2484 2197 1388 738 1202 1752 1706
986 1169 819 637 558 318 931 1150 1297 1351 1098 314 209 777 641 429 65 18 59 179 263 214 196 213 88 45 24 0 19 138 1001 865 1774 2332 2340 2322 2012 2234 2036 952 665 1322 1744
631 922 936 807 648 684 949 1388 1186 1140 1012 885 498 350 62 47 33 182 45 2 68 216 180 161 124 18 0 0 0 80 650 1135 1364 1638 1643 1709 2043 1785 2376 1878 751 711 1028
642 1026 675 826 791 608 822 949 1054 995 1155 622 386 160 47 0 0 0 0 0 0 2 91 154 83 20 0 0 0 19 425 550 535 1244 1741 1011 1378 1845 2078 2851 2011 884 805
319 441 753 697 667 594 757 879 676 1090 916 1097 603 266 191 60 23 0 0 0 0 0 114 130 104 11 0 0 9 164 308 217 511 528 674 1003 653 1135 1138 2048 2709 2372 1305
189 223 428 690 616 614 685 768 653 517 797 852 878 386 0 0 0 0 0 0 3 0 195 161 12 0 0 0 0 209 400 239 117 160 188 191 191 486 789 940 1912 2644 2831
59 77 242 440 577 641 323 676 559 858 516 491 528 664 0 0 0 0 0 0 20 0 1 122 0 50 170 18 130 306 107 101 154 107 51 25 85 136 230 281 517 896 1315
0 0 296 383 503 468 595 592 519 688 577 172 529 504 286 12 0 0 26 0 1 52 0 34 3 0 105 181 219 412 271 365 288 221 31 10 31 140 142 70 65 143 204
0 0 170 264 307 346 602 489 522 355 424 250 495 319 468 338 217 234 213 190 14 0 10 8 160 0 10 113 271 510 841 770 679 134 586 705 209 0 24 51 32 5 0
0 0 0 127 115 419 443 327 455 387 312 479 424 249 256 312 375 390 400 397 354 132 11 59 46 207 180 39 141 497 872 970 673 768 969 680 278 10 0 0 0 0 0
0 0 0 23 0 266 217 303 437 686 567 391 310 347 340 373 244 283 357 422 323 223 137 168 75 247 201 252 165 382 373 478 529 768 698 629 100 0 0 0 0 0 0
0 0 15 4 1 163 385 312 276 302 408 431 431 422 357 264 250 121 203 319 220 391 332 251 225 125 124 357 435 276 0 107 361 549 603 486 153 6 0 0 0 0 0
0 0 0 50 101 190 67 81 201 416 375 357 397 459 497 317 195 206 182 242 334 271 244 132 135 219 159 353 232 28 0 0 112 14 195 151 101 0 0 0 0 0 0
0 0 87 35 0 0 0 0 2 130 192 238 292 221 94 54 20 164 237 229 160 112 76 140 163 152 201 99 28 4 0 0 7 0 3 0 2 0 0 0 0 0 0
95 26 69 0 0 0 0 1 0 0 25 238 250 0 0 0 0 0 0 42 84 149 131 203 204 145 29 0 0 0 0 0 0 0 0 0 0 0 0 0 0 0 0
24 0 0 0 0 0 0 0 0 0 3 76 80 0 0 0 0 0 0 0 0 0 0 58 0 0 0 0 0 0 0 0 0 0 0 0 0 0 0 0 0 0 0
70 0 0 0 0 0 0 0 0 0 0 0 0 0 0 0 0 0 0 0 0 0 0 0 0 0 0 0 0 0 0 0 0 0 0 0 0 0 0 0 0 0 0
67 1 1 0 0 0 0 0 0 0 0 0 0 0 0 0 0 0 0 0 0 0 0 0 0 0 0 0 0 0 0 0 0 0 0 0 0 0 0 0 0 0 0
1 0 1 0 0 0 0 0 0 0 0 0 0 0 0 0 0 0 0 0 0 0 0 0 0 0 0 0 0 0 0 0 0 0 0 0 0 0 0 0 0 0 0

GFSMA_con_sbcape_120.txt.gz
CAPE
0 2 22 45 73 39 344 550 684 764 763 640 364 866 867 11 13 23 42 552 1601 1496 1418 1517 1898 2225 2581 3123 3566 3747 4122 4081 3923 3441 3464 2941 2787 2961 2850 2553 2522 2073 1740
0 52 58 44 72 433 611 720 897 969 530 600 363 25 185 95 6 3 16 75 994 1997 1243 1412 1937 2269 2742 3135 3801 4281 4257 3720 3751 3626 3115 3012 3013 2810 2476 2381 2305 2030 1589
147 370 180 411 678 833 1208 1203 972 793 770 395 279 176 2 2 0 0 0 0 17 230 1126 1686 2053 2889 2875 3150 4181 4599 4055 3514 3568 3644 3339 2867 2960 2523 2111 2296 2261 1757 1530
668 485 682 975 1071 1068 1323 1426 720 640 391 468 355 437 29 0 0 0 0 0 36 137 348 939 1814 2244 2448 2877 4135 3957 4006 3824 3604 3478 3262 3016 2593 2391 1872 2276 2138 1676 1327
921 859 980 539 396 991 1467 1627 1253 482 411 390 466 519 354 424 293 276 465 258 267 568 850 1031 1888 2300 2373 2696 2986 3446 3644 3533 3534 3374 3096 3068 2455 2389 1872 2127 2002 1928 1543
1032 1195 547 97 554 1484 1744 1764 1556 841 569 537 430 338 266 231 336 452 468 667 787 971 1233 1795 2192 2123 2695 2924 2515 2880 2879 3049 3085 3293 2907 2608 2401 2375 1646 1616 1821 1664 1344
1155 474 0 250 909 1351 1434 1777 1730 1567 1255 632 803 265 252 204 348 487 449 423 489 478 389 914 1639 1023 1220 1360 1610 2050 1776 2015 3094 3211 2730 2276 2533 2130 1412 955 1745 1583 1540
894 790 349 597 715 932 1305 1454 1489 1310 671 343 1362 171 422 460 254 185 408 464 357 273 412 327 260 298 309 271 324 635 1216 1776 2220 2655 2691 2103 2002 2099 1566 705 1053 1459 1371
850 841 558 481 451 619 1186 1295 1345 1315 880 399 328 1158 866 569 248 230 156 198 324 414 452 433 429 300 208 43 22 282 948 1328 1057 1579 2438 1972 1829 1911 1964 1083 433 989 1261
689 912 800 621 715 588 1149 1465 1283 1263 1078 772 506 263 185 293 402 690 253 224 203 241 417 403 351 242 66 18 3 24 475 538 520 1081 1680 2102 1464 1632 2007 1927 813 368 666
754 1013 772 772 719 690 771 951 1138 1234 1036 727 533 369 113 52 0 119 104 46 44 146 189 228 255 235 37 6 3 94 601 457 614 862 850 1376 1458 1548 1565 2391 2115 1024 614
411 633 792 774 728 593 828 872 748 1006 1044 1078 668 456 411 282 210 0 0 2 2 132 256 314 336 208 48 62 225 431 628 495 300 262 281 539 858 856 1158 1046 2299 2515 1700
265 359 564 692 657 618 708 867 745 593 788 963 848 353 112 152 57 0 0 37 287 209 523 649 285 249 483 616 707 709 476 214 304 11 0 57 189 371 567 557 926 1904 2492
72 161 282 549 663 696 534 675 629 731 631 720 607 753 201 38 0 0 16 297 573 110 20 482 395 340 800 1042 1296 861 991 420 100 231 10 0 23 67 274 318 375 619 925
16 71 138 459 534 630 709 565 566 581 623 463 378 586 664 40 0 58 131 51 594 569 234 475 529 452 424 663 878 1355 1588 291 149 204 53 0 0 0 0 58 49 57 170
10 37 102 331 360 489 626 605 675 604 513 345 535 566 667 487 431 322 393 358 161 230 433 133 677 447 406 705 743 1418 1284 713 412 117 7 0 0 0 0 0 0 0 3
0 0 14 70 149 266 611 679 667 600 437 585 532 599 427 347 494 559 612 631 552 205 404 264 323 610 938 880 999 780 529 1081 1015 13 0 0 0 0 0 0 0 0 0
0 0 0 0 63 90 476 379 635 957 566 511 440 482 612 329 460 604 471 734 449 497 320 460 459 845 801 920 833 485 462 538 927 38 0 0 0 0 0 0 0 0 0
0 0 0 0 44 54 300 191 290 523 577 697 539 537 518 538 809 405 261 575 342 785 550 668 663 447 624 858 811 131 130 233 41 38 1 0 0 0 0 0 0 0 0
0 0 0 30 0 25 280 263 281 523 641 688 605 661 769 730 696 651 471 788 546 516 537 338 369 558 510 734 253 114 233 127 0 0 0 0 0 0 0 0 0 0 0
0 0 0 51 56 11 0 0 8 183 161 261 415 473 248 198 42 215 696 663 419 344 304 423 470 454 632 139 96 13 80 73 0 0 0 0 0 0 0 0 0 0 0
14 0 122 67 0 0 0 1 1 5 104 236 388 179 0 0 0 0 0 11 232 387 509 542 552 467 107 30 0 0 17 260 0 0 0 5 0 0 0 0 0 0 0
52 105 4 0 0 0 0 0 0 0 3 92 196 24 0 0 0 0 0 0 0 0 0 273 320 58 0 0 0 0 0 22 0 0 0 0 1 0 0 0 0 0 0
15 5 0 0 0 0 0 0 0 0 1 1 35 0 0 0 0 0 0 0 0 0 0 0 0 0 0 0 0 0 0 1 0 0 0 0 0 0 0 0 0 0 0
66 20 0 1 0 0 0 0 0 0 0 0 0 0 0 0 0 0 0 0 0 0 0 0 0 0 0 0 0 0 0 0 0 0 0 0 0 0 0 0 0 0 0
1 1 1 0 1 0 0 0 0 0 0 0 0 0 0 0 0 0 0 0 0 0 0 0 0 0 0 0 0 0 0 0 0 0 0 0 0 0 2 0 0 0 0

GFSMA_con_sbcape_123.txt.gz
CAPE
571 525 672 739 1150 1421 1792 2125 2205 2197 1990 1699 1004 1513 1416 769 315 65 49 368 1271 1706 1484 1538 1918 2368 2652 3004 3566 4073 4526 4233 3933 3630 3233 2948 2727 2798 2508 2198 2402 2066 1629
297 746 1164 1271 1661 2025 2213 2248 2213 2249 2003 1314 960 772 1140 832 505 98 58 134 289 1273 1548 1560 1987 2461 2594 3072 3637 4666 4412 3817 3874 3670 3114 3025 2723 2513 1904 2215 2221 1776 1590
1629 1767 1608 1802 2049 2381 2744 2614 2086 2083 1372 999 1206 694 710 380 167 85 47 109 229 256 788 1329 1989 2429 2415 2878 3639 4328 4003 3758 3649 3490 3392 2884 2736 2235 1673 2130 1876 1497 1261
1951 1899 1865 2108 2242 2839 2930 2772 1984 1556 1237 1350 1414 1157 533 380 478 378 543 695 847 952 988 1295 1934 2613 2566 2940 3288 3411 3567 3494 3323 3246 3120 2903 2612 1980 1597 2155 1755 1228 1014
1911 2151 2079 1585 2241 2802 3152 2672 2206 1721 1370 1277 1154 1305 1150 1169 1175 939 1463 1661 1499 1612 2000 1936 2143 2278 2681 2723 2891 3210 3139 3314 3174 3101 2786 2839 2467 1823 1536 2303 1744 1280 996
2123 2516 1664 1430 2646 2819 3024 2520 2462 2109 1766 1634 1028 1334 1256 1122 1186 1347 1405 1462 1714 1798 1803 2361 2730 2228 2524 2444 2198 2345 2342 2836 3119 2954 2588 2512 2395 1830 1349 2207 1881 1379 1099
2418 2183 1200 1853 2554 2772 3211 3154 2723 2708 1903 1631 1423 1301 1212 1181 1330 1457 1441 1425 1468 1335 1310 1530 1907 1554 1083 540 599 773 1486 2211 2803 3180 2507 2114 2387 1951 1149 1719 2088 1632 1138
2319 2146 1620 2080 2276 2429 3067 3103 3039 2213 1687 1778 2245 1270 1290 1229 1135 1078 1327 1401 1381 1111 1041 1003 1067 964 868 646 513 518 1193 1549 1568 2360 2757 1966 1784 2017 1309 1043 1724 1833 1552
2180 2233 1820 1950 1985 2366 2326 2894 2789 2726 1612 1302 1666 2289 1463 985 1313 993 1075 838 958 972 1057 1083 934 954 781 565 493 435 506 766 946 1718 2318 2490 1505 1702 1858 1020 1136 1540 1462
2018 2123 2030 1975 2284 2105 2784 2667 2373 2498 2333 1526 1209 941 1264 1423 1134 1040 1074 973 873 633 610 579 689 860 790 564 284 181 81 689 789 1330 1632 1873 1796 1392 2100 1648 854 876 1067
1954 1825 2158 2070 2229 1884 2456 2511 2451 2692 1868 1787 1407 1018 767 479 584 563 420 273 558 295 525 798 986 970 1026 1130 1279 1172 571 770 727 762 794 1113 1671 1401 1569 2281 1756 865 533
1656 2100 1956 2327 2345 2031 2177 1997 2293 2452 2364 2248 1479 1318 981 790 797 404 366 721 893 894 943 1076 1177 1459 1557 1713 1294 557 922 445 234 108 198 432 1114 1259 1224 1764 2455 2190 1573
1343 1896 2087 2085 2542 2111 2054 2150 2374 2278 2178 1993 2224 1124 847 917 663 349 468 766 946 978 1023 1245 1374 1643 2044 2367 2229 1188 340 143 24 8 21 95 283 423 783 776 1224 2133 2520
1215 1514 1562 1718 1687 1907 2001 2240 1933 1793 1712 1795 2049 2023 1236 764 724 698 897 994 694 897 868 1571 1195 1570 1897 2139 1796 1604 1538 65 18 0 0 0 4 94 225 419 381 541 960
948 1002 1169 1384 1693 1720 1857 1906 1515 1928 1945 1970 1626 1788 1815 1258 684 864 1230 1071 1095 493 287 937 1140 1667 1369 1857 1400 2128 1710 1 0 0 0 0 0 0 0 0 0 22 63
779 835 887 1079 1381 1657 1798 1986 2131 1911 2060 1794 1377 1925 2238 1571 1406 1212 1185 1318 1146 1356 787 743 1198 1694 1870 1442 1035 1324 1090 836 0 0 0 0 0 0 0 0 0 0 2
610 514 780 855 1223 1374 1540 1827 2088 1915 1986 1827 1689 1899 1928 1826 1315 1442 1607 1793 1601 1537 1172 939 1127 1627 1891 2047 1667 1201 1420 1669 0 0 0 0 0 0 1 2 2 1 0
808 760 380 447 542 997 1273 1564 1611 1311 1705 1649 1583 1768 1817 1270 1799 1888 1741 2161 1906 1793 1393 1507 1488 1525 1838 1887 1115 1452 1060 1135 0 0 0 0 0 0 0 0 0 1 1
714 409 129 225 310 297 912 1430 1738 1496 1248 1522 1650 1624 1502 1604 1964 1609 1953 1847 1164 1756 1470 1794 1227 1054 1274 1413 724 1025 609 442 170 0 0 0 0 0 0 0 0 0 0
704 399 266 107 255 701 693 1002 1423 1374 1468 1440 1541 1482 1476 1569 1751 1808 1591 1975 1635 2034 1756 1460 1059 703 1064 1511 305 809 464 131 385 0 0 0 0 0 0 0 0 0 0
771 732 371 219 524 990 658 860 1049 1257 1499 1432 1206 1355 1426 854 266 955 2031 1923 1879 2061 1976 1556 741 975 1174 423 276 452 957 2 8 97 0 0 0 0 0 0 0 0 0
1267 1003 720 559 585 471 0 1 0 472 705 982 521 791 1163 40 10 0 0 37 227 1715 1502 1753 1687 1626 1164 155 112 160 597 900 6 0 1 0 0 0 0 0 0 0 0
1495 1268 1003 900 623 104 0 0 0 6 317 577 950 1243 1093 170 15 311 0 0 0 0 0 1319 1523 1496 282 95 94 179 407 172 0 0 14 0 0 0 0 0 0 0 0
525 1246 819 293 29 0 0 0 0 0 34 235 218 692 755 83 24 28 0 0 0 0 0 0 32 50 37 35 92 203 379 0 0 0 0 4 0 0 0 0 0 0 0
181 33 119 211 49 1 1 0 1 4 0 0 1 0 1 36 0 0 0 0 0 0 0 0 0 0 0 0 0 89 121 291 133 0 0 0 0 0 0 0 0 0 0
86 16 3 4 0 2 0 0 1 0 0 0 0 0 0 0 0 0 0 0 0 0 0 0 0 0 0 0 0 0 0 0 0 0 0 0 0 3 1 0 0 0 0